[[[{"header":{"parameterUnit":"kt","parameterCategory":2,"dx":1,"dy":1,"la1":29.587661999999998,"la2":31.0,"lo1":-88.76705300000003,"lo2":-86.6583820000003,"nx":115,"ny":88,"refTime":"2022-10-30T00:00:00:Z","depth":0,"parameterNumber":1,"parameterNumberName":"U-component_of_WINDS"},"data":[4.2242,4.2069,4.1721,4.099,4.0097,3.8848,3.8124,3.7575,3.5968,3.5459,3.5234,3.5339,3.4297,3.0634,3.0879,3.2103,3.4431,3.5036,3.5826,3.7093,3.8348,3.9194,4.0001,4.0816,4.1719,4.2553,4.297,4.2653,4.2292,4.1968,4.1467,4.0614,4.0841,4.0594,4.0174,4.0357,4.0651,4.0448,4.0375,4.0174,4.0022,3.9271,3.8501,3.8491,3.8905,3.9204,3.943,3.9505,3.9581,3.9656,3.9562,3.9656,3.9694,3.9694,3.9827,3.9827,3.9978,3.9978,3.9997,3.9997,3.9997,3.9997,3.9997,3.9978,3.9959,3.994,3.9503,3.9408,3.8858,3.8117,3.7567,3.732,3.696,3.6618,3.6314,3.5746,3.5644,3.5523,3.5303,3.5362,3.563,3.625,3.6867,3.7384,3.7892,3.821,3.8588,3.8954,3.9182,3.9106,3.9228,3.9508,3.9788,3.9222,3.8941,3.9151,3.9081,3.8497,3.8403,3.9479,4.0133,4.0227,4.0577,4.1115,4.1185,4.1321,4.1861,4.2636,4.3535,4.4552,4.4791,4.4799,4.5044,4.5126,4.4739,4.2087,4.1895,4.0448,3.7946,3.4918,3.4571,3.3635,3.236,3.1628,3.1811,3.215,3.4534,3.4399,3.3797,3.446,3.5382,3.5933,3.5673,3.7779,3.9365,4.0035,3.9461,3.9759,4.0626,4.1008,4.1338,4.198,4.1625,4.087,4.0933,4.0463,4.0121,3.9943,3.9907,3.9982,4.0073,4.0072,3.9814,3.9578,3.9305,3.8541,3.791,3.7401,3.6959,3.6772,3.6772,3.7068,3.7382,3.7862,3.8158,3.8904,3.9108,3.9372,3.9524,3.9675,3.9675,3.9978,3.9978,3.9997,3.9997,3.9997,3.9959,3.9997,3.9959,4.0072,3.9579,3.8877,3.8459,3.7947,3.7339,3.6751,3.6295,3.5896,3.5517,3.5365,3.5096,3.5757,3.6308,3.5984,3.5611,3.6132,3.6767,3.7373,3.7847,3.8211,3.8568,3.8972,3.9525,3.9596,3.8918,3.8777,3.9105,3.9549,3.9806,3.9783,3.9783,3.9736,3.9292,3.9362,4.0273,4.0951,4.1156,4.1529,4.2073,4.266,4.2846,4.3391,4.3889,4.5142,4.6345,4.5935,4.517,4.5346,4.5224,4.4456,4.153,4.0623,3.9729,3.7769,3.5384,3.4876,3.4194,3.3409,3.3107,3.2103,3.1352,3.3005,3.3216,3.1772,3.35,3.3765,3.2888,3.5081,3.627,3.6249,3.5667,3.7273,3.655,3.5678,3.7545,3.9085,3.9477,3.9456,3.7796,3.8268,3.8843,3.8005,3.8855,3.9158,3.8851,3.9009,3.8967,3.8832,3.8987,3.8141,3.6829,3.6795,3.6522,3.7327,3.7454,3.8045,3.8194,3.8698,3.8811,3.8979,3.911,3.9335,3.9372,3.9524,3.9694,3.9808,3.977,3.9997,3.9997,3.9997,3.9997,3.975,3.9674,3.9256,3.9256,3.8554,3.7852,3.7085,3.6574,3.6276,3.5553,3.5269,3.4872,3.4588,3.4473,3.4408,3.4834,3.5188,3.4866,3.4792,3.553,3.6188,3.7066,3.7458,3.7881,3.8258,3.8567,3.8964,3.838,3.7726,3.8287,3.8801,3.9479,3.9853,4.0297,4.0437,4.046,4.0484,4.0414,4.1045,4.1489,4.1906,4.2557,4.3362,4.4004,4.4334,4.4708,4.5203,4.617,4.6668,4.6143,4.5666,4.5706,4.5733,4.6087,4.1356,4.0097,4.008,3.9025,3.7172,3.6317,3.5588,3.4971,3.4027,3.1992,3.0979,3.1697,3.1728,3.0534,3.191,3.2407,3.166,3.3596,3.267,3.3596,3.4206,3.5435,3.4179,3.472,3.4679,3.6047,3.7475,3.8132,3.7045,3.7129,3.7431,3.6911,3.762,3.8054,3.7773,3.7836,3.7825,3.7632,3.7759,3.7282,3.6392,3.6158,3.5941,3.6668,3.7071,3.7548,3.7992,3.8755,3.9017,3.9487,3.9543,3.9656,3.9827,3.9846,3.9751,3.9581,3.9579,3.937,3.9256,3.9086,3.9086,3.8972,3.882,3.8535,3.8042,3.7179,3.6479,3.5836,3.5288,3.4853,3.4475,3.4324,3.4116,3.3907,3.3553,3.3574,3.3567,3.331,3.2926,3.3501,3.4201,3.5185,3.6308,3.6909,3.7334,3.7649,3.7993,3.8006,3.7468,3.7772,3.8427,3.9689,4.011,4.0484,4.0928,4.1232,4.1465,4.1536,4.1582,4.1746,4.2003,4.2425,4.3037,4.4196,4.5112,4.5187,4.5367,4.6024,4.6125,4.6235,4.5963,4.6179,4.6165,4.7629,4.8286,4.1878,4.1704,4.1913,4.0273,3.9008,3.6753,3.5309,3.3645,3.1101,2.9527,2.9587,3.0144,3.0494,3.0175,3.0846,3.1783,3.2075,3.2765,3.3174,3.5214,3.472,3.416,3.4522,3.5699,3.4526,3.5763,3.6779,3.6864,3.7129,3.7176,3.7095,3.7489,3.7537,3.718,3.6724,3.6784,3.6717,3.6594,3.6609,3.6492,3.6259,3.6075,3.6004,3.5704,3.5778,3.5868,3.6084,3.6371,3.6766,3.7336,3.7928,3.8556,3.8842,3.909,3.8792,3.8698,3.8545,3.8408,3.8106,3.7973,3.7841,3.7746,3.7605,3.7236,3.6341,3.5357,3.4511,3.3745,3.3875,3.3499,3.3383,3.3213,3.3138,3.3006,3.2667,3.2499,3.2482,3.226,3.2283,3.2941,3.3821,3.5146,3.6132,3.6305,3.6671,3.7026,3.7235,3.7328,3.7422,3.817,3.9362,4.0904,4.1278,4.1629,4.1933,4.2097,4.24,4.2587,4.2728,4.2821,4.292,4.3251,4.3605,4.4624,4.574,4.5784,4.6235,4.6476,4.684,4.6928,4.7235,4.6908,4.7923,4.9738,5.0781,3.8156,3.7072,3.7088,3.6715,3.5563,3.3431,3.3157,3.3061,3.0451,2.9528,3.0188,3.0831,3.0628,3.0184,3.0843,3.1184,3.1198,3.1878,3.209,3.2979,3.3683,3.3043,3.2545,3.2643,3.3012,3.2971,3.3335,3.493,3.44,3.4943,3.5543,3.5058,3.5832,3.5767,3.5808,3.5883,3.5778,3.5651,3.5668,3.563,3.563,3.5594,3.6009,3.6155,3.6392,3.6902,3.7468,3.7686,3.7886,3.8111,3.8166,3.8293,3.7932,3.8177,3.7825,3.7343,3.7265,3.711,3.6755,3.6717,3.6706,3.6669,3.6334,3.5558,3.4285,3.3615,3.2762,3.21,3.2241,3.2361,3.2174,3.2129,3.2111,3.2215,3.1763,3.143,3.1386,3.1312,3.1759,3.2512,3.3586,3.501,3.5627,3.5749,3.6055,3.6644,3.7001,3.7352,3.8146,3.9058,4.053,4.1676,4.2143,4.2517,4.2728,4.2868,4.2987,4.3034,4.3269,4.3365,4.3939,4.4152,4.441,4.5228,4.6124,4.722,4.806,4.8025,4.7606,4.906,4.9637,4.9405,5.0019,5.1549,5.2704,3.5349,3.4279,3.4114,3.423,3.4021,3.0681,3.0208,3.1717,3.0168,2.9476,3.0229,3.0951,3.0197,2.96,3.0531,3.0036,2.9915,2.9807,2.9582,2.981,3.0557,2.9956,2.9915,3.0139,3.018,3.0261,3.0663,3.1797,3.1804,3.3223,3.3468,3.3445,3.5314,3.5412,3.5398,3.5238,3.5434,3.5576,3.5719,3.5968,3.6075,3.62,3.651,3.6874,3.6964,3.7313,3.7825,3.8007,3.7959,3.8074,3.8074,3.7859,3.7181,3.7199,3.7088,3.637,3.6002,3.5689,3.5377,3.5266,3.5128,3.4629,3.4082,3.2762,3.192,3.1427,3.146,3.1044,3.102,3.0775,3.0637,3.0563,3.0646,3.0572,3.0386,3.0557,3.1369,3.1473,3.2121,3.2827,3.3675,3.4962,3.6041,3.6159,3.6332,3.6817,3.7422,3.8287,3.9198,4.0367,4.1582,4.219,4.2634,4.2821,4.3078,4.3148,4.3269,4.3389,4.3245,4.3365,4.4105,4.483,4.522,4.5571,4.5808,4.715,4.883,4.8455,4.7314,4.9146,5.0771,5.1252,5.1774,5.2594,5.3642,3.5116,3.5486,3.5532,3.5459,3.5258,3.0103,2.797,2.8555,2.884,2.9261,2.9151,2.9235,2.9014,2.845,2.8908,2.8751,2.8372,2.8268,2.802,2.7805,2.8207,2.7335,2.7576,2.836,2.8831,2.9088,2.9613,3.0522,2.9848,3.1828,3.3818,3.4728,3.5537,3.539,3.5266,3.543,3.5915,3.6218,3.6378,3.6592,3.6842,3.7127,3.7145,3.7261,3.7261,3.7333,3.7297,3.7172,3.7018,3.6916,3.6811,3.665,3.6447,3.637,3.6352,3.6021,3.5321,3.4291,3.3331,3.3129,3.2762,3.1939,3.1322,3.0926,3.0531,3.042,3.015,2.9999,2.9836,2.9502,2.9291,2.9291,2.9407,2.9334,2.9242,2.9877,3.0826,3.1422,3.2079,3.2697,3.335,3.4639,3.5613,3.6621,3.6817,3.7352,3.81,3.9035,4.025,4.1442,4.219,4.2774,4.2891,4.3125,4.3148,4.3148,4.3389,4.3963,4.382,4.3796,4.4548,4.5262,4.5259,4.5312,4.5463,4.5937,4.6888,4.7117,4.7257,4.8506,5.0275,5.0944,5.2025,5.2996,5.3574,3.0417,3.025,3.025,3.0375,3.0359,2.9198,2.8346,2.819,2.8048,2.8424,2.8697,2.7853,2.745,2.7463,2.7217,2.6775,2.71,2.6788,2.6412,2.6936,2.713,2.6605,2.6707,2.7534,2.7983,2.886,2.9463,3.0709,3.1496,3.211,3.3161,3.4443,3.5469,3.4949,3.5167,3.5771,3.6574,3.6521,3.661,3.6877,3.7091,3.7287,3.7323,3.7198,3.6949,3.6699,3.6467,3.5861,3.5203,3.4881,3.4505,3.4161,3.3837,3.3668,3.3325,3.3109,3.2639,3.199,3.1521,3.1467,3.0742,2.9662,2.9154,2.8999,2.8999,2.9297,2.9029,2.8903,2.8742,2.876,2.8768,2.875,2.898,2.9247,2.9192,2.9307,2.9936,3.005,3.0631,3.0875,3.1636,3.3567,3.5086,3.6123,3.7281,3.8006,3.8754,3.9993,4.1208,4.2097,4.2868,4.3008,4.3102,4.3148,4.3148,4.3128,4.3535,4.4389,4.4455,4.447,4.5014,4.5095,4.4965,4.5022,4.5682,4.6123,4.6006,4.6679,4.8123,4.9401,5.0155,5.1039,5.2279,5.2894,5.3417,2.7827,2.7658,2.7658,2.7113,2.6386,2.7243,2.7424,2.7035,2.6762,2.7035,2.7528,2.6853,2.6412,2.6347,2.597,2.5866,2.5905,2.5464,2.5464,2.5969,2.6175,2.5971,2.5927,2.6394,2.7255,2.774,2.7733,2.8896,3.1624,3.0611,3.1466,3.2524,3.2625,3.3681,3.4856,3.5333,3.6164,3.6004,3.6004,3.6004,3.5915,3.5826,3.5772,3.5719,3.5291,3.5059,3.4935,3.4293,3.3651,3.3241,3.2974,3.2457,3.2143,3.1798,3.1423,3.1227,3.1013,3.0496,3.0461,2.9819,2.9231,2.8696,2.8358,2.8375,2.8251,2.8215,2.8215,2.8251,2.8322,2.8402,2.8392,2.8392,2.8623,2.8871,2.8985,2.91,2.9652,2.9766,2.9993,3.0445,3.1878,3.4148,3.5403,3.6413,3.7538,3.8351,3.8962,4.0121,4.1886,4.2751,4.3031,4.3055,4.3269,4.3148,4.3034,4.292,4.3362,4.3934,4.4318,4.4597,4.4754,4.4768,4.4689,4.4375,4.5477,4.6594,4.5388,4.5054,4.7773,4.9881,4.9955,5.0637,5.1686,5.2451,5.3069,2.7567,2.8126,2.8009,2.6489,2.449,2.4646,2.5159,2.5269,2.529,2.5451,2.5983,2.5788,2.5425,2.5152,2.5373,2.5256,2.5035,2.5015,2.5028,2.5068,2.5101,2.477,2.4793,2.5217,2.596,2.5668,2.5987,2.6418,2.7246,2.8612,2.9149,2.9899,3.0523,3.1392,3.5359,3.4614,3.3566,3.2945,3.3069,3.3229,3.3336,3.358,3.3616,3.3598,3.3402,3.333,3.3188,3.2671,3.2101,3.1673,3.1423,3.1085,3.0639,3.0479,3.039,3.0407,3.0354,3.03,3.03,2.9017,2.85,2.8269,2.8215,2.8215,2.8215,2.8215,2.8215,2.8215,2.8215,2.8197,2.8197,2.8215,2.841,2.8526,2.8623,2.8852,3.0087,3.0631,3.106,3.1636,3.3501,3.5153,3.5741,3.6516,3.7481,3.8193,3.8932,4.0423,4.2329,4.3031,4.2868,4.3058,4.3605,4.3725,4.3891,4.3382,4.3115,4.3544,4.3932,4.4233,4.4431,4.4612,4.4391,4.3765,4.4666,4.6164,4.4909,4.3747,4.6475,4.9341,4.9592,5.0234,5.1106,5.2048,5.2834,2.5801,2.5269,2.5645,2.5529,2.5217,2.5334,2.5399,2.5412,2.536,2.5542,2.5645,2.5217,2.4918,2.4736,2.4659,2.4477,2.4633,2.4451,2.4503,2.4741,2.4728,2.4399,2.4386,2.4728,2.5405,2.6123,2.6096,2.7283,2.9404,2.9704,3.0694,3.0647,2.9493,2.8408,2.9865,3.002,3.0889,3.1357,3.1578,3.1867,3.276,3.2724,3.2689,3.26,3.2118,3.194,3.1691,3.1049,3.0461,3.0122,2.9784,2.9516,2.9427,2.9338,2.9267,2.9302,2.9249,2.8892,2.8821,2.8411,2.8269,2.8215,2.8215,2.8215,2.8215,2.8215,2.8215,2.8215,2.8215,2.8215,2.8215,2.8215,2.8313,2.841,2.841,2.8852,3.0068,3.108,3.1727,3.2499,3.2629,3.3305,3.4019,3.5091,3.5906,3.6692,3.7621,3.9253,4.1278,4.1975,4.2047,4.266,4.3251,4.3983,4.4664,4.3885,4.3295,4.3672,4.3648,4.3989,4.4367,4.4654,4.4557,4.4379,4.4724,4.5627,4.6017,4.6276,4.759,4.9062,4.9657,5.0436,5.1291,5.2121,5.2814,2.5788,2.4931,2.4898,2.5066,2.503,2.5334,2.5204,2.5035,2.4996,2.4996,2.4944,2.4633,2.4438,2.436,2.4061,2.4126,2.436,2.423,2.4636,2.4885,2.5009,2.4905,2.4853,2.5133,2.5538,2.6068,2.5918,2.7462,2.9942,2.8514,3.0906,3.1692,2.9173,2.745,2.7462,2.9276,2.9419,2.9862,2.9887,3.0084,3.0957,3.1085,3.1067,3.1067,3.0496,3.0407,3.0283,2.9374,2.9071,2.8839,2.8554,2.8643,2.8785,2.8536,2.8572,2.8785,2.8589,2.8393,2.8304,2.8269,2.8215,2.8215,2.8215,2.8215,2.8215,2.8215,2.8215,2.8215,2.8215,2.8215,2.8215,2.8215,2.8215,2.8313,2.8526,2.9082,2.9974,3.0987,3.1747,3.2759,3.265,3.2451,3.3087,3.3847,3.4599,3.5175,3.6416,3.7826,3.9298,4.035,4.0839,4.1394,4.1762,4.2452,4.337,4.3598,4.3614,4.3474,4.3422,4.3854,4.4363,4.4706,4.5009,4.5194,4.5442,4.6131,4.7036,4.8292,4.9376,5.0237,5.0678,5.0858,5.142,5.2366,5.2611,2.6808,2.6214,2.5439,2.4776,2.4094,2.4678,2.4581,2.4214,2.3994,2.4033,2.408,2.3917,2.402,2.4007,2.3991,2.4085,2.4007,2.4607,2.4762,2.4983,2.5308,2.536,2.5139,2.5113,2.5472,2.5486,2.5146,2.525,2.5895,2.6394,2.6752,2.8043,2.7173,2.8368,2.8228,2.7084,2.7166,2.694,2.7186,2.7546,2.7869,2.8189,2.8272,2.8266,2.8241,2.8233,2.8269,2.8375,2.8375,2.8375,2.8251,2.8358,2.8393,2.8269,2.8251,2.8393,2.8251,2.8233,2.8215,2.8215,2.8215,2.8215,2.8215,2.8215,2.8215,2.8215,2.8215,2.8215,2.8215,2.8215,2.8215,2.8215,2.8215,2.8313,2.8526,2.8967,2.9538,3.0538,3.1767,3.2999,3.3347,3.3238,3.3652,3.4084,3.4727,3.4332,3.536,3.6081,3.758,3.8276,3.9036,4.0738,4.1047,4.1453,4.2411,4.3031,4.3578,4.3718,4.3597,4.3969,4.4631,4.475,4.5095,4.5556,4.6834,4.6878,4.733,4.8987,5.042,5.1326,5.1647,5.1487,5.1843,5.2679,5.2896,2.5197,2.4433,2.5084,2.4641,2.3808,2.4193,2.4383,2.4069,2.3832,2.3895,2.3957,2.3845,2.3895,2.4056,2.4145,2.397,2.4183,2.4763,2.4737,2.4825,2.5104,2.5113,2.4723,2.4438,2.4438,2.4321,2.4191,2.4597,2.483,2.44,2.3251,2.3193,2.4266,2.3822,2.3239,2.3638,2.404,2.3769,2.4248,2.4963,2.5658,2.6497,2.6765,2.7116,2.76,2.8215,2.8215,2.8215,2.8215,2.8215,2.8215,2.8215,2.8215,2.8215,2.8215,2.8215,2.7966,2.7983,2.8099,2.8215,2.8215,2.8215,2.8215,2.8215,2.8215,2.8215,2.8215,2.8215,2.8215,2.8215,2.8215,2.8215,2.8215,2.8331,2.8526,2.8641,2.8985,2.9974,3.108,3.221,3.2999,3.3238,3.3782,3.4321,3.4058,3.3539,3.3897,3.4559,3.5185,3.5681,3.7925,4.1612,4.1677,4.1825,4.2783,4.3491,4.3772,4.3904,4.3915,4.437,4.5577,4.5929,4.5783,4.7089,4.865,4.8652,4.8203,4.9823,5.1381,5.1641,5.1826,5.182,5.2373,5.3048,5.3693,2.4056,2.3559,2.4066,2.3858,2.3346,2.3496,2.3695,2.3633,2.3374,2.3274,2.3584,2.3361,2.3398,2.3472,2.3423,2.3262,2.3369,2.3591,2.3737,2.3875,2.4356,2.4529,2.4009,2.3918,2.3918,2.3853,2.3565,2.3875,2.3041,2.2141,2.136,2.1314,2.1611,2.1548,2.2166,2.2607,2.2806,2.3168,2.4128,2.52,2.6011,2.6631,2.7116,2.725,2.785,2.8099,2.8215,2.8215,2.8215,2.8215,2.8215,2.8215,2.8215,2.8099,2.8215,2.8099,2.7716,2.7716,2.8081,2.8215,2.8215,2.8215,2.8215,2.8215,2.8215,2.8215,2.8215,2.8215,2.8215,2.8215,2.8215,2.8215,2.8215,2.8313,2.8719,2.8949,2.9273,2.9936,3.0612,3.1414,3.232,3.2999,3.3673,3.3353,3.2428,3.2406,3.2958,3.3268,3.3547,3.4303,3.7529,4.118,4.1408,4.1577,4.2426,4.3047,4.2893,4.3343,4.3309,4.4549,4.6005,4.6862,4.6832,4.7673,4.9141,4.9628,4.9522,5.0282,5.1176,5.1579,5.1897,5.2755,5.3555,5.4156,5.4847,2.2724,2.2454,2.2745,2.2578,2.2435,2.2541,2.2648,2.266,2.2587,2.255,2.2601,2.2574,2.2574,2.2491,2.2255,2.1915,2.2067,2.2418,2.2759,2.2965,2.3413,2.3659,2.3517,2.3685,2.3181,2.3152,2.2815,2.188,2.114,2.0815,2.0458,2.0731,2.1347,2.1971,2.1727,2.3047,2.5539,2.5556,2.6279,2.6883,2.6999,2.7116,2.7349,2.7367,2.7483,2.7483,2.76,2.7349,2.7367,2.7501,2.7786,2.8036,2.7716,2.7733,2.785,2.7716,2.7349,2.6982,2.7966,2.8215,2.8215,2.8215,2.8215,2.8215,2.8081,2.7966,2.7733,2.7966,2.8215,2.8215,2.8215,2.8215,2.8215,2.841,2.8605,2.893,2.9387,2.9633,3.0744,3.1616,3.2107,3.2752,3.3161,3.1951,3.0953,3.1522,3.1923,3.2013,3.2429,3.4067,3.6824,3.8515,3.9038,4.0037,4.0886,4.1325,4.1623,4.2496,4.325,4.4384,4.5643,4.6658,4.6972,4.7806,4.9235,5.0065,5.0304,5.0588,5.1011,5.1679,5.2568,5.3509,5.4603,5.5233,5.5755,2.0504,1.9226,2.1025,2.0938,2.0102,2.1158,2.1708,2.1661,2.1449,2.1472,2.1649,2.1484,2.1496,2.1746,2.171,2.1603,2.1627,2.2113,2.2009,2.1903,2.2243,2.2381,2.2136,2.1766,2.1575,2.1878,2.1516,2.0604,1.9925,1.9789,1.9913,2.0147,2.027,2.0639,2.0994,2.1957,2.1497,2.1849,2.2079,2.2699,2.3514,2.4456,2.505,2.505,2.5066,2.5775,2.6615,2.6011,2.5523,2.6093,2.6851,2.7307,2.5588,2.5034,2.6011,2.7716,2.7966,2.7966,2.8099,2.7983,2.785,2.7966,2.8099,2.8215,2.8081,2.7466,2.6866,2.6866,2.7483,2.8215,2.8215,2.8215,2.8215,2.8197,2.841,2.8508,2.8871,2.9633,3.0744,3.1115,3.193,3.2229,3.2123,3.1229,3.0448,3.0846,3.1238,3.1259,3.1631,3.3422,3.5493,3.667,3.785,3.8953,3.9959,4.06,4.1107,4.2111,4.3216,4.4466,4.553,4.6492,4.709,4.7741,4.9085,4.9958,5.09,5.1341,5.1699,5.2247,5.3166,5.4173,5.5346,5.613,5.6794,1.8231,1.8241,1.9375,1.9731,1.9575,2.0475,2.0871,2.0824,2.0601,2.0625,2.073,2.0625,2.0637,2.073,2.0648,2.0468,2.039,2.0684,2.0661,2.0612,2.0658,2.0735,2.0615,2.039,2.0354,2.0253,2.0214,1.9827,1.9418,1.9418,1.9529,1.9666,1.9777,1.99,2.0147,2.0626,2.109,2.1334,2.1822,2.2428,2.3018,2.3739,2.4202,2.4202,2.4321,2.4931,2.5775,2.5271,2.5271,2.6044,2.6598,2.6581,2.5556,2.4337,2.2762,2.4321,2.4828,2.5335,2.6028,2.6263,2.6749,2.7116,2.7233,2.7483,2.7716,2.7466,2.7367,2.7349,2.7966,2.8215,2.8099,2.8215,2.8215,2.8215,2.8215,2.8215,2.8544,2.9538,2.9737,2.9721,3.05,3.0821,3.0959,3.067,2.9967,3.0023,3.0469,3.0684,3.0871,3.3036,3.5553,3.6785,3.8057,3.9297,4.0659,4.0749,4.0972,4.2089,4.3272,4.4609,4.5736,4.6468,4.7119,4.7749,4.8258,4.9087,5.0123,5.1371,5.2084,5.2789,5.3806,5.4931,5.6078,5.7121,5.7875,1.6297,1.7126,1.7396,1.7933,1.8726,1.9271,1.9416,1.9427,1.9671,1.9839,1.9827,1.9815,1.9647,1.9612,1.9228,1.9145,1.9154,1.9293,1.9287,1.9376,1.9364,1.9501,1.9602,1.9541,1.9479,1.9282,1.9294,1.9294,1.917,1.9294,1.9294,1.9406,1.9406,1.9406,1.9764,2.0355,2.0832,2.0832,2.1606,2.2542,2.3057,2.3524,2.3716,2.4101,2.3453,2.3874,2.4797,2.5018,2.5491,2.6497,2.5729,2.613,2.5995,2.3379,2.2293,2.3003,2.3619,2.4367,2.4931,2.4916,2.5287,2.5893,2.638,2.6866,2.7349,2.725,2.6648,2.6883,2.6999,2.7116,2.7733,2.7983,2.8099,2.8233,2.8349,2.8313,2.8309,2.8866,2.9378,2.8907,2.905,2.9391,2.9743,2.9796,2.9773,3.0171,3.1089,3.1693,3.2263,3.4129,3.5997,3.7177,3.8369,3.977,4.1196,4.1088,4.1332,4.2542,4.3422,4.4767,4.5543,4.6277,4.7107,4.777,4.8386,4.9294,5.0099,5.096,5.229,5.4347,5.5061,5.568,5.6872,5.8043,5.8834,1.4145,1.3364,1.4531,1.4402,1.4008,1.6096,1.7158,1.7263,1.8266,1.8531,1.8668,1.8657,1.8415,1.8692,1.8484,1.854,1.856,1.8435,1.8685,1.8685,1.8685,1.8922,1.907,1.8957,1.8857,1.856,1.8685,1.8673,1.8673,1.8572,1.8904,1.9082,1.9082,1.934,1.9479,1.9666,1.9902,1.999,2.0644,2.1427,2.2633,2.2804,2.3184,2.3211,2.2498,2.2138,2.2599,2.2406,2.1863,2.0872,2.2138,2.3678,2.4907,2.4813,2.5405,2.5168,2.4631,2.4647,2.4781,2.5287,2.5523,2.6145,2.6145,2.6263,2.6028,2.5453,2.5168,2.4797,2.4702,2.4332,2.6011,2.7159,2.7922,2.8144,2.8786,2.861,2.766,2.7407,2.8096,2.7938,2.8086,2.8581,2.8885,2.9323,2.9814,3.0531,3.1997,3.3188,3.426,3.5651,3.6737,3.7891,3.8916,4.0179,4.1389,4.1568,4.2203,4.3049,4.3546,4.4486,4.5172,4.6313,4.7479,4.8021,4.8912,5.0357,5.1347,5.1853,5.342,5.5948,5.6908,5.6997,5.7795,5.8875,5.8967,1.232,1.2432,1.3078,1.346,1.3714,1.4864,1.537,1.5496,1.6126,1.6272,1.6262,1.6272,1.6262,1.6398,1.7015,1.7026,1.6775,1.7663,1.8435,1.8447,1.8447,1.856,1.8696,1.8266,1.8151,1.8435,1.8424,1.8424,1.8517,1.868,1.8947,1.9086,1.9522,1.9534,1.9747,1.9771,1.9711,1.9771,1.9999,2.0405,2.1361,2.1575,2.1878,2.1502,2.1297,2.1271,2.2046,2.1871,2.1848,2.1878,2.1989,2.2313,2.3003,2.2756,2.302,2.3349,2.3112,2.2742,2.296,2.2897,2.308,2.3469,2.3589,2.4321,2.4813,2.4725,2.4466,2.4637,2.4362,2.3973,2.5277,2.6506,2.66,2.6723,2.712,2.7216,2.6648,2.6382,2.6349,2.6318,2.6922,2.76,2.837,2.9028,2.9588,3.0329,3.1767,3.3355,3.455,3.6253,3.7393,3.8758,3.9655,4.0647,4.176,4.2569,4.3234,4.3911,4.4467,4.5184,4.5877,4.6889,4.7928,4.8431,4.9036,5.064,5.2498,5.2924,5.3979,5.5878,5.7265,5.8063,5.8521,5.8398,5.8378,1.0918,1.1929,1.1929,1.2576,1.3468,1.385,1.3968,1.3968,1.4358,1.4611,1.4484,1.4358,1.4484,1.462,1.5604,1.5565,1.5,1.6523,1.7694,1.7705,1.7771,1.7898,1.7878,1.7722,1.7733,1.8278,1.8424,1.8494,1.8668,1.8983,1.9358,1.9487,1.978,2.0062,2.0015,1.9933,2.0073,2.0097,2.0191,2.0426,2.06,2.1346,2.1729,2.1258,2.1747,2.2429,2.2907,2.2776,2.2859,2.2722,2.1837,2.1157,2.1104,2.0563,2.1047,2.1651,2.1085,2.0553,2.0876,2.1089,2.0689,2.1859,2.2184,2.2343,2.4239,2.3944,2.3957,2.4001,2.4164,2.3492,2.3645,2.4535,2.5119,2.5324,2.5606,2.5826,2.5419,2.5209,2.5136,2.5228,2.5791,2.6569,2.7848,2.9014,2.9849,3.0237,3.1552,3.3143,3.4884,3.6658,3.8338,4.0146,4.1046,4.2074,4.3142,4.3945,4.4628,4.5331,4.5968,4.6664,4.73,4.8183,4.8987,4.9401,4.9501,5.1353,5.3538,5.4086,5.4093,5.5471,5.6928,5.721,5.7425,5.7646,5.7601,1.0023,1.0146,1.0545,1.0803,1.1217,1.2072,1.264,1.2847,1.3664,1.4175,1.4184,1.4258,1.3964,1.4376,1.4758,1.4824,1.4303,1.5279,1.5504,1.558,1.5855,1.6071,1.6733,1.7126,1.7722,1.8106,1.8459,1.86,1.8936,1.9193,1.9461,1.9968,1.9962,2.012,2.0261,2.0179,2.0097,2.0261,2.059,2.0866,2.1383,2.2621,2.3022,2.249,2.3445,2.3767,2.3599,2.3744,2.309,2.0087,2.0077,2.0555,2.049,2.1036,2.1725,2.2421,2.202,2.1793,2.2634,2.1923,2.1963,2.1656,2.1836,2.2435,2.2239,2.1993,2.1455,2.1028,1.9558,2.0343,2.0776,2.2147,2.33,2.4034,2.4876,2.4833,2.4125,2.3749,2.4314,2.562,2.59,2.6988,2.8324,2.9716,3.0814,3.1671,3.3469,3.5191,3.6747,3.8103,3.9607,4.1311,4.2459,4.3489,4.4415,4.528,4.5987,4.6596,4.7219,4.7694,4.8322,4.8798,4.9807,5.023,4.9848,5.1125,5.3619,5.465,5.4778,5.5652,5.6386,5.635,5.6279,5.6705,5.6663,0.9141,0.9965,1.0235,1.0241,1.0377,1.0904,1.1032,1.1167,1.1713,1.1982,1.2251,1.2258,1.2385,1.2661,1.3604,1.358,1.2945,1.4414,1.4614,1.41,1.4605,1.4891,1.4891,1.5304,1.6076,1.6689,1.7583,1.8086,1.8404,1.9657,2.016,2.0381,2.0813,2.0953,2.0883,2.0965,2.0965,2.0965,2.1141,2.1342,2.1503,2.2249,2.2268,2.2193,2.2123,2.2746,2.247,2.2534,2.2897,2.296,2.258,2.2592,2.2535,2.2258,2.2521,2.3649,2.258,2.204,2.2124,2.1477,2.0675,1.99,1.9603,1.9786,2.0064,2.0232,2.0242,2.0002,2.0378,2.0496,2.0696,2.1286,2.1981,2.229,2.2058,2.1984,2.2688,2.2683,2.3534,2.4736,2.5655,2.6488,2.8947,3.0191,3.1754,3.3603,3.5446,3.6992,3.8648,3.9671,4.098,4.2559,4.3863,4.4946,4.5912,4.6488,4.7143,4.7582,4.8098,4.8392,4.8725,4.8864,4.9862,5.0514,5.0156,5.0693,5.2919,5.4563,5.4771,5.5148,5.5833,5.6107,5.5965,5.6123,5.5725,0.7541,0.8652,0.8866,0.8982,0.9405,0.9405,0.9525,0.9954,0.9936,1.0149,1.0353,1.0377,1.0575,1.0913,1.1918,1.1939,1.1425,1.2845,1.3182,1.2333,1.33,1.3261,1.3236,1.3594,1.4529,1.5422,1.6287,1.6979,1.7532,1.8774,1.9866,2.0611,2.0933,2.1204,2.1411,2.1317,2.1341,2.1211,2.1176,2.1129,2.12,2.1056,2.1052,2.1028,2.1211,2.1563,2.1887,2.1906,2.3028,2.4691,2.4055,2.3694,2.3244,2.2521,2.2533,2.3394,2.2463,2.1586,2.1631,2.0966,2.0039,1.8972,1.9343,1.8769,1.9248,1.9635,1.9747,1.9977,2.0442,2.0555,2.0074,1.9938,1.9953,1.9953,2.0044,2.0499,2.1608,2.2196,2.321,2.513,2.6151,2.7995,3.0224,3.1847,3.3072,3.5083,3.6646,3.8005,3.9963,4.1388,4.2938,4.4258,4.5292,4.6416,4.7176,4.7597,4.8053,4.8419,4.8578,4.8734,4.8644,4.8748,4.9631,5.0728,5.0424,5.127,5.3103,5.3759,5.4549,5.48,5.5058,5.4893,5.4949,5.4592,5.4019,0.4909,0.5024,0.5426,0.6461,0.7534,0.7539,0.8227,0.9229,0.9241,0.9287,0.9532,0.9598,0.9538,0.9544,1.0339,1.0308,0.9664,1.0551,1.0647,1.0408,1.054,1.1247,1.2145,1.3181,1.406,1.4993,1.495,1.5508,1.6825,1.7623,1.8069,2.0436,2.0625,2.0646,2.0871,2.086,2.0637,2.0343,2.0226,2.0238,2.0385,2.1088,2.1601,2.1735,2.2391,2.2971,2.3193,2.3733,2.3933,2.3188,2.2392,2.2079,2.1714,2.1564,2.2158,2.3067,2.1567,2.1837,2.245,2.175,2.1175,2.1256,2.082,2.1239,2.0499,2.0011,1.9513,1.9076,1.8743,1.8177,1.7626,1.7688,1.7537,1.7411,1.8961,2.0437,2.1804,2.2762,2.4491,2.6803,2.8418,3.0247,3.3398,3.3974,3.5483,3.7406,3.897,4.0425,4.2045,4.3386,4.4964,4.6023,4.6928,4.7679,4.7792,4.823,4.8557,4.8719,4.8509,4.8394,4.8163,4.8347,4.8965,5.0183,5.0919,5.2224,5.3085,5.2408,5.2504,5.3031,5.3264,5.3401,5.3048,5.2369,5.1769,0.3905,0.4738,0.4963,0.5353,0.577,0.577,0.6592,0.7685,0.7826,0.8591,0.9495,0.9537,0.9834,1.0091,1.0181,1.0103,1.0031,1.0103,0.9881,0.9489,0.9585,1.0116,1.0817,1.1537,1.2205,1.296,1.4709,1.5791,1.6515,1.857,2.0235,2.0892,2.0853,2.0707,2.0684,2.0238,2.0003,2.0038,1.9757,2.001,2.0867,2.1066,2.1412,2.1879,2.2073,2.2527,2.3139,2.3514,2.342,2.2921,2.2578,2.2321,2.2457,2.2941,2.3529,2.3694,2.329,2.2919,2.2993,2.2492,2.2084,2.1134,2.0246,1.9552,1.9096,1.8452,1.8007,1.7776,1.8182,1.8472,1.8284,1.8601,1.8427,1.7666,1.8832,1.9907,2.1166,2.3,2.539,2.7727,2.9057,3.1438,3.4529,3.6081,3.7351,4.0454,4.1796,4.2952,4.4082,4.5339,4.6238,4.7174,4.7967,4.8272,4.8444,4.8656,4.8991,4.8632,4.8303,4.809,4.7832,4.8061,4.8532,4.9757,5.0263,5.13,5.1034,5.0497,5.0374,5.0493,5.0835,5.1102,5.1329,5.0541,4.9755,0.2379,0.3354,0.333,0.3592,0.4006,0.4006,0.4831,0.6066,0.6066,0.6854,0.7967,0.8015,0.8217,0.8475,0.8402,0.8609,0.903,0.8539,0.8729,0.8989,0.8872,0.9134,0.9757,1.009,1.0448,1.1101,1.3083,1.4177,1.4854,1.7044,1.8889,1.9367,1.9248,1.9319,1.933,1.8929,1.8571,1.8866,1.8723,1.9217,2.0152,2.013,2.034,2.0922,2.0959,2.1483,2.2428,2.2926,2.3076,2.3091,2.3076,2.3062,2.3197,2.3799,2.4174,2.4174,2.4054,2.3423,2.2492,2.2839,2.2592,2.1239,2.0649,1.9966,1.9347,1.8667,1.8114,1.8177,1.8483,1.8976,1.9091,1.9522,1.9522,1.9407,1.9592,2.0191,2.0968,2.242,2.5278,2.8418,3.0532,3.314,3.6651,3.8912,4.0217,4.2824,4.4107,4.4799,4.5672,4.6699,4.7689,4.778,4.8269,4.8642,4.8323,4.8235,4.8132,4.7674,4.7772,4.7779,4.772,4.7874,4.8466,4.9149,4.9254,4.9286,4.8808,4.8497,4.8497,4.8594,4.9051,4.9284,4.9416,4.8925,4.8111,0.0137,0.0,0.0133,0.1054,0.2115,0.2244,0.2883,0.4072,0.4198,0.4411,0.4933,0.4492,0.4825,0.4502,0.4915,0.522,0.619,0.5414,0.633,0.8901,0.7916,0.8324,0.9675,0.9669,0.9739,0.954,0.9457,1.0057,1.1473,1.2777,1.3976,1.5013,1.5857,1.6494,1.6744,1.6702,1.6639,1.6807,1.7211,1.7483,1.7674,1.8311,1.8696,1.8845,1.9802,2.0736,2.1415,2.2806,2.3453,2.3453,2.3438,2.3453,2.3559,2.3799,2.3679,2.3784,2.3076,2.2194,2.1489,2.3096,2.3216,2.2069,2.2974,2.2966,2.1812,2.0631,1.9843,1.9698,1.9206,1.8789,1.8976,1.8803,1.9407,2.1886,2.151,2.123,2.1411,2.1411,2.3391,2.8723,3.3292,3.6831,3.9404,4.1577,4.3197,4.4431,4.5647,4.656,4.6643,4.7569,4.8297,4.8167,4.8253,4.842,4.8089,4.7524,4.688,4.6631,4.6617,4.7468,4.7377,4.8055,4.8703,4.8983,4.9143,4.8752,4.8303,4.7839,4.768,4.705,4.757,4.7926,4.7722,4.7293,4.6491,-0.0275,0.0,0.0,0.0265,0.0671,0.066,0.1439,0.2742,0.2742,0.3316,0.4182,0.4131,0.4162,0.4244,0.4185,0.3956,0.3525,0.4134,0.563,0.7934,0.8519,0.8989,0.9379,0.9511,0.9389,0.9173,0.8931,0.9876,1.1664,1.3219,1.4255,1.4763,1.4694,1.4758,1.4861,1.478,1.4779,1.5028,1.5425,1.615,1.7301,1.7611,1.8149,1.9184,2.0503,2.1483,2.1822,2.2941,2.3453,2.3453,2.2835,2.3168,2.459,2.5572,2.6011,2.5912,2.5018,2.4409,2.4316,2.3933,2.3601,2.3311,2.266,2.1893,2.1103,1.9689,1.8759,1.8494,1.8191,1.8789,1.9377,1.9892,2.0521,2.1411,2.2017,2.2505,2.3228,2.5348,2.7786,3.0815,3.5262,3.9613,4.2776,4.4273,4.5353,4.6323,4.6842,4.7238,4.7187,4.7659,4.7851,4.8068,4.8079,4.7832,4.5767,4.2314,4.0525,4.2859,4.366,4.5934,4.7092,4.8197,4.8881,4.9071,4.9018,4.8607,4.8135,4.7666,4.6821,4.5921,4.6078,4.6374,4.5947,4.5603,4.5307,-0.2165,-0.1919,-0.2009,-0.201,-0.204,-0.2027,-0.1069,0.0265,0.0398,0.1339,0.2572,0.2673,0.2557,0.2615,0.2389,0.2007,0.1811,0.2125,0.373,0.6093,0.6474,0.7202,0.8115,0.825,0.8431,0.8945,0.8908,0.9422,1.0834,1.2169,1.2906,1.2851,1.2824,1.3111,1.346,1.3121,1.3356,1.4148,1.441,1.5391,1.6944,1.7358,1.772,1.8443,1.9862,2.1103,2.2065,2.3153,2.4009,2.4502,2.3904,2.4006,2.5083,2.5996,2.6274,2.5745,2.5037,2.4403,2.392,2.3826,2.3746,2.3117,2.2624,2.2519,2.1605,2.052,1.947,1.8922,1.9091,1.9792,2.087,2.1673,2.2196,2.2728,2.4022,2.5277,2.6351,2.9015,3.1653,3.3316,3.6627,4.0838,4.3685,4.5876,4.6819,4.7305,4.7409,4.7402,4.7335,4.6916,4.6857,4.7251,4.6918,4.5157,4.1486,3.5675,3.348,3.5998,3.9561,4.0348,4.6533,4.8269,4.1948,4.0918,4.6781,4.6141,3.784,3.8358,4.5787,4.4954,4.4537,4.4733,4.4258,4.4113,4.3973,-0.5338,-0.5245,-0.5511,-0.5298,-0.5569,-0.5269,-0.4428,-0.2965,-0.2714,-0.1768,-0.0408,-0.0136,-0.0414,-0.0839,-0.1069,-0.0398,0.0678,-0.0273,0.0968,0.3382,0.2547,0.3392,0.6208,0.6341,0.6956,0.8007,0.8132,0.8309,0.8385,0.905,0.9264,0.9413,1.0093,1.0999,1.2081,1.2042,1.2571,1.3711,1.4063,1.5128,1.6597,1.7393,1.738,1.7189,1.8004,1.9973,2.2144,2.3469,2.4663,2.5945,2.5811,2.5615,2.5231,2.5148,2.4936,2.4083,2.3987,2.3012,2.1678,2.3355,2.3842,2.2103,2.3397,2.4654,2.4023,2.3179,2.2355,2.172,2.187,2.2407,2.3546,2.4416,2.5084,2.586,2.7764,2.8923,2.9206,3.1106,3.3857,3.4727,3.599,3.8192,4.2275,4.6003,4.7379,4.7277,4.7178,4.7115,4.669,4.5947,4.5586,4.5585,4.3252,3.8777,2.6245,1.973,1.781,2.2249,2.8603,3.0886,4.039,4.5878,3.7582,3.3501,3.6295,3.5124,2.9715,3.0766,3.6847,3.8572,3.715,3.6779,3.2922,3.8505,3.951,-0.5399,-0.5649,-0.5385,-0.5385,-0.5285,-0.5357,-0.5036,-0.4622,-0.4712,-0.4432,-0.3701,-0.2965,-0.3108,-0.4128,-0.4334,-0.4184,-0.356,-0.1881,-0.0544,0.0548,0.2381,0.3498,0.4262,0.4257,0.4468,0.4763,0.5403,0.604,0.6648,0.7884,0.8649,0.8643,0.8831,0.9459,1.0505,1.0982,1.1727,1.2774,1.3402,1.3983,1.4818,1.5844,1.7392,1.9196,1.9752,2.0736,2.2443,2.282,2.3305,2.3989,2.3957,2.4438,2.5428,2.5467,2.6721,2.8894,2.8582,2.7762,2.7525,2.5268,2.3781,2.3538,2.3702,2.4287,2.4815,2.4745,2.4268,2.4141,2.7735,2.8717,2.7307,2.9239,3.1119,3.1552,3.2882,3.3858,3.2976,2.7497,2.4603,2.5307,2.7805,3.0625,3.271,3.9772,4.5875,4.5576,4.5559,4.5458,4.4842,4.3639,4.3007,4.3578,3.5879,2.6406,1.5377,0.7627,0.8935,1.4195,2.0892,2.3464,2.0229,2.8873,2.7637,1.699,1.6753,1.5762,1.4082,1.4482,1.8635,1.9091,1.8884,1.8291,2.0189,1.7665,2.0802,-0.8105,-0.8115,-0.7473,-0.7285,-0.7335,-0.7294,-0.7013,-0.6494,-0.6465,-0.601,-0.5358,-0.543,-0.5954,-0.676,-0.6047,-0.5761,-0.5505,-0.3854,-0.2834,-0.2451,-0.0394,0.1181,0.1678,0.2195,0.269,0.3148,0.3777,0.4402,0.4914,0.6246,0.7103,0.7436,0.745,0.8219,0.9489,0.9487,1.0215,1.1812,1.2088,1.2733,1.393,1.499,1.7093,1.996,2.038,2.1225,2.3047,2.3273,2.3588,2.4362,2.4486,2.547,2.727,2.744,2.848,3.0326,2.9782,2.9264,2.9393,2.7185,2.607,2.6957,2.6349,2.623,2.7154,2.7969,2.8859,2.9791,3.3089,3.4105,3.122,3.3139,3.4923,3.4502,3.1776,2.9773,2.9787,2.0861,1.4692,1.4857,1.6969,1.8517,1.989,2.573,3.2066,3.7223,3.7504,3.6624,3.6161,3.1638,2.9106,2.7103,1.7749,0.7394,0.115,-0.3598,-0.4369,-0.0,0.7305,1.4254,0.9973,1.614,1.4799,0.2194,0.6856,0.8541,0.1127,0.3467,0.9463,1.018,0.9327,0.8794,0.7213,0.6881,0.6127,-1.1958,-1.1523,-1.04,-1.0215,-1.0209,-1.0195,-0.9368,-0.832,-0.7934,-0.6889,-0.6055,-0.7617,-0.8387,-0.8243,-0.6921,-0.6229,-0.6216,-0.5814,-0.5512,-0.54,-0.443,-0.2989,-0.1318,-0.0359,0.0955,0.2151,0.2514,0.2641,0.2881,0.4058,0.5053,0.5839,0.6006,0.6916,0.8317,0.7748,0.8394,1.0743,1.0466,1.1301,1.3239,1.4204,1.6231,1.9862,1.9998,2.1321,2.3859,2.4321,2.49,2.5996,2.6501,2.7592,2.9174,2.9782,2.9839,2.9584,2.9259,2.8868,2.8679,2.8769,2.9551,3.107,3.03,3.0014,3.0711,3.2677,3.5057,3.678,3.7927,3.7843,3.6026,3.6943,3.7021,3.4802,2.7845,2.1377,1.9326,1.0589,0.4004,0.4004,0.4253,0.4745,0.5054,0.8041,1.2797,2.2655,2.3817,2.3841,2.2837,1.5602,0.9564,0.3293,-0.5877,-1.3668,-1.4608,-2.2898,-2.0972,-1.3005,-1.0679,-0.6351,-0.0164,0.2937,0.232,-0.9107,-0.5058,-0.2584,-0.6948,-0.4053,0.4071,0.0178,0.0989,0.3899,0.3606,0.1351,-0.2659,-1.2628,-1.1982,-1.1406,-1.0792,-0.9978,-0.9816,-0.9728,-0.9524,-0.9404,-0.9134,-0.8675,-0.9014,-0.9261,-0.9261,-0.8845,-0.8695,-0.8563,-0.7553,-0.6928,-0.6809,-0.5619,-0.4901,-0.4421,-0.4179,-0.3822,-0.3342,-0.1672,-0.0597,0.0239,0.1924,0.331,0.3908,0.4644,0.5601,0.6881,0.7365,0.8248,0.9526,0.8328,0.8211,0.9208,1.0627,1.3163,1.6679,1.7438,1.932,2.2685,2.3859,2.4678,2.535,2.6276,2.721,2.7858,2.8043,2.9213,3.1704,3.1911,3.2063,3.2264,3.192,3.2447,3.4491,3.4228,3.4565,3.5998,3.932,4.0968,4.0012,4.3098,4.4209,4.1845,4.342,4.1008,3.0548,2.7052,2.1064,1.0664,-0.1793,-0.9673,-0.961,-0.933,-0.9207,-0.7557,-0.0114,0.6692,0.8961,0.9754,0.9109,0.795,0.5834,-0.4678,-1.6269,-2.4519,-2.5892,-2.5676,-2.7748,-2.6992,-2.4477,-1.6649,-1.4434,-1.7107,-1.2341,-1.4031,-2.1477,-2.2169,-2.1665,-2.4017,-2.1436,-1.9032,-1.7196,-1.6611,-1.8026,-1.747,-1.7516,-2.0512,-1.3917,-1.3368,-1.2712,-1.1605,-1.0266,-1.0314,-1.0101,-0.9751,-1.0549,-1.0932,-1.1047,-1.0909,-1.07,-1.035,-1.0678,-1.0279,-0.9348,-0.8976,-0.8452,-0.7897,-0.6755,-0.618,-0.6066,-0.561,-0.5382,-0.5268,-0.4123,-0.3091,-0.2061,-0.0465,0.0826,0.1685,0.2633,0.3733,0.5069,0.5865,0.6782,0.781,0.6808,0.7086,0.8849,1.0417,1.2998,1.6556,1.82,2.0045,2.2186,2.4098,2.5126,2.5351,2.7185,2.8594,2.9471,3.0463,3.2018,3.4294,3.4421,3.4736,3.5259,3.5392,3.6333,3.8259,3.7855,3.8793,4.2028,4.4301,4.4929,4.3618,4.5717,4.6754,4.5225,4.6838,4.2586,2.8852,2.1793,1.2769,-0.096,-1.4802,-2.3059,-2.3209,-2.3057,-2.3024,-2.3341,-1.667,-1.0568,-0.4354,-0.3817,-0.3945,-0.4355,-1.0099,-1.9132,-2.9001,-3.1764,-3.114,-2.9631,-2.9521,-2.919,-2.8604,-2.3136,-2.2836,-2.6902,-2.5685,-2.4041,-2.9189,-2.9856,-2.992,-2.9587,-2.8709,-2.7847,-2.7486,-2.7316,-2.6904,-2.6803,-2.6932,-2.705,-1.5428,-1.5013,-1.4054,-1.2682,-1.1116,-1.1337,-1.0875,-1.0077,-1.1512,-1.2464,-1.2955,-1.2628,-1.2104,-1.1463,-1.1957,-1.1155,-0.9374,-0.9966,-0.9839,-0.8891,-0.7911,-0.7583,-0.7583,-0.6399,-0.5859,-0.5855,-0.5647,-0.4994,-0.4032,-0.2908,-0.1821,-0.0691,0.0121,0.1378,0.3086,0.3745,0.465,0.5926,0.5596,0.6903,0.9899,1.1471,1.3962,1.7394,1.9646,2.1334,2.2354,2.4891,2.6213,2.6389,2.8861,3.0931,3.2288,3.4193,3.5712,3.6534,3.6662,3.7014,3.7758,3.9049,4.0398,4.1833,4.1375,4.2907,4.7387,4.7646,4.754,4.7531,4.7094,4.7107,4.7493,4.7858,4.1709,2.6396,1.4637,0.1402,-1.4343,-2.6372,-3.3115,-3.2934,-3.3969,-3.3475,-3.28,-3.2568,-2.7651,-1.9932,-1.7099,-1.6743,-1.7797,-2.6349,-3.2981,-3.3196,-3.3021,-3.22,-3.06,-3.0242,-2.9901,-2.961,-2.8864,-2.8405,-2.9762,-2.8913,-2.9018,-3.0509,-2.9274,-2.8618,-2.8646,-2.71,-2.6206,-2.6574,-2.6126,-2.5752,-2.5733,-2.6302,-2.6594,-1.6163,-1.5209,-1.4794,-1.4064,-1.2902,-1.2442,-1.2091,-1.1939,0.0,0.0,0.0,-1.2846,-1.2527,-1.2145,-1.1333,-1.0665,-1.0129,-1.0297,-1.0266,-1.0052,-0.9839,-1.0258,-1.1002,-0.9084,-0.8549,-0.9291,-0.7583,-0.6614,-0.6296,-0.5238,-0.4108,-0.2968,-0.277,-0.1652,0.0243,0.1946,0.3405,0.4485,0.4515,0.6086,0.9098,1.0458,1.3208,1.7489,1.8244,2.0383,2.4207,2.6657,2.8143,2.8587,3.1557,3.3635,3.4538,3.4988,3.613,3.8074,3.8294,3.8855,4.0129,4.2022,4.3417,4.4251,4.5622,4.6847,4.7835,4.7937,4.8025,4.8217,4.8138,4.8159,4.8221,4.8322,3.8412,1.3784,0.9062,-0.2367,-2.5653,-3.2612,-3.3886,-3.3886,-3.3915,-3.3969,-3.3969,-3.3941,-3.2713,-3.0731,-2.9087,-2.9906,-2.9985,-3.1293,-3.3094,-3.2843,-3.2808,-3.23,-3.0994,-3.0628,-2.9784,-2.8349,-2.8404,-2.8425,-2.8069,-2.8243,-2.844,-2.8201,-2.7231,-2.6646,-2.6031,-2.5418,-2.5019,-2.5399,-2.5304,-2.5189,-2.5246,-2.5178,-2.4917,-1.8357,-1.7823,-1.7634,-1.6602,0.0,-1.4634,-1.4841,-1.5381,-1.4886,-1.4597,-1.4597,-1.4585,-1.4169,-1.351,-1.351,-1.2892,-1.1637,-1.206,-1.1945,-1.1417,-1.1214,-1.154,-1.1963,-1.0266,-0.9839,-1.0159,-0.8656,-0.7589,-0.7045,-0.6399,-0.5254,-0.3567,-0.3512,-0.238,-0.0224,0.0703,0.1415,0.2055,0.4068,0.5922,0.7626,1.0422,1.3256,1.613,1.8401,0.0,0.0,0.0,0.0,0.0,0.0,0.0,0.0,0.0,0.0,3.5924,3.3752,3.3641,3.631,3.6512,3.8505,4.3226,4.4498,4.4702,4.3934,4.6798,4.7891,4.6282,4.7259,4.8102,4.838,4.8152,3.9882,2.042,1.1565,-0.0347,-1.978,-2.9275,-3.3593,-3.3644,-3.3674,-3.3729,-3.3729,-3.3538,-3.3482,-3.3563,-3.3376,-3.2949,-3.305,-3.2803,-3.2556,-3.2365,-3.2223,-3.1888,-3.1164,-3.0713,-2.9742,-2.888,-2.8393,-2.7982,-2.739,-2.7632,-2.7561,-2.7076,-2.6318,-2.5762,-2.5313,-2.4902,-2.4754,-2.483,-2.4849,-2.4734,-2.4322,-2.428,-2.4197,-2.0545,-2.043,-2.0306,-1.9033,-1.7289,-1.7506,-1.7837,-1.8297,-1.7178,-1.6678,-1.6472,-1.6485,-1.5957,-1.5082,-1.5738,-1.5001,-1.3227,-1.3855,-1.374,-1.2797,-1.2481,-1.2481,-1.2606,-1.1108,-1.0364,-1.0577,-0.9319,-0.824,-0.7374,-0.7374,-0.6183,-0.4243,-0.391,-0.2755,-0.0736,0.0,0.0,0.0,0.2842,0.5127,0.6087,1.0373,1.3375,1.479,1.9293,0.0,2.3844,2.8268,3.2342,3.5752,3.7308,0.0,0.0,0.0,0.0,0.0,0.0,0.0,0.0,0.0,0.0,0.0,3.9985,4.0118,3.9513,4.4456,4.6322,4.3116,4.5603,4.7531,4.7532,4.7363,4.1859,2.8546,1.5142,0.1648,-1.2025,-2.5452,-3.3457,-3.3457,-3.3457,-3.3457,-3.3432,-3.3188,-3.3106,-3.3351,-3.3025,-3.2886,-3.2861,-3.2556,-3.2248,-3.1888,-3.172,-3.1466,-3.1126,-3.0283,-2.9457,-2.9024,-2.8225,-2.7433,-2.6949,-2.677,-2.6585,-2.6324,-2.5658,-2.5099,-2.5161,-2.4701,-2.4355,-2.4373,-2.4484,-2.4427,-2.3684,-2.3889,-2.4081,-2.1569,-2.1125,-2.0507,-2.0046,-1.9847,-2.0886,-2.0275,-1.8587,-1.8399,-1.7891,-1.7012,-1.6999,-1.6793,-1.6357,-1.5531,-1.4897,-1.4355,-1.4262,-1.4169,-1.396,-1.3656,-1.4086,-1.4723,-1.1743,-1.0789,-1.1752,-0.974,-0.8669,-0.8562,-0.8562,-0.781,-0.6614,-0.5556,-0.4355,-0.3135,-0.4582,-0.457,-0.2892,-0.0729,0.1805,0.4534,0.9611,1.3119,1.4852,2.0047,2.3758,2.5611,3.0641,3.3795,3.4589,3.8064,4.1123,4.3365,4.3227,4.1256,0.0,3.6418,0.0,0.0,0.0,0.0,0.0,0.0,0.0,0.0,4.065,4.1594,3.8891,4.377,4.6375,4.4629,4.5285,4.0398,2.7098,1.403,0.0937,-1.2432,-2.5464,-3.3457,-3.3457,-3.3457,-3.3457,-3.3432,-3.3213,-3.3025,-3.3025,-3.2886,-3.2614,-3.2282,-3.2032,-3.1804,-3.1551,-3.149,-3.0932,-2.9936,-2.919,-2.8166,-2.6629,-2.6097,-2.572,-2.4918,-2.4724,-2.4706,-2.4609,-2.436,-2.4154,-2.4118,-2.3678,-2.3395,-2.3466,-2.3999,-2.4248,-2.4118,-2.4059,-2.3971,-2.4251,-2.365,-2.3105,-2.327,-2.3885,-2.3827,-2.2869,-2.1215,-2.064,-1.9762,-1.889,-1.8789,-1.8674,-1.8357,-1.7837,-1.7533,-1.7214,-1.7023,-1.6627,-1.6048,-1.5738,-1.5531,-1.5255,-1.2596,-1.1646,-1.2184,-0.9953,-0.9005,-0.9005,-0.9005,-0.824,-0.7045,-0.7035,-0.6995,-0.6723,-0.6353,-0.6171,-0.5863,-0.3621,-0.1078,0.2136,0.6229,1.0062,1.329,1.9062,2.3829,2.7478,3.308,3.7329,3.9752,4.126,4.3393,4.6125,4.1225,3.8168,0.0,0.0,0.0,0.0,0.0,0.0,0.0,0.0,0.0,0.0,0.0,3.5598,3.8455,4.3775,4.5262,4.0898,3.8408,3.6393,3.4475,1.3289,-0.1315,-0.2707,-2.01,-3.2347,-3.3355,-3.3457,-3.3351,-3.3269,-3.3025,-3.2968,-3.2968,-3.2556,-3.2223,-3.1972,-3.1527,-3.1126,-3.0846,-3.0697,-3.0155,-2.9521,-2.8124,-2.6723,-2.5487,-2.4565,-2.4013,-2.3666,-2.3666,-2.357,-2.3474,-2.3378,-2.3184,-2.2877,-2.2976,-2.3238,-2.3343,-2.3886,-2.4124,-2.3841,-2.4128,-2.4286,-2.7465,-2.6543,-2.5914,-2.6022,-2.6346,-2.5558,-2.4379,-2.3,-2.2209,-2.1232,-2.026,-2.026,-1.9786,-1.9039,-1.8713,-1.8721,-1.8935,-1.8687,-1.8345,-1.7891,-1.7674,-1.6755,-1.5232,-1.3416,-1.2385,-1.1866,-1.0097,-0.9149,-0.9105,-0.9461,-0.8742,-0.7194,-0.8366,-0.918,-0.9328,-0.8249,-0.8436,-1.0016,-0.7077,-0.462,-0.2537,0.4039,0.9171,1.2482,2.0354,2.6358,3.019,3.6261,4.0848,4.359,4.3748,4.445,4.5938,3.777,0.0,0.0,0.0,0.0,0.0,0.0,0.0,0.0,0.0,2.6368,1.6729,0.0,3.0011,0.0,4.1096,4.2726,3.9299,3.3671,0.0,0.0,1.2033,-0.3553,0.2969,-1.646,-3.0904,-3.2305,-3.3021,-3.3376,-3.3025,-3.2886,-3.2828,-3.2638,-3.214,-3.178,-3.1527,-3.1017,-3.0502,-3.0045,-2.9719,-2.9455,-2.8925,-2.722,-2.5542,-2.4357,-2.3342,-2.2603,-2.2797,-2.2894,-2.2797,-2.2603,-2.2585,-2.2391,-2.2081,-2.2501,-2.3014,-2.3126,-2.365,-2.3982,-2.3711,-2.413,-2.4398,-3.0766,-2.9507,-2.8132,-2.6752,-2.5371,-2.5108,-2.3872,-2.2081,-2.2,-2.1296,-2.0244,-2.026,-1.9021,-1.692,-1.5516,0.0,-1.7651,-1.7403,-1.7853,-1.8875,-1.8875,-1.7634,-1.5357,-1.4312,-1.2653,-1.0463,-0.9746,-0.9244,-0.887,-1.0374,-0.9833,-0.7482,-0.9365,-1.0043,-0.9578,-1.058,-1.2758,-1.6057,-1.1605,-0.9861,-1.0914,0.5003,1.3565,1.3519,2.6788,3.4,3.4157,4.0657,4.3655,4.2297,4.3847,4.3118,3.9558,0.0,0.0,0.0,0.0,0.0,0.0,0.0,0.0,0.0,0.0,0.0,0.0,0.0,0.0,0.0,3.2715,0.0,4.2308,3.4788,0.0,0.0,0.0,-0.4781,-0.2453,-1.8389,-2.9516,-2.9665,0.0,0.0,-3.3106,-3.2968,-3.2638,-3.2032,-3.1948,-3.1527,-3.0565,-3.0392,-3.0023,-2.9235,-2.908,-2.8814,-2.8188,-2.6468,-2.466,-2.2842,-2.2098,-2.2017,-2.2,-2.2115,-2.2017,-2.2017,-2.2017,-2.1919,-2.1969,-2.2131,-2.2309,-2.2403,-2.2971,-2.368,-2.4151,-2.4098,-2.3919,-3.0284,-2.8577,-2.8054,-2.6908,-2.5607,-2.5383,-2.459,-2.3525,-2.3368,-2.2318,-2.0762,-1.9814,-1.8274,-1.6247,-1.4563,0.0,0.0,0.0,-1.8151,-1.7659,-1.8128,-1.6912,-1.4448,-1.3301,-1.2376,-1.154,-1.0771,-1.0569,-1.1018,-1.1713,-0.9626,-0.5348,0.0,0.0,-0.828,-1.1525,-1.4257,-1.5941,-1.2924,-0.911,-0.4869,0.4857,1.3578,2.0761,2.8971,3.4458,3.6837,4.1974,4.3271,4.0018,4.0233,3.7977,0.0,0.0,0.0,0.0,0.0,0.0,0.0,0.0,0.0,0.0,0.0,1.1926,0.658,0.0,0.0,0.0,2.0795,2.5039,3.2929,2.8776,0.0,0.0,0.0,0.0,0.0,0.0,0.0,-2.7167,-2.9021,-3.0288,-3.1049,-3.1642,-3.1972,-3.1864,-3.1443,-3.0932,-3.0392,0.0,-2.9014,-2.8657,-2.8231,-2.7848,-2.7485,-2.5518,-2.3782,-2.3122,-2.1967,-2.1131,-2.1427,-2.1526,-2.1526,-2.1526,-2.1526,-2.1444,-2.1064,-2.1623,-2.2168,-2.233,-2.3065,-2.3942,-2.4409,-2.4054,-2.3679,-2.8431,0.0,0.0,0.0,0.0,-2.3621,-2.3533,-2.3216,-2.3024,-2.2,-2.0302,-1.8716,0.0,0.0,0.0,0.0,0.0,0.0,-1.7116,-1.6387,-1.7668,-1.676,-1.4262,-1.3406,-1.2787,-1.2289,-1.1767,-1.138,-1.1242,-1.1264,-0.871,-0.4042,0.0,0.0,0.0,0.0,-1.5153,-1.6342,-1.6446,-1.3899,-0.8647,-0.0261,0.9478,2.0737,2.6926,3.3452,4.0278,3.6909,3.6029,3.8346,3.5194,0.0,0.0,0.0,0.0,0.0,0.0,0.0,0.0,0.0,0.0,0.0,0.0,0.0,0.0,0.0,0.0,0.0,0.0,0.0,2.3884,2.286,2.2891,0.0,0.0,0.0,0.0,0.0,0.0,0.0,0.0,0.0,-2.7936,-2.9427,-3.0664,0.0,0.0,-3.0329,-2.9958,-2.9191,-2.8299,-2.7555,-2.6803,0.0,-2.5931,-2.3979,-2.257,-2.2845,-2.1541,-2.0474,-2.0565,-2.079,-2.087,-2.0631,-2.0806,-2.0933,-2.085,-2.1204,-2.1403,-2.1989,-2.2563,-2.3207,-2.3726,-2.3644,-2.3335,0.0,0.0,0.0,0.0,0.0,0.0,0.0,0.0,-2.0121,-1.9469,0.0,-1.6648,0.0,0.0,0.0,0.0,0.0,-1.2382,0.0,0.0,-1.7675,-1.7695,-1.5401,-1.5366,-1.4393,-1.2137,-1.2531,-1.132,-0.859,-0.8331,0.0,0.0,0.0,0.0,0.0,0.0,-1.5849,-1.8008,-2.349,-2.7259,-2.7917,-1.1889,0.0925,0.9421,1.9786,3.1433,4.3632,2.3904,2.0224,3.7561,2.8893,0.0,0.0,0.0,0.0,0.0,0.0,0.0,0.0,0.0,0.0,0.0,0.0,0.0,0.0,0.0,0.0,0.0,0.0,0.0,0.0,1.8412,0.0,0.0,0.0,0.0,0.0,0.0,0.0,0.0,0.0,0.0,-2.3224,-2.6065,-2.8629,-2.9995,0.0,0.0,0.0,0.0,-2.8055,-2.5767,-2.4789,-2.3997,-2.2772,-2.1603,-2.0956,-2.0897,0.0,0.0,-1.9426,-1.9889,-2.0219,-1.9457,-2.0002,-2.0735,-2.1607,-2.0282,-1.9746,-2.0861,-2.0768,-2.1026,-2.2082,-2.2457,-2.285,0.0,0.0,0.0,0.0,0.0,0.0,0.0,0.0,0.0,-1.4625,0.0,-1.1812,0.0,0.0,0.0,0.0,0.0,0.0,0.0,0.0,-1.418,-1.3729,-1.2413,-1.1709,-1.0327,0.0,-0.8455,-0.771,0.0,0.0,0.0,0.0,0.0,0.0,0.0,0.0,-1.7638,-1.5848,-2.5684,-2.8823,-2.4059,-1.3452,-0.386,0.4274,0.9843,1.6244,2.3747,1.6741,1.8328,0.0,0.0,0.0,0.0,0.0,0.0,0.0,0.0,0.0,0.0,0.0,0.0,0.0,0.0,0.0,0.0,0.0,0.0,0.0,0.0,0.0,0.0,0.0,2.2951,0.0,0.0,0.0,0.0,0.0,0.0,0.0,0.0,0.0,-1.54,-2.161,-2.6815,-2.8037,-2.831,-2.8055,-2.7199,0.0,0.0,0.0,0.0,0.0,0.0,0.0,-1.9512,-2.0545,-1.8857,-1.7619,-1.8364,-1.9116,-1.9676,-1.9696,0.0,0.0,-1.7588,-1.6908,-1.6909,-1.761,-1.8161,-1.8747,-1.9779,-1.9613,-1.9321,0.0,0.0,0.0,0.0,0.0,0.0,0.0,0.0,0.0,-1.1198,-1.0045,0.0,0.0,0.0,0.0,0.0,0.0,0.0,0.0,0.0,0.0,0.0,-0.9944,-0.9131,0.0,0.0,0.0,0.0,0.0,0.0,0.0,0.0,0.0,0.0,0.0,0.0,-1.3099,-1.345,-2.3568,-2.8523,-2.7415,-1.8511,-1.0667,-0.4395,0.2289,0.6829,0.8845,0.0,0.0,0.0,0.0,0.0,0.0,0.0,0.0,0.0,0.0,0.0,0.0,0.0,0.0,0.0,0.0,0.0,0.0,0.0,0.0,0.0,0.0,0.0,0.0,0.0,2.367,0.0,0.0,0.0,0.0,0.0,0.0,0.0,0.0,0.0,0.0,0.0,-2.0984,-2.2571,-2.5086,-2.6548,-2.5967,-2.5375,-2.4528,0.0,0.0,0.0,0.0,0.0,0.0,0.0,0.0,0.0,0.0,0.0,0.0,0.0,0.0,-1.7977,-1.5738,-1.5126,-1.456,-1.3384,0.0,0.0,0.0,0.0,0.0,0.0,0.0,0.0,0.0,0.0,0.0,0.0,0.0,0.0,0.0,-0.8041,0.0,0.0,-0.3644,0.0,0.0,0.0,0.0,0.0,0.0,0.0,0.0,0.0,0.0,0.0,0.0,0.0,0.0,0.0,0.0,0.0,0.0,0.0,0.0,0.0,0.0,-0.257,-1.1416,-1.7842,-2.7051,-3.926,-2.7737,-1.9949,-1.709,-0.3197,0.3502,0.1368,0.0,0.0,0.0,0.0,0.0,0.0,0.0,0.0,0.0,0.0,0.0,0.0,0.0,0.0,0.0,0.0,0.0,0.0,0.0,0.0,0.0,0.0,0.0,0.0,0.0,0.0,2.0434,2.11,2.0649,0.0,0.0,0.0,0.0,0.0,0.0,0.0,0.0,0.0,0.0,-2.0378,-2.5183,-2.5425,-2.5355,-2.432,-2.2196,-2.1079,-2.0056,-1.9064,-1.8528,-1.8005,0.0,0.0,0.0,0.0,0.0,0.0,0.0,0.0,0.0,0.0,0.0,0.0,0.0,0.0,0.0,0.0,0.0,0.0,0.0,0.0,0.0,0.0,0.0,0.0,0.0,0.0,0.0,0.0,0.0,0.0,0.0,0.0,0.0,0.0,0.0,0.0,0.0,0.0,0.0,0.0,0.0,0.0,0.0,0.0,0.0,0.0,0.0,0.0,0.0,0.0,0.0,0.0,0.0,0.0,-0.5822,-1.7657,-1.9765,-2.7974,-4.2609,-3.5762,-3.16,-3.0706,-2.4715,-1.9038,0.0,0.0,0.0,0.0,0.0,0.0,0.0,0.0,0.0,0.0,0.0,0.0,0.0,0.0,0.0,0.0,0.0,0.0,0.0,0.0,0.0,0.0,0.0,0.0,0.0,0.0,0.0,0.0,2.2148,2.2221,2.2403,0.0,0.0,0.0,0.0,0.0,0.0,0.0,0.0,0.0,0.0,-2.2899,-2.2601,-2.2339,-2.1873,-2.0771,-1.9056,-1.8002,-1.8162,-1.661,-1.534,-1.5485,0.0,0.0,0.0,0.0,0.0,0.0,0.0,0.0,0.0,0.0,0.0,0.0,0.0,0.0,0.0,0.0,0.0,0.0,0.0,0.0,0.0,0.0,0.0,0.0,0.0,0.0,0.0,0.0,0.0,0.0,0.0,0.0,0.0,0.0,0.0,0.0,0.0,0.0,0.0,0.0,0.0,0.0,0.0,0.0,0.0,0.0,0.0,0.0,0.0,0.0,0.0,0.0,0.0,-0.6541,-1.9982,-1.9889,-2.6811,-4.0691,-3.8414,-3.6399,-3.5482,-3.3879,-2.6991,0.0,0.0,0.0,0.0,0.0,0.0,0.0,0.0,0.0,0.0,0.0,0.0,0.0,0.0,0.0,0.0,0.0,0.0,0.0,0.0,0.0,0.0,0.0,0.0,0.0,0.0,0.0,0.0,1.9837,2.1466,2.2789,0.0,0.0,0.0,0.0,0.0,0.0,0.0,0.0,0.0,0.0,-1.7845,-1.9875,-2.0066,0.0,0.0,-1.7797,-1.6721,-1.7404,-1.5772,-1.4469,-1.4456,-1.4295,0.0,0.0,0.0,0.0,0.0,0.0,0.0,0.0,0.0,0.0,0.0,0.0,0.0,0.0,0.0,0.0,0.0,0.0,0.0,0.0,0.0,0.0,0.0,0.0,0.0,0.0,0.0,0.0,0.0,0.0,0.0,0.0,0.0,0.0,0.0,0.0,0.0,0.0,0.0,0.0,0.0,0.0,0.0,0.0,0.0,0.0,0.0,0.0,0.0,0.0,0.0,0.0,0.0,-1.877,-1.7634,-2.3306,-3.6764,-3.6956,-3.5738,-3.3546,-3.3487,-2.3945,0.0,0.0,0.0,0.0,0.0,0.0,0.0,0.0,0.0,0.0,0.0,0.0,0.0,0.0,0.0,0.0,0.0,0.0,0.0,0.0,0.0,0.0,0.0,0.0,0.0,0.0,0.0,0.0,0.0,0.0,0.0,0.0,0.0,0.0,0.0,0.0,0.0,0.0,0.0,0.0,0.0,-1.0287,-1.665,-1.7483,-1.7635,0.0,-1.68,-1.6028,-1.6526,-1.5835,-1.4838,-1.3776,0.0,0.0,0.0,0.0,0.0,0.0,0.0,0.0,0.0,0.0,0.0,0.0,0.0,0.0,0.0,0.0,0.0,0.0,0.0,0.0,0.0,0.0,0.0,0.0,0.0,0.0,0.0,0.0,0.0,0.0,0.0,0.0,0.0,0.0,0.0,0.0,0.0,0.0,0.0,0.0,0.0,0.0,0.0,0.0,0.0,0.0,0.0,0.0,0.0,0.0,0.0,0.0,0.0,0.0,-1.6889,-0.7781,-1.3979,-3.6546,-3.5774,-3.447,-3.3863,-3.3889,0.0,0.0,0.0,0.0,0.0,0.0,0.0,0.0,0.0,0.0,0.0,0.0,0.0,0.0,0.0,0.0,0.0,0.0,0.0,0.0,0.0,0.0,0.0,0.0,0.0,0.0,0.0,0.6606,0.0,0.0,0.0,0.0,0.0,0.0,0.0,0.0,0.0,0.0,0.0,0.0,0.0,0.0,0.1002,-0.6246,-0.6185,-0.8324,0.0,0.0,-1.464,-1.5709,-1.4816,-1.3889,0.0,0.0,0.0,0.0,0.0,0.0,0.0,0.0,0.0,0.0,0.0,0.0,0.0,0.0,0.0,0.0,0.0,0.0,0.0,0.0,0.0,0.0,0.0,0.0,0.0,0.0,0.0,0.0,0.0,0.0,0.0,0.0,0.0,0.0,0.0,0.0,0.0,0.0,0.0,0.0,0.0,0.0,0.0,0.0,0.0,0.0,0.0,0.0,0.0,0.0,0.0,0.0,0.0,0.0,0.5534,-0.7642,-0.3234,-0.7346,-2.0988,-2.0231,-1.9082,-1.8278,-1.8203,-1.2203,0.0,0.0,0.0,0.0,0.0,0.0,0.0,0.0,0.0,0.0,0.0,0.0,0.0,0.0,0.0,0.0,0.0,0.0,0.0,0.0,0.0,0.0,0.0,0.0,0.0,0.0,0.0,0.0,0.0,0.0,0.0,0.0,0.0,0.0,0.0,0.0,0.0,0.0,0.0,0.0,0.0,0.0,0.512,0.4489,0.0,0.0,0.0,-0.1927,-0.2835,0.0,0.0,0.0,0.0,0.0,0.0,0.0,0.0,0.0,0.0,0.0,0.0,0.0,0.0,0.0,0.0,0.0,0.0,0.0,0.0,0.0,0.0,0.0,0.0,0.0,0.0,0.0,0.0,0.0,0.0,0.0,0.0,0.0,0.0,0.0,0.0,0.0,0.0,0.0,0.0,0.0,0.0,0.0,0.0,0.0,0.0,0.0,0.0,0.0,0.0,0.0,0.0,0.0,0.0,0.0,0.0,0.0,0.3841,0.0488,-0.1104,-0.0554,-0.0079,0.0985,0.2264,0.2816,0.6262,0.0,0.0,0.0,0.0,0.0,0.0,0.0,0.0,0.0,0.0,0.0,0.0,0.0,0.0,0.0,0.0,0.0,0.0,0.0,0.0,0.0,0.0,0.0,0.0,0.0,0.0,0.0,0.0,0.0,0.0,0.0,0.0,0.0,0.0,0.0,0.0,0.0,0.0,0.0,0.0,0.0,2.3869,1.6494,1.4813,1.3267,0.0,0.0,1.3654,1.3525,1.3641,0.0,0.0,0.0,0.0,0.0,0.0,0.0,0.0,0.0,0.0,0.0,0.0,0.0,0.0,0.0,0.0,0.0,0.0,0.0,0.0,0.0,0.0,0.0,0.0,0.0,0.0,0.0,0.0,0.0,0.0,0.0,0.0,0.0,0.0,0.0,0.0,0.0,0.0,0.0,0.0,0.0,0.0,0.0,0.0,0.0,0.0,0.0,0.0,0.0,0.0,0.0,0.0,0.0,0.0,0.0,0.0,1.159,1.5089,1.1417,0.0079,0.2538,0.3632,0.2392,0.3979,0.7143,0.0,0.0,0.0,0.0,0.0,0.0,0.0,0.0,0.0,0.0,0.0,0.0,0.0,0.0,0.0,0.0,0.0,0.0,0.0,0.0,0.0,0.0,0.0,0.0,0.0,0.0,0.0,0.0,0.0,0.0,0.0,0.0,0.0,0.0,0.0,0.0,0.0,0.0,0.0,0.0,0.0,3.2497,2.5172,2.4701,0.0,0.0,0.0,0.0,1.2095,1.0828,0.0,0.0,0.0,0.0,0.0,0.0,0.0,0.0,0.0,0.0,0.0,0.0,0.0,0.0,0.0,0.0,0.0,0.0,0.0,0.0,0.0,0.0,0.0,0.0,0.0,0.0,0.0,0.0,0.0,0.0,0.0,0.0,0.0,0.0,0.0,0.0,0.0,0.0,0.0,0.0,0.0,0.0,0.0,0.0,0.0,0.0,0.0,0.0,0.0,0.0,0.0,0.0,0.0,0.0,0.0,0.0,2.4248,2.6676,2.4967,1.8751,2.0551,2.1756,2.1919,2.3044,2.3037,0.0,0.0,0.0,0.0,0.0,0.0,0.0,0.0,0.0,0.0,0.0,0.0,0.0,0.0,0.0,0.0,0.0,0.0,0.0,0.0,0.0,0.0,0.0,0.0,0.0,0.0,0.0,0.0,0.0,0.0,0.0,0.0,0.0,0.0,0.0,0.0,0.0,0.0,0.0,0.0,3.9928,3.7735,3.4229,0.0,0.0,0.0,0.0,0.0,0.0,2.3847,2.2642,0.0,0.0,0.0,0.0,0.0,0.0,0.0,0.0,0.0,0.0,0.0,0.0,0.0,0.0,0.0,0.0,0.0,0.0,0.0,0.0,0.0,0.0,0.0,0.0,0.0,0.0,0.0,0.0,0.0,0.0,0.0,0.0,0.0,0.0,0.0,0.0,0.0,0.0,0.0,0.0,0.0,0.0,0.0,0.0,0.0,0.0,0.0,0.0,0.0,0.0,0.0,0.0,0.0,0.0,0.0,3.5516,3.5778,3.7,3.9253,4.0174,4.1467,4.312,4.377,4.0419,3.3237,0.0,0.0,0.0,0.0,0.0,0.0,0.0,0.0,0.0,0.0,0.0,0.0,0.0,0.0,0.0,0.0,0.0,0.0,0.0,0.0,0.0,0.0,0.0,0.0,0.0,0.0,0.0,0.0,0.0,0.0,0.0,0.0,0.0,0.0,0.0,0.0,0.0,0.0,0.0,3.9843,3.9914,0.0,0.0,0.0,0.0,0.0,0.0,0.0,0.0,3.7256,0.0,0.0,0.0,0.0,0.0,0.0,0.0,0.0,0.0,0.0,0.0,0.0,0.0,0.0,0.0,0.0,0.0,0.0,0.0,0.0,0.0,0.0,0.0,0.0,0.0,0.0,0.0,0.0,0.0,0.0,0.0,0.0,0.0,0.0,0.0,0.0,0.0,0.0,0.0,0.0,0.0,0.0,0.0,0.0,0.0,0.0,0.0,0.0,0.0,0.0,0.0,0.0,0.0,0.0,0.0,0.0,4.0714,4.2745,4.1224,4.4506,4.5619,4.4161,4.5951,4.2873,3.4383,0.0,0.0,0.0,0.0,0.0,0.0,0.0,0.0,0.0,0.0,0.0,0.0,0.0,0.0,0.0,0.0,0.0,0.0,0.0,0.0,0.0,0.0,0.0,0.0,0.0,0.0,0.0,0.0,0.0,0.0,0.0,0.0,0.0,0.0,0.0,0.0,0.0,0.0,3.3021,3.5342,0.0,0.0,0.0,0.0,0.0,0.0,0.0,0.0,3.5996,0.0,0.0,0.0,0.0,0.0,0.0,0.0,0.0,0.0,0.0,0.0,0.0,0.0,0.0,0.0,0.0,0.0,0.0,0.0,0.0,0.0,0.0,0.0,0.0,0.0,0.0,0.0,0.0,0.0,0.0,0.0,0.0,0.0,0.0,0.0,0.0,0.0,0.0,0.0,0.0,0.0,0.0,0.0,0.0,0.0,0.0,0.0,0.0,0.0,0.0,0.0,0.0,0.0,0.0,0.0,0.0,0.0,0.0,4.3041,4.313,4.5885,4.7038,4.6296,4.6106,4.2808,0.0,0.0,0.0,0.0,0.0,0.0,0.0,0.0,0.0,0.0,0.0,0.0,0.0,0.0,0.0,0.0,0.0,0.0,0.0,0.0,0.0,0.0,0.0,0.0,0.0,0.0,0.0,0.0,0.0,0.0,0.0,0.0,0.0,0.0,0.0,0.0,0.0,0.0,0.0,0.0,0.0,0.0,0.0,0.0,0.0,0.0,0.0,0.0,0.0,0.0,0.0,0.0,0.0,0.0,0.0,0.0,0.0,0.0,0.0,0.0,0.0,0.0,0.0,0.0,0.0,0.0,0.0,0.0,0.0,0.0,0.0,0.0,0.0,0.0,0.0,0.0,0.0,0.0,0.0,0.0,0.0,0.0,0.0,0.0,0.0,0.0,0.0,0.0,0.0,0.0,0.0,0.0,0.0,0.0,0.0,0.0,0.0,0.0,0.0,0.0,0.0,0.0,0.0,0.0,0.0,0.0,0.0,0.0,4.2444,4.4931,4.6106,4.699,4.7711,4.5417,4.1695,0.0,0.0,0.0,0.0,0.0,0.0,0.0,0.0,0.0,0.0,0.0,0.0,0.0,0.0,0.0,0.0,0.0,0.0,0.0,0.0,0.0,0.0,0.0,0.0,0.0,0.0,0.0,0.0,0.0,0.0,0.0,0.0,0.0,0.0,0.0,0.0,0.0,0.0,0.0,0.0,0.0,0.0,0.0,0.0,0.0,0.0,0.0,0.0,3.6393,0.0,0.0,0.0,0.0,0.0,0.0,0.0,0.0,0.0,0.0,0.0,0.0,0.0,0.0,0.0,0.0,0.0,0.0,0.0,0.0,0.0,0.0,0.0,0.0,0.0,0.0,0.0,0.0,0.0,0.0,0.0,0.0,0.0,0.0,0.0,0.0,0.0,0.0,0.0,0.0,0.0,0.0,0.0,0.0,0.0,0.0,0.0,0.0,0.0,0.0,0.0,0.0,0.0,0.0,0.0,0.0,0.0,0.0,0.0,4.3546,4.6524,4.5433,4.5414,4.6667,4.3972,4.0048,0.0,0.0,0.0,0.0,0.0,0.0,0.0,0.0,0.0,0.0,0.0,0.0,0.0,0.0,0.0,0.0,0.0,0.0,0.0,0.0,0.0,0.0,0.0,0.0,0.0,0.0,0.0,0.0,0.0,0.0,0.0,0.0,0.0,0.0,0.0,0.0,0.0,0.0,0.0,0.0,0.0,0.0,0.0,0.0,0.0,0.0,0.0,0.0,0.0,0.0,0.0,0.0,0.0,0.0,0.0,0.0,0.0,0.0,0.0,0.0,0.0,0.0,0.0,0.0,0.0,0.0,0.0,0.0,0.0,0.0,0.0,0.0,0.0,0.0,0.0,0.0,0.0,0.0,0.0,0.0,0.0,0.0,0.0,0.0,0.0,0.0,0.0,0.0,0.0,0.0,0.0,0.0,0.0,0.0,0.0,0.0,0.0,0.0,0.0,0.0,0.0,0.0,0.0,0.0,0.0,0.0,0.0,0.0,4.0888,4.4071,4.4417,4.4837,4.5506,4.1505,3.744,0.0,0.0,0.0,0.0,0.0,0.0,0.0,0.0,0.0,0.0,0.0,0.0,0.0,0.0,0.0,0.0,0.0,0.0,0.0,0.0,0.0,0.0,0.0,0.0,0.0,0.0,0.0,0.0,0.0,0.0,0.0,0.0,0.0,0.0,0.0,0.0,0.0,0.0,0.0,0.0,0.0,0.0,0.0,0.0,0.0,0.0,0.0,0.0,0.0,0.0,0.0,0.0,0.0,0.0,0.0,0.0,0.0,0.0,0.0,0.0,0.0,0.0,0.0,0.0,0.0,0.0,0.0,0.0,0.0,0.0,0.0,0.0,0.0,0.0,0.0,0.0,0.0,0.0,0.0,0.0,0.0,0.0,0.0,0.0,0.0,0.0,0.0,0.0,0.0,0.0,0.0,0.0,0.0,0.0,0.0,0.0,0.0,0.0,0.0,0.0,0.0,0.0,0.0,0.0,0.0,0.0,0.0,0.0,0.0,4.1993,4.2832,4.2989,4.2572,3.8307,3.4574,0.0,0.0,0.0,0.0,0.0,0.0,0.0,0.0,0.0,0.0,0.0,0.0,0.0,0.0,0.0,0.0,0.0,0.0,0.0,0.0,0.0,0.0,0.0,0.0,0.0,0.0,0.0,0.0,0.0,0.0,0.0,0.0,0.0,0.0,0.0,0.0,0.0,0.0,0.0,0.0,0.0,0.0,0.0,0.0,0.0,0.0,0.0,0.0,0.0,0.0,0.0,0.0,0.0,0.0,0.0,0.0,0.0,0.0,0.0,0.0,0.0,0.0,0.0,0.0,0.0,0.0,0.0,0.0,0.0,0.0,0.0,0.0,0.0,0.0,0.0,0.0,0.0,0.0,0.0,0.0,0.0,0.0,0.0,0.0,0.0,0.0,0.0,0.0,0.0,0.0,0.0,0.0,0.0,0.0,0.0,0.0,0.0,0.0,0.0,0.0,0.0,0.0,0.0,0.0,0.0,0.0,0.0,0.0,0.0,4.2106,4.047,3.8832,3.7431,3.4149,3.1581,0.0,0.0,0.0,0.0,0.0,0.0,0.0,0.0,0.0,0.0,0.0,0.0,0.0,0.0,0.0,0.0,0.0,0.0,0.0,0.0,0.0,0.0,0.0,0.0,0.0,0.0,0.0,0.0,0.0,0.0,0.0,0.0,0.0,0.0,0.0,0.0,0.0,0.0,0.0,0.0,0.0,0.0,0.0,0.0,0.0,0.0,0.0,0.0,0.0,0.0,0.0,0.0,0.0,0.0,0.0,0.0,0.0,0.0,0.0,0.0,0.0,0.0,0.0,0.0,0.0,0.0,0.0,0.0,0.0,0.0,0.0,0.0,0.0,0.0,0.0,0.0,0.0,0.0,0.0,0.0,0.0,0.0,0.0,0.0,0.0,0.0,0.0,0.0,0.0,0.0,0.0,0.0,0.0,0.0,0.0,0.0,0.0,0.0,0.0,0.0,0.0,0.0,0.0,0.0,0.0,0.0,0.0,0.0,0.0,3.4336,3.4562,3.5421,3.7061,3.1831,2.9194,2.9427,0.0,0.0,0.0,0.0,0.0,0.0,0.0,0.0,0.0,0.0,0.0,0.0,0.0,0.0,0.0,0.0,0.0,0.0,0.0,0.0,0.0,0.0,0.0,0.0,0.0,0.0,0.0,0.0,0.0,0.0,0.0,0.0,0.0,0.0,0.0,0.0,0.0,0.0,0.0,0.0,0.0,0.0,0.0,0.0,0.0,0.0,0.0,0.0,0.0,0.0,0.0,0.0,0.0,0.0,0.0,0.0,0.0,0.0,0.0,0.0,0.0,0.0,0.0,0.0,0.0,0.0,0.0,0.0,0.0,0.0,0.0,0.0,0.0,0.0,0.0,0.0,0.0,0.0,0.0,0.0,0.0,0.0,0.0,0.0,0.0,0.0,0.0,0.0,0.0,0.0,0.0,0.0,0.0,0.0,0.0,0.0,0.0,0.0,0.0,0.0,0.0,0.0,0.0,0.0,0.0,0.0,0.0,0.0,3.0319,3.1792,3.3448,3.5174,3.1,2.8246,0.0,0.0,0.0,0.0,0.0,0.0,0.0,0.0,0.0,0.0,0.0,0.0,0.0,0.0,0.0,0.0,0.0,0.0,0.0,0.0,0.0,0.0,0.0,0.0,0.0,0.0,0.0,0.0,0.0,0.0,0.0,0.0,0.0,0.0,0.0,0.0,0.0,0.0,0.0,0.0,0.0,0.0,0.0,0.0,0.0,0.0,0.0,0.0,0.0,0.0,0.0,0.0,0.0,0.0,0.0,0.0,0.0,0.0,0.0,0.0,0.0,0.0,0.0,0.0,0.0,0.0,0.0,0.0,0.0,0.0,0.0,0.0,0.0,0.0,0.0,0.0,0.0,0.0,0.0,0.0,0.0,0.0,0.0,0.0,0.0,0.0,0.0,0.0,0.0,0.0,0.0,0.0,0.0,0.0,0.0,0.0,0.0,0.0,0.0,0.0,0.0,0.0,0.0,0.0,0.0,0.0,0.0,0.0,2.6685,3.1428,3.3018,3.3269,3.1855,3.1725,2.8816,0.0,0.0,0.0,0.0,0.0,0.0,0.0,0.0,0.0,0.0,0.0,0.0,0.0,0.0,0.0,0.0,0.0,0.0,0.0,0.0,0.0,0.0,0.0,0.0,0.0,0.0,0.0,0.0,0.0,0.0,0.0,0.0,0.0,0.0,0.0,0.0,0.0,0.0,0.0,0.0,0.0,0.0,0.0,0.0,0.0,0.0,0.0,0.0,0.0,0.0,0.0,0.0,0.0,0.0,0.0,0.0,0.0,0.0,0.0,0.0,0.0,0.0,0.0,0.0,0.0,0.0,0.0,0.0,0.0,0.0,0.0,0.0,0.0,0.0,0.0,0.0,0.0,0.0,0.0,0.0,0.0,0.0,0.0,0.0,0.0,0.0,0.0,0.0,0.0,0.0,0.0,0.0,0.0,0.0,0.0,0.0,0.0,0.0,0.0,0.0,0.0,0.0,0.0,0.0,0.0,0.0,0.0,0.0,0.0,2.9648,0.0,3.2553,0.0,3.146,2.8659,0.0,0.0,0.0,0.0,0.0,0.0,0.0,0.0,0.0,0.0,0.0,0.0,0.0,0.0,0.0,0.0,0.0,0.0,0.0,0.0,0.0,0.0,0.0,0.0,0.0,0.0,0.0,0.0,0.0,0.0,0.0,0.0,0.0,0.0,0.0,0.0,0.0,0.0,0.0,0.0,0.0,0.0,0.0,0.0,0.0,0.0,0.0,0.0,0.0,0.0,0.0,0.0,0.0,0.0,0.0,0.0,0.0,0.0,0.0,0.0,0.0,0.0,0.0,0.0,0.0,0.0,0.0,0.0,0.0,0.0,0.0,0.0,0.0,0.0,0.0,0.0,0.0,0.0,0.0,0.0,0.0,0.0,0.0,0.0,0.0,0.0,0.0,0.0,0.0,0.0,0.0,0.0,0.0,0.0,0.0,0.0,0.0,0.0,0.0,0.0,0.0,0.0,0.0,0.0,0.0,0.0,0.0,0.0,0.0,3.0471,3.119,3.3117,3.5976,3.259,2.9787,0.0,0.0,0.0,0.0,0.0,0.0,0.0,0.0,0.0,0.0,0.0,0.0,0.0,0.0,0.0,0.0,0.0,0.0,0.0,0.0,0.0,0.0,0.0,0.0,0.0,0.0,0.0,0.0,0.0,0.0,0.0,0.0,0.0,0.0,0.0,0.0,0.0,0.0,0.0,0.0,0.0,0.0,0.0,0.0,0.0,0.0,0.0,0.0,0.0,0.0,0.0,0.0,0.0,0.0,0.0,0.0,0.0,0.0,0.0,0.0,0.0,0.0,0.0,0.0,0.0,0.0,0.0,0.0,0.0,0.0,0.0,0.0,0.0,0.0,0.0,0.0,0.0,0.0,0.0,0.0,0.0,0.0,0.0,0.0,0.0,0.0,0.0,0.0,0.0,0.0,0.0,0.0,0.0,0.0,0.0,0.0,0.0,0.0,0.0,0.0,0.0,0.0,0.0,0.0,0.0,0.0,0.0,0.0,0.0,0.0,3.5254,3.474,3.1904,3.4829,3.213,0.0,0.0,0.0,0.0,0.0,0.0,0.0,0.0,0.0,0.0,0.0,0.0,0.0,0.0,0.0,0.0,0.0,0.0,0.0,0.0,0.0,0.0,0.0,0.0,0.0,0.0,0.0,0.0,0.0,0.0,0.0,0.0,0.0,0.0,0.0,0.0,0.0,0.0,0.0,0.0,0.0,0.0,0.0,0.0,0.0,0.0,0.0,0.0,0.0,0.0,0.0,0.0,0.0,0.0,0.0,0.0,0.0,0.0,0.0,0.0,0.0,0.0,0.0,0.0,0.0,0.0,0.0,0.0,0.0,0.0,0.0,0.0,0.0,0.0,0.0,0.0,0.0,0.0,0.0,0.0,0.0,0.0,0.0,0.0,0.0,0.0,0.0,0.0,0.0,0.0,0.0,0.0,0.0,0.0,0.0,0.0,0.0,0.0,0.0,0.0,0.0,0.0,0.0,0.0,0.0,0.0,0.0,0.0,0.0,0.0,3.6779,0.0,3.4677,3.4585,3.2231,2.726,0.0,0.0,0.0,0.0,0.0,0.0,0.0,0.0,0.0,0.0,0.0,0.0,0.0,0.0,0.0,0.0,0.0,0.0,0.0,0.0,0.0,0.0,0.0,0.0,0.0,0.0,0.0,0.0,0.0,0.0,0.0,0.0,0.0,0.0,0.0,0.0,0.0,0.0,0.0,0.0,0.0,0.0,0.0,0.0,0.0,0.0,0.0,0.0,0.0,0.0,0.0,0.0,0.0,0.0,0.0,0.0,0.0,0.0,0.0,0.0,0.0,0.0,0.0,0.0,0.0,0.0,0.0,0.0,0.0,0.0,0.0,0.0,0.0,0.0,0.0,0.0,0.0,0.0,0.0,0.0,0.0,0.0,0.0,0.0,0.0,0.0,0.0,0.0,0.0,0.0,0.0,0.0,0.0,0.0,0.0,0.0,0.0,0.0,0.0,0.0,0.0,0.0,0.0,0.0,0.0,0.0,0.0,0.0,0.0,0.0,0.0,3.4796,3.4596,3.2756,0.0,0.0,0.0,0.0,0.0,0.0,0.0,0.0,0.0,0.0,0.0,0.0,0.0,0.0,0.0,0.0,0.0,0.0,0.0,0.0,0.0,0.0,0.0,0.0,0.0,0.0,0.0,0.0,0.0,0.0,0.0,0.0,0.0,0.0,0.0,0.0,0.0,0.0,0.0,0.0,0.0,0.0,0.0,0.0,0.0,0.0,0.0,0.0,0.0,0.0,0.0,0.0,0.0,0.0,0.0,0.0,0.0,0.0,0.0,0.0,0.0,0.0,0.0,0.0,0.0,0.0,0.0,0.0,0.0,0.0,0.0,0.0,0.0,0.0,0.0,0.0,0.0,0.0,0.0,0.0,0.0,0.0,0.0,0.0,0.0,0.0,0.0,0.0,0.0,0.0,0.0,0.0,0.0,0.0,0.0,0.0,0.0,0.0,0.0,0.0,0.0,0.0,0.0,0.0,0.0,0.0,0.0,0.0,0.0,0.0,0.0,3.6551,3.3796,3.4614,0.0,2.9593,0.0,0.0,0.0,0.0,0.0,0.0,0.0,0.0,0.0,0.0,0.0,0.0,0.0,0.0,0.0,0.0,0.0,0.0,0.0,0.0,0.0,0.0,0.0,0.0,0.0,0.0,0.0,0.0,0.0,0.0,0.0,0.0,0.0,0.0,0.0,0.0,0.0,0.0,0.0,0.0,0.0,0.0,0.0,0.0,0.0,0.0,0.0,0.0,0.0,0.0,0.0,0.0,0.0,0.0,0.0,0.0,0.0,0.0,0.0,0.0,0.0,0.0,0.0,0.0,0.0,0.0,0.0,0.0,0.0,0.0,0.0,0.0,0.0,0.0,0.0,0.0,0.0,0.0,0.0,0.0,0.0,0.0,0.0,0.0,0.0,0.0,0.0,0.0,0.0,0.0,0.0,0.0,0.0,0.0,0.0,0.0,0.0,0.0,0.0,0.0,0.0,0.0,0.0,0.0,0.0,0.0,0.0,0.0,0.0,0.0,0.0,0.0,3.3736,3.2027,3.2158,0.0,0.0,0.0,0.0,0.0,0.0,0.0,0.0,0.0,0.0,0.0,0.0,0.0,0.0,0.0,0.0,0.0,0.0,0.0,0.0,0.0,0.0,0.0,0.0,0.0,0.0,0.0,0.0,0.0,0.0,0.0,0.0,0.0,0.0,0.0,0.0,0.0,0.0,0.0,0.0,0.0,0.0,0.0,0.0,0.0,0.0,0.0,0.0,0.0,0.0,0.0,0.0,0.0,0.0,0.0,0.0,0.0,0.0,0.0,0.0,0.0,0.0,0.0,0.0,0.0,0.0,0.0,0.0,0.0,0.0,0.0,0.0,0.0,0.0,0.0,0.0,0.0,0.0,0.0,0.0,0.0,0.0,0.0,0.0,0.0,0.0,0.0,0.0,0.0,0.0,0.0,0.0,0.0,0.0,0.0,0.0,0.0,0.0,0.0,0.0,0.0,0.0,0.0,0.0,0.0,0.0,0.0,0.0,0.0,0.0,3.6484,3.7958,3.4819,3.3412,3.4206,0.0,0.0,0.0,0.0,0.0,0.0,0.0,0.0,0.0,0.0,0.0,0.0,0.0,0.0,0.0,0.0,0.0,0.0,0.0,0.0,0.0,0.0,0.0,0.0,0.0,0.0,0.0,0.0,0.0,0.0,0.0,0.0,0.0,0.0,0.0,0.0,0.0,0.0,0.0,0.0,0.0,0.0,0.0,0.0,0.0,0.0,0.0,0.0,0.0,0.0,0.0,0.0,0.0,0.0,0.0,0.0,0.0,0.0,0.0,0.0,0.0,0.0,0.0,0.0,0.0,0.0,0.0,0.0,0.0,0.0,0.0,0.0,0.0,0.0,0.0,0.0,0.0,0.0,0.0,0.0,0.0,0.0,0.0,0.0,0.0,0.0,0.0,0.0,0.0,0.0,0.0,0.0,0.0,0.0,0.0,0.0,0.0,0.0,0.0,0.0,0.0,0.0,0.0,0.0,0.0,0.0,0.0,0.0,0.0,0.0,0.0,0.0,0.0,0.0,3.523,0.0,0.0,0.0,0.0,0.0,0.0,0.0,0.0,0.0,0.0,0.0,0.0,0.0,0.0,0.0,0.0,0.0,0.0,0.0,0.0,0.0,0.0,0.0,0.0,0.0,0.0,0.0,0.0,0.0,0.0,0.0,0.0,0.0,0.0,0.0,0.0,0.0,0.0,0.0,0.0,0.0,0.0,0.0,0.0,0.0,0.0,0.0,0.0,0.0,0.0,0.0,0.0,0.0,0.0,0.0,0.0,0.0,0.0,0.0,0.0,0.0,0.0,0.0,0.0,0.0,0.0,0.0,0.0,0.0,0.0,0.0,0.0,0.0,0.0,0.0,0.0,0.0,0.0,0.0,0.0,0.0,0.0,0.0,0.0,0.0,0.0,0.0,0.0,0.0,0.0,0.0,0.0,0.0,0.0,0.0,0.0,0.0,0.0,0.0,0.0,0.0,0.0,0.0,0.0,0.0,0.0,0.0,0.0,0.0,0.0,0.0,0.0,0.0,0.0,0.0,0.0,0.0,0.0,0.0,0.0,0.0,0.0,0.0,0.0,0.0,0.0,0.0,0.0,0.0,0.0,0.0,0.0,0.0,0.0,0.0,0.0,0.0,0.0,0.0,0.0,0.0,0.0,0.0,0.0,0.0,0.0,0.0,0.0,0.0,0.0,0.0,0.0,0.0,0.0,0.0,0.0,0.0,0.0,0.0,0.0,0.0,0.0,0.0,0.0,0.0,0.0,0.0,0.0,0.0,0.0,0.0,0.0,0.0,0.0,0.0,0.0,0.0,0.0,0.0,0.0,0.0,0.0,0.0,0.0,0.0,0.0,0.0,0.0,0.0,0.0,0.0,0.0,0.0,0.0,0.0,0.0,0.0,0.0,0.0,0.0,0.0,0.0,0.0,0.0,0.0,0.0,0.0,0.0,0.0,0.0,0.0,0.0,0.0,0.0,0.0,0.0,0.0,0.0,0.0,0.0,0.0,0.0,0.0,0.0,0.0,0.0,0.0,0.0,0.0,0.0,0.0,0.0,0.0,0.0,0.0,0.0,0.0,0.0,0.0,0.0,0.0,0.0,0.0,0.0,0.0,0.0,0.0,0.0,0.0,0.0,0.0,0.0,0.0,0.0,0.0,0.0,0.0,0.0,0.0,0.0,0.0,0.0,0.0,0.0,0.0,0.0,0.0,0.0,0.0,0.0,0.0,0.0,0.0,0.0,0.0,0.0,0.0,0.0,0.0,0.0,0.0,0.0,0.0,0.0,0.0,0.0,0.0,0.0,0.0,0.0,0.0,0.0,0.0,0.0,0.0,0.0,0.0,0.0,0.0,0.0,0.0,0.0,0.0,0.0,0.0,0.0,0.0,0.0,0.0,0.0,0.0,0.0,0.0,0.0,0.0,0.0,0.0,0.0,0.0,0.0,0.0,0.0,0.0,0.0,0.0,0.0,0.0,0.0,0.0,0.0,0.0,0.0,0.0,0.0,0.0,0.0,0.0,0.0,0.0,0.0,0.0,0.0,0.0,0.0,0.0,0.0,0.0,0.0,0.0,0.0,0.0,0.0,0.0,0.0,0.0,0.0,0.0,0.0,0.0,0.0,0.0,0.0,0.0,0.0,0.0,0.0,0.0,0.0,0.0,0.0,0.0,0.0,0.0,0.0,0.0,0.0,0.0,0.0,0.0,0.0,0.0,0.0,0.0,0.0,0.0,0.0,0.0,0.0,0.0,0.0,0.0,0.0,0.0,0.0,0.0,0.0,0.0,0.0,0.0,0.0,0.0,0.0,0.0,0.0,0.0,0.0,0.0,0.0,0.0,0.0,0.0,0.0,0.0,0.0,0.0,0.0,0.0,0.0,0.0,0.0,0.0,0.0,0.0,0.0,0.0,0.0,0.0,0.0,0.0,0.0,0.0,0.0,0.0,0.0,0.0,0.0,0.0,0.0,0.0,0.0,0.0,0.0,0.0,0.0,0.0,0.0,0.0,0.0,0.0,0.0,0.0,0.0,0.0,0.0,0.0,0.0,0.0,0.0,0.0,0.0,0.0,0.0,0.0,0.0,0.0,0.0,0.0,0.0,0.0,0.0,0.0,0.0,0.0,0.0,0.0,0.0,0.0,0.0,0.0,0.0,0.0,0.0,0.0,0.0,0.0,0.0,0.0,0.0,0.0,0.0,0.0,0.0,0.0,0.0,0.0,0.0,0.0,0.0,0.0,0.0,0.0,0.0,0.0,0.0,0.0,0.0,0.0,0.0,0.0,0.0,0.0,0.0,0.0,0.0,0.0,0.0,0.0,0.0,0.0,0.0,0.0,0.0,0.0,0.0,0.0,0.0,0.0,0.0,0.0,0.0,0.0,0.0,0.0,0.0,0.0,0.0,0.0,0.0,0.0,0.0,0.0,0.0,0.0,0.0,0.0,0.0,0.0,0.0,0.0,0.0,0.0,0.0,0.0,0.0,0.0,0.0,0.0,0.0,0.0,0.0,0.0,0.0,0.0,0.0,0.0,0.0,0.0,0.0,0.0,0.0,0.0,0.0,0.0,0.0,0.0,0.0,0.0,0.0,0.0,0.0,0.0,0.0,0.0,0.0,0.0,0.0,0.0,0.0,0.0,0.0,0.0,0.0,0.0,0.0,0.0,0.0,0.0,0.0,0.0,0.0,0.0,0.0,0.0,0.0,0.0,0.0,0.0,0.0,0.0,0.0,0.0,0.0,0.0,0.0,0.0,0.0,0.0,0.0,0.0,0.0,0.0,0.0,0.0,0.0,0.0,0.0,0.0,0.0,0.0,0.0,0.0,0.0,0.0,0.0,0.0,0.0,0.0,0.0,0.0,0.0,0.0,0.0,0.0,0.0,0.0,0.0,0.0,0.0,0.0,0.0,0.0,0.0,0.0,0.0,0.0,0.0,0.0,0.0,0.0,0.0,0.0,0.0,0.0,0.0,0.0,0.0,0.0,0.0,0.0,0.0,0.0,0.0,0.0,0.0,0.0,0.0,0.0,0.0,0.0,0.0,0.0,0.0,0.0,0.0,0.0,0.0,0.0,0.0,0.0,0.0,0.0,0.0,0.0,0.0,0.0,0.0,0.0,0.0,0.0,0.0,0.0,0.0,0.0,0.0,0.0,0.0,0.0,0.0,0.0,0.0,0.0,0.0,0.0,0.0,0.0,0.0,0.0,0.0,0.0,0.0,0.0,0.0,0.0,0.0,0.0,0.0,0.0,0.0,0.0,0.0,0.0,0.0,0.0,0.0,0.0,0.0,0.0,0.0,0.0,0.0,0.0,0.0,0.0,0.0,0.0,0.0,0.0,0.0,0.0,0.0,0.0,0.0,0.0,0.0,0.0,0.0,0.0,0.0,0.0,0.0,0.0,0.0,0.0,0.0,0.0,0.0,0.0,0.0,0.0,0.0,0.0,0.0,0.0,0.0,0.0,0.0,0.0,0.0,0.0,0.0,0.0,0.0,0.0,0.0,0.0,0.0,0.0,0.0,0.0,0.0,0.0,0.0,0.0,0.0,0.0,0.0,0.0,0.0,0.0,0.0,0.0,0.0,0.0,0.0,0.0,0.0,0.0,0.0,0.0,0.0,0.0,0.0,0.0,0.0,0.0,0.0,0.0,0.0,0.0,0.0,0.0,0.0,0.0,0.0,0.0,0.0,0.0,0.0,0.0,0.0,0.0,0.0,0.0,0.0,0.0,0.0,0.0,0.0,0.0,0.0,0.0,0.0,0.0,0.0,0.0,0.0,0.0,0.0,0.0,0.0,0.0,0.0,0.0,0.0,0.0,0.0,0.0,0.0,0.0,0.0,0.0,0.0,0.0,0.0,0.0,0.0,0.0,0.0,0.0,0.0,0.0,0.0,0.0,0.0,0.0,0.0,0.0,0.0,0.0,0.0,0.0,0.0,0.0,0.0,0.0,0.0,0.0,0.0,0.0,0.0,0.0,0.0,0.0,0.0,0.0,0.0,0.0,0.0,0.0,0.0,0.0,0.0,0.0,0.0,0.0,0.0,0.0,0.0,0.0,0.0,0.0,0.0,0.0,0.0,0.0,0.0,0.0,0.0,0.0,0.0,0.0,0.0,0.0,0.0,0.0,0.0,0.0,0.0,0.0,0.0,0.0,0.0,0.0,0.0,0.0,0.0,0.0,0.0,0.0,0.0,0.0,0.0,0.0,0.0,0.0,0.0,0.0,0.0,0.0,0.0,0.0,0.0,0.0,0.0,0.0,0.0,0.0,0.0,0.0,0.0,0.0,0.0,0.0,0.0,0.0,0.0,0.0,0.0,0.0,0.0,0.0,0.0,0.0,0.0,0.0,0.0,0.0,0.0,0.0,0.0,0.0,0.0,0.0,0.0,0.0,0.0,0.0,0.0]}],[{"header":{"parameterUnit":"kt","parameterCategory":2,"dx":1,"dy":1,"la1":29.587661999999998,"la2":31.0,"lo1":-88.76705300000003,"lo2":-86.6583820000003,"nx":115,"ny":88,"refTime":"2022-10-30T00:00:00:Z","depth":0,"parameterNumber":2,"parameterNumberName":"V-component_of_WINDS"},"data":[7.9446,7.9538,7.9721,8.0015,8.0423,8.0992,8.1293,8.1507,8.2229,8.2532,8.2504,8.2253,8.1788,8.1933,8.2044,8.2022,8.1608,8.106,8.142,8.1393,8.0852,8.036,7.9792,7.925,7.9294,7.9194,7.9141,7.8968,7.83,7.8517,7.7579,7.5193,7.6408,7.5549,7.3228,7.3561,7.4482,7.3727,7.3594,7.3228,7.2575,7.1212,6.9816,6.9083,6.8764,6.8593,6.8639,6.8771,6.8903,6.9034,6.922,6.9384,6.945,6.945,6.9331,6.9331,6.9244,6.9244,6.9276,6.9276,6.9276,6.9276,6.9276,6.9244,6.9211,6.9178,6.8422,6.8257,6.7304,6.6021,6.5068,6.464,6.4016,6.3424,6.2898,6.1604,6.0211,5.9709,5.9045,5.7989,5.702,5.6628,5.6501,5.4649,5.2154,5.1874,5.0976,5.146,5.1526,5.0963,5.0437,5.0796,5.1156,5.0201,4.9842,5.0112,5.0022,4.9274,4.9154,5.053,5.1368,5.1488,5.1936,5.2625,5.2714,5.2415,5.3101,5.3601,5.4243,5.3806,5.3855,5.3154,5.2046,5.0559,4.8398,7.9572,7.963,8.0247,8.1376,8.2762,8.2949,8.3251,8.3755,8.4034,8.3965,8.3754,8.1358,8.0549,8.1092,8.1678,8.1862,8.1663,8.1073,7.9651,7.9388,7.986,8.0018,7.9743,7.9305,7.9621,7.9835,7.937,7.8699,7.7681,7.739,7.6908,7.5457,7.5122,7.5055,7.48,7.4579,7.3803,7.2949,7.2516,7.2016,7.0616,6.9101,6.7821,6.6677,6.5999,6.5999,6.6529,6.7093,6.7956,6.8486,6.9113,6.9477,6.959,6.9504,6.9417,6.9417,6.9244,6.9244,6.9276,6.9276,6.9276,6.9211,6.9276,6.9211,6.9058,6.8553,6.7337,6.6613,6.5726,6.4673,6.3654,6.2865,6.2175,6.1517,6.0947,6.0181,5.8637,5.7267,5.6213,5.5098,5.4075,5.2999,5.2154,5.0915,5.0023,5.0036,5.0107,5.059,5.068,4.9812,4.9633,5.0052,5.062,5.0949,5.0919,5.0919,5.0859,5.0291,5.0381,5.1548,5.2415,5.2206,5.2444,5.3369,5.3631,5.3385,5.3823,5.3957,5.356,5.3079,5.2378,5.1281,5.0362,4.9138,4.7052,7.9778,8.0159,8.0563,8.1459,8.2358,8.1666,8.1543,8.1662,8.0924,8.2022,8.3854,8.2727,8.17,8.1702,8.1379,8.1516,8.1915,8.1165,8.0516,8.0941,8.2028,8.0851,8.1139,8.1568,8.0977,8.0582,8.0052,7.8706,7.7494,7.6753,7.5825,7.459,7.3851,7.326,7.2305,7.222,7.1768,7.1149,7.1065,6.9883,6.7831,6.7417,6.6571,6.6994,6.6879,6.7244,6.7508,6.8052,6.8599,6.8896,6.9127,6.9524,6.959,6.9504,6.945,6.9298,6.9232,6.9276,6.9276,6.9276,6.9276,6.8849,6.8718,6.7994,6.7994,6.6778,6.5561,6.4557,6.3668,6.2832,6.1891,6.1397,6.0705,6.0212,5.9709,5.9,5.7688,5.6312,5.5259,5.409,5.2924,5.1922,5.1252,5.0163,4.9367,4.9411,4.9364,4.9872,4.9124,4.8287,4.9005,4.9663,5.053,5.1009,5.1577,5.1757,5.1787,5.1817,5.1727,5.2535,5.3103,5.292,5.2789,5.3309,5.3618,5.3543,5.3281,5.316,5.2879,5.2287,5.1023,4.9402,4.8586,4.7565,4.5886,7.9869,8.0423,8.0389,8.0907,8.1566,8.062,8.0404,8.0427,7.8725,8.0188,8.2858,8.3115,8.2655,8.2214,8.2056,8.2269,8.2478,8.2119,8.241,8.2119,8.2073,8.1011,8.1508,8.0329,8.0718,8.0491,7.9459,7.7752,7.6803,7.5707,7.4667,7.3229,7.2654,7.1569,7.0298,7.0049,6.9666,6.895,6.9183,6.8665,6.7376,6.6942,6.6541,6.6837,6.7223,6.7392,6.784,6.8499,6.8962,6.9088,6.9187,6.9384,6.9331,6.9364,6.9199,6.8903,6.8553,6.8191,6.7994,6.7698,6.7698,6.7501,6.7238,6.6745,6.589,6.4722,6.3504,6.2384,6.143,6.0673,6.0014,5.9751,5.9389,5.9027,5.8705,5.786,5.6985,5.5989,5.5069,5.3874,5.2664,5.192,5.1374,5.0568,4.9544,4.9066,4.8848,4.8646,4.7957,4.8346,4.9184,5.08,5.1338,5.1817,5.2385,5.2774,5.3073,5.3163,5.3223,5.3432,5.3761,5.3816,5.3864,5.3853,5.3288,5.2675,5.242,5.225,5.1906,5.1349,5.016,4.782,4.6773,4.5995,4.4636,7.9596,7.9687,7.9663,8.0335,8.0873,8.1589,8.2183,8.2755,8.0496,8.0036,8.0742,8.171,8.2107,8.2346,8.2502,8.2797,8.2481,8.2127,8.1594,8.003,8.0329,7.999,7.8924,7.7438,7.8466,7.7576,7.6679,7.6427,7.5707,7.4158,7.2412,7.088,7.0597,6.9926,6.8706,6.8459,6.7978,6.7397,6.7777,6.8271,6.7836,6.7848,6.7714,6.6798,6.6586,6.6753,6.7155,6.769,6.8426,6.8765,6.9134,6.9915,6.9713,6.9444,6.8565,6.8052,6.744,6.6862,6.6335,6.6104,6.5874,6.5709,6.5134,6.4821,6.3583,6.2177,6.0998,5.9949,5.957,5.891,5.8408,5.8111,5.798,5.7749,5.7156,5.6289,5.542,5.4494,5.3463,5.2209,5.1098,5.0427,4.996,4.974,4.8665,4.782,4.7658,4.7778,4.7898,4.8855,5.0381,5.2355,5.2834,5.3283,5.3672,5.3881,5.427,5.4509,5.4689,5.4809,5.42,5.4373,5.4819,5.3894,5.285,5.2207,5.1349,5.072,5.0229,4.9886,4.8488,4.6298,4.5081,4.4393,4.3371,8.1362,8.182,8.1854,8.1981,8.228,8.2227,8.2584,8.2868,8.0907,8.1127,8.2382,8.0844,8.084,8.1817,8.1408,8.1238,8.1273,8.0927,8.0435,7.9129,7.8873,7.832,7.8569,7.8323,7.7302,7.6741,7.6211,7.4907,7.3772,7.2042,7.0135,6.8805,6.8105,6.7624,6.7345,6.7133,6.6586,6.6698,6.6731,6.701,6.701,6.6943,6.7367,6.7288,6.7376,6.7964,6.865,6.905,6.9416,6.9467,6.9567,6.98,6.8785,6.8519,6.7889,6.668,6.6202,6.5592,6.4964,6.4898,6.5209,6.5143,6.4547,6.2849,6.0908,5.9717,5.8802,5.791,5.7571,5.7198,5.6868,5.6501,5.6468,5.6365,5.5573,5.4714,5.3818,5.2893,5.1826,5.0546,4.9793,4.9083,4.8589,4.8311,4.7846,4.754,4.7359,4.7808,4.8825,4.9992,5.1877,5.3343,5.3941,5.442,5.4689,5.4868,5.4775,5.4834,5.5133,5.5009,5.4503,5.4281,5.3874,5.3189,5.2363,5.1532,5.0645,4.9732,4.8444,4.7792,4.6694,4.4876,4.3673,4.2873,4.2299,8.1297,8.2248,8.2358,8.2638,8.2643,8.0982,8.0795,8.1561,8.0689,8.0985,8.3054,8.0107,7.9704,8.0777,7.9536,7.9278,7.8959,7.8675,7.8597,7.7658,7.6591,7.7032,7.6925,7.6512,7.6618,7.585,7.4951,7.3568,7.2281,7.0046,6.8242,6.7449,6.7477,6.6953,6.6574,6.6272,6.6641,6.6909,6.7177,6.7647,6.7848,6.8082,6.8305,6.8626,6.8793,6.908,6.9666,6.9999,6.955,6.94,6.94,6.8652,6.7422,6.7108,6.6909,6.5614,6.495,6.4385,6.3821,6.3622,6.3047,6.2152,6.1803,5.941,5.8183,5.7284,5.7049,5.6585,5.6251,5.552,5.4988,5.4855,5.4722,5.459,5.4259,5.3464,5.2727,5.1867,5.1155,5.007,4.9458,4.879,4.8046,4.7767,4.7779,4.755,4.7898,4.9005,5.0171,5.1667,5.3223,5.4001,5.4569,5.4809,5.5138,5.5227,5.5133,5.5039,5.5103,5.5009,5.4222,5.3426,5.2946,5.2192,5.1324,5.0562,4.969,4.8244,4.6698,4.583,4.5116,4.358,4.2301,4.1462,4.079,7.8412,7.9702,7.9806,8.0586,8.1088,7.7911,7.6846,7.7926,7.9236,7.9851,8.0093,7.9779,7.8647,7.8166,7.8888,7.846,7.7427,7.7141,7.6464,7.537,7.3962,7.3601,7.3268,7.2927,7.3191,7.3375,7.2837,7.1471,7.1179,6.8646,6.7093,6.6712,6.7188,6.7265,6.703,6.6987,6.7546,6.8116,6.8418,6.882,6.9289,6.9826,6.9859,6.9711,6.9711,6.9845,6.9778,6.9544,6.8894,6.8345,6.7797,6.6804,6.6092,6.5614,6.5581,6.4983,6.3721,6.1862,6.044,6.0075,5.941,5.8216,5.7688,5.7556,5.6821,5.632,5.5819,5.5252,5.4952,5.4054,5.339,5.339,5.3326,5.3193,5.3027,5.254,5.1813,5.1276,5.0597,5.011,4.9677,4.8787,4.8128,4.751,4.755,4.7808,4.8765,4.9962,5.1518,5.3043,5.4001,5.4749,5.4898,5.5197,5.5227,5.5227,5.5039,5.4532,5.4599,5.4326,5.3563,5.2761,5.1608,5.0546,5.0051,4.9046,4.7713,4.6302,4.4846,4.4059,4.332,4.1995,4.0464,3.9755,3.9102,7.7218,7.6794,7.6794,7.7112,7.7567,7.8093,7.7881,7.7453,7.706,7.8095,7.8844,7.6525,7.5419,7.5455,7.4777,7.3564,7.4456,7.36,7.2565,7.3505,7.161,7.1158,7.0958,7.0804,7.0587,6.9247,6.8992,6.8571,6.7544,6.6201,6.6148,6.6518,6.6708,6.7496,6.828,6.8352,6.8786,6.8686,6.8853,6.9356,6.9759,7.0127,7.0194,6.996,6.949,6.9021,6.8585,6.7446,6.586,6.5258,6.4555,6.3576,6.2974,6.2332,6.1698,6.1297,6.0428,5.9226,5.8357,5.7955,5.662,5.4917,5.4543,5.454,5.454,5.4811,5.4309,5.4075,5.3773,5.3246,5.2983,5.295,5.2824,5.2764,5.2664,5.26,5.2113,5.2048,5.1487,5.1385,5.0875,4.9531,4.8514,4.7937,4.7718,4.8646,4.9603,5.1189,5.2744,5.3881,5.4868,5.5048,5.5168,5.5227,5.5227,5.4954,5.4486,5.4088,5.3689,5.3232,5.2473,5.1195,4.9939,4.8705,4.8139,4.7346,4.5806,4.4297,4.2952,4.2006,4.1161,3.9876,3.8684,3.7904,3.723,7.6454,7.599,7.599,7.4492,7.2494,7.4848,7.5348,7.4277,7.3528,7.4277,7.5633,7.3778,7.2565,7.2387,7.1352,7.1067,7.1174,6.9961,6.9961,7.0867,6.9089,6.9004,6.9345,6.9209,6.8752,6.823,6.8642,6.849,6.593,6.6782,6.7097,6.7055,6.7639,6.7925,6.878,6.8237,6.8015,6.7714,6.7714,6.7714,6.7546,6.7379,6.7278,6.7177,6.6373,6.5937,6.5702,6.4496,6.3289,6.2518,6.2015,6.1043,6.0135,5.9803,5.9099,5.873,5.8328,5.7356,5.7289,5.6082,5.4976,5.397,5.3333,5.3366,5.3132,5.3065,5.3065,5.3132,5.3266,5.3137,5.2841,5.2841,5.2716,5.2624,5.2561,5.2498,5.2144,5.208,5.1949,5.1685,5.0769,4.9225,4.8283,4.7669,4.8481,4.9531,5.0547,5.2051,5.3612,5.4719,5.5078,5.5108,5.5133,5.5227,5.4834,5.3957,5.3309,5.2591,5.2119,5.153,5.0585,4.9503,4.8133,4.6762,4.6278,4.5589,4.4215,4.2755,4.1164,3.9323,3.7987,3.6621,3.5192,3.4389,3.4135,7.574,7.7274,7.6953,7.2779,6.7285,6.7713,6.8657,6.9426,6.9014,6.9925,7.1388,7.0853,6.9854,6.9104,6.9711,6.939,6.8783,6.8265,6.8301,6.8408,6.7586,6.7142,6.7659,6.8353,6.8521,7.0048,6.997,6.9728,6.9612,6.8651,6.8672,6.8763,6.8156,6.8094,6.7924,6.5443,6.3463,6.2288,6.2523,6.2825,6.3027,6.3155,6.3222,6.3188,6.282,6.2685,6.2417,6.1445,6.0373,5.9568,5.9099,5.8462,5.7624,5.7322,5.7154,5.7188,5.7087,5.6987,5.6987,5.4573,5.3601,5.3165,5.3065,5.3065,5.3065,5.3065,5.3065,5.3065,5.3065,5.3031,5.3031,5.3065,5.2874,5.2812,5.2716,5.2591,5.1851,5.1487,5.1185,5.0875,4.9667,4.8606,4.8081,4.8021,4.929,5.0227,5.143,5.2919,5.4422,5.5078,5.4868,5.4864,5.4819,5.4724,5.42,5.3097,5.1841,5.0983,5.0095,4.8911,4.7855,4.7217,4.6169,4.4926,4.4085,4.3238,4.2246,4.1153,3.8997,3.6845,3.5211,3.3883,3.1625,3.0201,2.9589,7.0888,6.9426,7.046,7.0139,6.9283,6.9604,6.9782,6.9818,6.9675,7.0175,7.046,6.9283,6.8462,6.7963,6.7749,6.7249,6.7677,6.7178,6.7321,6.7517,6.7481,6.7035,6.7,6.7481,6.8404,6.8052,6.8429,6.8822,6.8853,6.8724,6.8537,6.8433,6.8236,6.6925,6.5912,6.4378,6.3333,6.2551,6.2312,6.2207,6.1613,6.1546,6.1479,6.1311,6.0406,6.0071,5.9602,5.8395,5.7289,5.6652,5.6015,5.5512,5.5344,5.5177,5.5043,5.511,5.5009,5.4339,5.4205,5.3434,5.3165,5.3065,5.3065,5.3065,5.3065,5.3065,5.3065,5.3065,5.3065,5.3065,5.3065,5.3065,5.297,5.2874,5.2874,5.2591,5.1818,5.1218,5.0774,5.0284,5.0245,4.9845,4.9268,4.8744,4.942,4.9361,5.061,5.2091,5.3795,5.4456,5.4304,5.4114,5.4131,5.3832,5.3466,5.1839,5.0246,4.9362,4.8264,4.6761,4.5346,4.4849,4.3978,4.2856,4.1888,4.0903,4.0002,3.9175,3.7014,3.4513,3.3652,3.2753,3.0515,2.8447,2.7055,7.0853,6.8498,6.8874,6.9338,6.9714,6.9604,6.9247,6.8783,6.8676,6.8676,6.8534,6.7677,6.7142,6.6928,6.6108,6.6286,6.6928,6.6571,6.7231,6.7909,6.8712,6.8427,6.8284,6.8586,6.876,6.8805,6.8862,6.8833,6.8454,6.9267,6.8608,6.6444,6.5141,6.4279,6.2784,6.1035,5.9656,5.8925,5.8657,5.8727,5.8529,5.8462,5.8428,5.8428,5.7356,5.7188,5.6953,5.5244,5.4674,5.4238,5.3702,5.3869,5.4137,5.3668,5.3735,5.4137,5.3769,5.34,5.3232,5.3165,5.3065,5.3065,5.3065,5.3065,5.3065,5.3065,5.3065,5.3065,5.3065,5.3065,5.3065,5.3065,5.3065,5.297,5.2812,5.2465,5.1916,5.1318,5.0806,5.0205,5.0276,5.045,4.999,4.9478,4.8956,4.8637,4.9894,5.1119,5.2627,5.3546,5.2983,5.2744,5.2501,5.219,5.1231,4.9933,4.8651,4.7652,4.6564,4.4626,4.2654,4.2239,4.1972,4.0872,3.9852,3.9053,3.8259,3.7223,3.5383,3.278,3.1667,3.1013,2.9389,2.726,2.4533,7.4158,7.2515,7.1342,6.9965,6.8515,6.8267,6.7535,6.6981,6.6374,6.6481,6.707,6.616,6.6446,6.641,6.6819,6.6624,6.641,6.7606,6.8034,6.8641,6.9533,6.9675,6.9069,6.8997,6.9513,6.9548,6.8622,6.8907,6.9721,6.8314,6.6213,6.3732,6.2124,6.0834,5.9515,5.8082,5.632,5.5543,5.5127,5.4651,5.4402,5.4151,5.4022,5.3725,5.3395,5.3098,5.3165,5.3366,5.3366,5.3366,5.3132,5.3333,5.34,5.3165,5.3132,5.34,5.3132,5.3098,5.3065,5.3065,5.3065,5.3065,5.3065,5.3065,5.3065,5.3065,5.3065,5.3065,5.3065,5.3065,5.3065,5.3065,5.3065,5.297,5.2812,5.2528,5.2209,5.1586,5.0839,5.0093,4.9908,4.998,4.9657,4.9362,4.8911,4.8354,4.9346,4.9434,5.1018,5.1258,5.0873,5.0987,5.0689,5.0063,4.9003,4.8001,4.6937,4.5868,4.4559,4.2461,4.0363,4.0117,4.0073,3.8908,3.7421,3.7122,3.6482,3.3825,3.1506,3.0233,2.9221,2.8101,2.6701,2.4565,2.1506,7.2152,6.9965,7.1829,7.1059,6.8655,6.9767,6.9822,6.9409,6.8245,6.8424,6.9086,6.8281,6.8424,6.9373,6.9141,6.8639,6.9249,6.993,6.9375,6.9142,6.9445,6.8997,6.7927,6.7142,6.7142,6.6821,6.6464,6.5788,6.5539,6.4402,6.2603,6.0027,5.9314,5.8593,5.7519,5.6369,5.562,5.4993,5.4783,5.4461,5.4096,5.3731,5.3683,5.3507,5.3302,5.3065,5.3065,5.3065,5.3065,5.3065,5.3065,5.3065,5.3065,5.3065,5.3065,5.3065,5.3154,5.3187,5.3126,5.3065,5.3065,5.3065,5.3065,5.3065,5.3065,5.3065,5.3065,5.3065,5.3065,5.3065,5.3065,5.3065,5.3065,5.3003,5.2812,5.275,5.2561,5.1916,5.1218,5.0559,5.0093,4.998,4.9615,4.9243,4.864,4.8122,4.7964,4.8005,4.8207,4.822,4.8324,4.8938,4.8583,4.7903,4.6895,4.6031,4.513,4.4096,4.2408,4.048,3.8414,3.7693,3.7573,3.6296,3.4702,3.3908,3.282,2.9937,2.7176,2.6597,2.5981,2.5134,2.3593,2.1433,1.875,7.1379,6.9904,7.0895,7.0284,6.8774,6.8723,6.8815,6.8635,6.7882,6.8076,6.8492,6.7846,6.7953,6.8169,6.8025,6.7559,6.6919,6.7082,6.7031,6.6498,6.7374,6.7392,6.5965,6.5715,6.5715,6.5537,6.4308,6.3018,6.0817,5.9614,5.8687,5.7774,5.742,5.6876,5.6271,5.5604,5.5399,5.5249,5.4836,5.4352,5.3926,5.3708,5.3507,5.3481,5.3215,5.3126,5.3065,5.3065,5.3065,5.3065,5.3065,5.3065,5.3065,5.3126,5.3065,5.3126,5.3242,5.3242,5.3093,5.3065,5.3065,5.3065,5.3065,5.3065,5.3065,5.3065,5.3065,5.3065,5.3065,5.3065,5.3065,5.3065,5.3065,5.297,5.2621,5.2495,5.2271,5.185,5.1454,5.1013,5.0489,5.0093,4.9689,4.8528,4.7183,4.7152,4.7509,4.7292,4.6815,4.6358,4.6552,4.6751,4.5989,4.5374,4.4319,4.3235,4.2151,4.0418,3.8824,3.8217,3.6267,3.5153,3.4812,3.3848,3.1609,2.9967,2.888,2.6736,2.4547,2.3506,2.27,2.1448,2.0024,1.7858,1.5468,7.0459,7.0147,6.8975,6.847,6.8038,6.6882,6.6244,6.628,6.6064,6.5957,6.6581,6.6028,6.6028,6.6257,6.5094,6.3646,6.3191,6.4195,6.4719,6.4404,6.5212,6.5446,6.5053,6.5073,6.4125,6.361,6.2683,6.0114,5.8081,5.7189,5.6591,5.6573,5.6343,5.5776,5.5872,5.5299,5.4151,5.4186,5.3881,5.3625,5.3566,5.3507,5.3388,5.3422,5.3362,5.3362,5.3302,5.3388,5.3422,5.3396,5.3376,5.3288,5.3242,5.3275,5.3215,5.3242,5.3388,5.3532,5.3154,5.3065,5.3065,5.3065,5.3065,5.3065,5.3093,5.3154,5.3275,5.3154,5.3065,5.3065,5.3065,5.3065,5.3065,5.2874,5.2683,5.2461,5.2207,5.2111,5.142,5.0843,4.9678,4.9483,4.9164,4.737,4.589,4.6514,4.6885,4.6362,4.5886,4.5208,4.5071,4.3533,4.2603,4.1823,4.0886,3.9733,3.8308,3.6295,3.5811,3.5622,3.3929,3.2519,3.2132,3.0456,2.7856,2.5924,2.3994,2.2656,2.1784,2.0357,1.8744,1.7515,1.6174,1.4027,1.1597,6.503,6.439,6.618,6.6406,6.5751,6.6097,6.6318,6.6174,6.5045,6.5117,6.6138,6.5153,6.5189,6.5946,6.5838,6.5514,6.5586,6.5143,6.4376,6.361,6.3693,6.3202,6.208,6.1043,6.0506,6.0519,5.9115,5.7386,5.666,5.6668,5.6624,5.6501,5.6457,5.6323,5.6151,5.5741,5.6001,5.5824,5.5693,5.5484,5.5061,5.4608,5.4338,5.4338,5.4372,5.4039,5.3673,5.3926,5.4117,5.4097,5.415,5.4176,5.4254,5.4303,5.3926,5.3242,5.3154,5.3154,5.3126,5.3187,5.3215,5.3154,5.3126,5.3065,5.3093,5.3328,5.3591,5.3591,5.3362,5.3065,5.3065,5.3065,5.3065,5.3031,5.2874,5.2779,5.2624,5.2111,5.142,5.0037,4.8933,4.8235,4.7849,4.63,4.4719,4.5092,4.4821,4.4435,4.3938,4.336,4.2675,4.0906,3.9712,3.8953,3.7589,3.6556,3.4646,3.3049,3.2862,3.2455,3.1146,2.9762,2.8294,2.6873,2.4073,2.0566,1.8778,1.7179,1.7424,1.6976,1.4994,1.3256,1.1512,0.9393,0.7225,6.306,6.2583,6.387,6.4038,6.353,6.3964,6.4235,6.4091,6.3405,6.3477,6.3802,6.3477,6.3513,6.3802,6.3549,6.253,6.1836,6.1818,6.1305,6.0721,6.0424,5.9796,5.9033,5.8388,5.7878,5.7591,5.7082,5.6775,5.6796,5.6796,5.6718,5.6711,5.6632,5.6589,5.6501,5.6288,5.6034,5.5942,5.5754,5.5512,5.5229,5.4923,5.4679,5.4679,5.4626,5.4392,5.4039,5.4193,5.4193,5.3995,5.3936,5.3902,5.4186,5.4661,5.5294,5.4626,5.4481,5.4331,5.3961,5.3847,5.3649,5.3507,5.3448,5.3362,5.3242,5.3328,5.3422,5.3388,5.3154,5.3065,5.3126,5.3065,5.3065,5.3065,5.3065,5.3065,5.2846,5.2209,5.0736,4.8978,4.7417,4.6345,4.6115,4.5257,4.3807,4.3076,4.2715,4.2233,4.1719,4.1347,4.108,3.962,3.8559,3.7129,3.4879,3.3293,3.1297,3.03,2.974,2.9108,2.789,2.6424,2.4922,2.2648,1.8888,1.5007,1.3313,1.257,1.347,1.3775,1.0703,0.7965,0.6513,0.4872,0.2653,6.1901,6.1755,6.168,6.1526,6.1249,6.112,6.1114,6.115,6.0992,6.1058,6.1022,6.0985,6.092,6.0812,5.9619,5.8489,5.8086,5.808,5.7642,5.7492,5.7456,5.7449,5.7335,5.7155,5.6976,5.6802,5.6838,5.6838,5.688,5.6838,5.6838,5.676,5.676,5.676,5.6596,5.6306,5.609,5.609,5.6285,5.5794,5.5665,5.5758,5.6213,5.5428,5.5252,5.4906,5.4412,5.4269,5.4048,5.3731,5.3641,5.3574,5.3892,5.5077,5.5526,5.5194,5.4975,5.473,5.4392,5.4358,5.4228,5.3983,5.3789,5.3591,5.3388,5.3481,5.3742,5.3625,5.3566,5.3507,5.3275,5.3187,5.3126,5.3098,5.3037,5.297,5.2411,5.1281,4.9626,4.7873,4.582,4.4195,4.4096,4.3556,4.2324,4.1526,4.07,3.9844,3.9138,3.8746,3.8433,3.7667,3.6892,3.4572,3.2186,3.0127,2.854,2.7759,2.687,2.6107,2.4728,2.3325,2.0483,1.7387,1.376,1.059,0.9059,0.8071,0.8165,0.7759,0.5302,0.2431,0.0124,-0.2281,-0.3856,5.8919,5.9062,5.8825,5.8857,5.8913,5.8534,5.839,5.828,5.7934,5.8328,5.7885,5.7849,5.8404,5.7957,5.7745,5.7488,5.7122,5.7162,5.7081,5.7081,5.7081,5.6963,5.6994,5.7071,5.7185,5.7122,5.7081,5.7045,5.7045,5.7158,5.7329,5.703,5.703,5.7384,5.6976,5.6711,5.699,5.7241,5.7896,5.7692,5.6371,5.8264,5.8481,5.7448,5.6752,5.62,5.5935,5.5808,5.586,5.6197,5.62,5.5445,5.4654,5.4446,5.4173,5.4283,5.4362,5.4397,5.4377,5.4228,5.4117,5.3904,5.3904,5.3847,5.3961,5.4276,5.4283,5.4412,5.4205,5.4331,5.3926,5.3016,5.2791,5.2931,5.3017,5.2421,5.1209,4.9443,4.8177,4.6728,4.4947,4.3593,4.3026,4.2268,4.1035,3.9789,3.8472,3.7348,3.6419,3.5651,3.4863,3.4118,3.3237,3.1391,2.9386,2.7513,2.6243,2.5358,2.4262,2.3158,2.1789,1.8947,1.5312,1.2196,0.9618,0.6965,0.5057,0.4081,0.28,0.1221,-0.0497,-0.2738,-0.582,-0.9062,-0.9208,5.859,5.8489,5.8387,5.83,5.8241,5.7997,5.7865,5.7832,5.7659,5.7697,5.766,5.7697,5.766,5.7661,5.7443,5.7479,5.7553,5.7326,5.7162,5.7198,5.7198,5.7122,5.7117,5.7934,5.8009,5.7162,5.7126,5.7126,5.7415,5.7921,5.8314,5.8308,5.9204,5.924,5.9449,5.9521,5.9341,5.9521,6.0206,6.011,5.9091,6.0506,6.0519,5.9887,5.9316,5.8841,5.8189,5.7728,5.729,5.6994,5.6544,5.5927,5.5194,5.361,5.3579,5.4347,5.4448,5.4233,5.5089,5.5279,5.5039,5.4956,5.4905,5.4626,5.4446,5.457,5.4312,5.3441,5.315,5.291,5.1539,5.0918,5.0826,5.1062,5.2097,5.2004,4.9856,4.784,4.6336,4.5127,4.4148,4.3323,4.2458,4.1456,4.0353,3.9704,3.8366,3.7045,3.5934,3.4104,3.2793,3.1107,3.0018,2.8594,2.6732,2.52,2.3965,2.2616,2.1329,1.9764,1.6925,1.3334,1.0078,0.7779,0.5262,0.2876,0.0916,0.0115,-0.0942,-0.3051,-0.5388,-0.7773,-1.0056,-1.1749,-1.2409,5.8907,5.8633,5.8633,5.8536,5.8337,5.8248,5.8181,5.8181,5.8125,5.8062,5.8093,5.8125,5.8093,5.8098,5.8235,5.8088,5.8001,5.81,5.7873,5.7909,5.8127,5.8088,5.7578,5.842,5.8456,5.7532,5.7126,5.7343,5.7885,5.8861,5.9577,5.9974,6.0877,6.1744,6.1599,6.1347,6.178,6.1852,6.2141,6.1944,6.1566,6.1994,6.2223,6.1302,6.1412,6.1207,6.0462,5.9333,5.8405,5.7684,5.6888,5.6212,5.5704,5.392,5.3774,5.4964,5.4573,5.4249,5.5101,5.4938,5.4968,5.4104,5.389,5.4276,5.3498,5.3464,5.2875,5.2062,5.1526,5.1252,5.0134,4.8941,4.8772,4.9435,5.0527,5.0415,4.8059,4.6189,4.4884,4.3696,4.2924,4.2313,4.1482,4.0675,3.9972,3.9584,3.8446,3.7133,3.5343,3.3444,3.1323,2.9034,2.7816,2.6163,2.4284,2.2633,2.1167,1.9711,1.776,1.584,1.0811,0.6879,0.4609,0.2589,0.0756,-0.1233,-0.3392,-0.4257,-0.5447,-0.7673,-0.991,-1.2422,-1.4185,-1.4239,-1.5031,5.9104,5.9044,5.9052,5.9005,5.9082,5.8681,5.8833,5.8555,5.8604,5.8482,5.8519,5.8267,5.8728,5.8199,5.9747,5.9456,5.8451,5.9615,5.995,6.0244,6.0761,6.0507,5.8355,5.8756,5.842,5.7865,5.7235,5.8106,5.9155,5.9511,6.0342,6.1455,6.1896,6.1924,6.2358,6.2105,6.1852,6.2358,6.3369,6.3278,6.2544,6.3439,6.3254,6.1791,6.1882,6.1514,6.0684,5.9893,5.9375,5.9175,5.7492,5.6475,5.6297,5.5892,5.5506,5.5147,5.4162,5.327,5.3001,5.2601,5.143,5.1643,5.1443,5.0687,5.1146,5.15,5.1479,5.1081,5.1621,5.099,5.0158,4.8318,4.7773,4.8469,4.8043,4.6951,4.5135,4.4432,4.3864,4.285,4.2681,4.1957,4.102,3.9976,3.9088,3.8249,3.6686,3.5038,3.3232,3.1549,2.9576,2.7214,2.5386,2.3736,2.1783,1.9924,1.8231,1.6272,1.4099,1.0792,0.5826,0.1597,-0.0652,-0.2742,-0.4361,-0.6051,-0.8013,-0.9268,-1.0276,-1.2083,-1.3798,-1.6558,-1.8694,-1.7743,-1.8002,6.2088,6.2038,6.1994,6.2031,6.2009,6.1841,6.178,6.1756,6.1693,6.1641,6.1589,6.1626,6.1562,6.1544,6.2004,6.1892,6.1563,6.182,6.1461,6.1075,6.1424,6.1434,6.1434,6.1958,6.1605,6.0694,6.0323,6.057,6.1149,6.1874,6.251,6.3197,6.4055,6.4488,6.4271,6.4524,6.4524,6.4524,6.5066,6.52,6.4267,6.4615,6.3765,6.3107,6.2044,6.1657,6.0909,5.9872,5.8879,5.7917,5.6597,5.5569,5.5428,5.3736,5.3379,5.5045,5.3848,5.3539,5.4078,5.4175,5.3511,5.2872,5.278,5.2225,5.1264,5.1034,5.0417,4.9818,4.9501,4.8877,4.7883,4.6708,4.6343,4.6995,4.6769,4.6089,4.477,4.4517,4.403,4.3279,4.2696,4.2184,4.0396,3.9523,3.818,3.6511,3.4833,3.3016,3.088,2.9489,2.7642,2.5069,2.2956,2.0483,1.8317,1.6577,1.4864,1.2527,1.0004,0.6478,0.1489,-0.331,-0.5021,-0.665,-0.8957,-1.1122,-1.2949,-1.4493,-1.5318,-1.6205,-1.7604,-1.9319,-1.9956,-1.9736,-2.0835,6.3717,6.3576,6.3086,6.2917,6.2931,6.2931,6.2798,6.2847,6.2734,6.2316,6.2706,6.2855,6.236,6.2688,6.2775,6.2887,6.2403,6.2437,6.2017,6.1301,6.1254,6.2388,6.3635,6.4646,6.4209,6.3024,6.2414,6.2819,6.3219,6.3891,6.4474,6.4877,6.589,6.6242,6.5896,6.5607,6.5679,6.5282,6.5174,6.503,6.4767,6.3855,6.3377,6.3305,6.2041,6.1316,6.0959,5.9781,5.8461,5.6786,5.5655,5.5149,5.5093,5.3379,5.3085,5.4452,5.3897,5.3764,5.4564,5.4619,5.4319,5.3575,5.2431,5.2276,5.0805,5.0168,4.9184,4.8229,4.758,4.6993,4.6167,4.5854,4.5888,4.5888,4.6097,4.5772,4.5049,4.4762,4.4116,4.2875,4.226,4.0924,3.9211,3.7954,3.6891,3.493,3.3287,3.1608,2.8769,2.6749,2.3557,2.1586,1.9225,1.6779,1.4761,1.32,1.1094,0.8537,0.4892,0.117,-0.3722,-0.7721,-0.9087,-1.0783,-1.3511,-1.6043,-1.7897,-1.8905,-1.9854,-2.0489,-2.1827,-2.2738,-2.2901,-2.2473,-2.3628,6.2374,6.2099,6.0502,6.0209,6.0276,6.0314,6.0453,5.9963,6.0038,6.0338,6.0185,6.0597,6.0222,6.026,6.1784,6.1597,6.0164,6.1402,6.1963,6.2196,6.2982,6.3785,6.3968,6.4073,6.408,6.3673,6.3489,6.398,6.5059,6.5201,6.5709,6.6324,6.6425,6.5981,6.4714,6.4199,6.3513,6.261,6.2249,6.2285,6.2277,6.1682,6.1424,6.1376,6.0695,6.0234,6.0027,5.9488,5.8138,5.5981,5.5772,5.5693,5.5836,5.5813,5.4843,5.4673,5.4058,5.3376,5.2254,5.2508,5.1759,5.1316,5.0263,4.8268,4.8587,4.7721,4.6819,4.6629,4.6682,4.6743,4.6832,4.6686,4.6905,4.7195,4.6348,4.5633,4.4954,4.4434,4.3287,4.1669,4.0585,3.9241,3.6288,3.5801,3.4415,3.2373,3.0038,2.7783,2.5263,2.2226,1.9318,1.6637,1.4012,1.1998,1.0705,0.8939,0.6393,0.3193,-0.1058,-0.5193,-0.9689,-1.183,-1.3235,-1.5702,-1.8282,-2.0835,-2.2533,-2.2381,-2.2829,-2.3611,-2.4838,-2.648,-2.6593,-2.5826,-2.6094,6.3853,6.3758,6.3056,6.2757,6.2796,6.2796,6.2715,6.2591,6.2612,6.3124,6.3532,6.2873,6.2981,6.3709,6.3387,6.29,6.245,6.29,6.3281,6.3495,6.4133,6.4782,6.5515,6.543,6.585,6.6673,6.6348,6.6411,6.686,6.6398,6.6187,6.6261,6.5637,6.4687,6.4136,6.2285,6.1563,6.1672,6.0805,6.0682,6.1035,6.0324,5.9637,5.9306,5.826,5.7557,5.7272,5.712,5.6542,5.568,5.5533,5.5596,5.5583,5.5384,5.5096,5.4819,5.4537,5.4324,5.4169,5.3638,5.3315,5.2309,5.107,4.9955,4.8789,4.745,4.6605,4.6612,4.6455,4.63,4.6416,4.633,4.6481,4.6938,4.6319,4.5784,4.5132,4.4183,4.2677,4.1106,4.0177,3.78,3.468,3.3062,3.162,2.7673,2.4866,2.224,2.0089,1.7064,1.4579,1.1981,0.9107,0.7322,0.6378,0.4043,0.1497,-0.2761,-0.7111,-1.1103,-1.4169,-1.5732,-1.683,-1.9225,-2.082,-2.3109,-2.4753,-2.4902,-2.4979,-2.6006,-2.6746,-2.7458,-2.7436,-2.7299,-2.7155,6.4118,6.3998,6.3543,6.3263,6.3238,6.3238,6.3142,6.2997,6.2997,6.3871,6.4889,6.4119,6.459,6.5476,6.4911,6.431,6.4252,6.3783,6.414,6.4986,6.5193,6.6039,6.7293,6.7512,6.788,6.8161,6.7306,6.6696,6.6315,6.5316,6.4806,6.4348,6.2956,6.2219,6.1778,6.0034,5.935,6.0292,5.9382,5.9144,5.9794,5.888,5.8245,5.7877,5.6812,5.5966,5.5512,5.5349,5.5369,5.5404,5.5369,5.5334,5.5319,5.5063,5.494,5.494,5.4993,5.5182,5.5322,5.5139,5.4543,5.3575,5.2421,5.1343,5.0401,4.8629,4.7499,4.7353,4.6623,4.6096,4.6089,4.5991,4.5991,4.5998,4.5878,4.5618,4.5224,4.448,4.27,4.0585,3.873,3.6008,3.2142,2.8793,2.6872,2.3131,2.0217,1.7309,1.473,1.1535,0.8731,0.6184,0.4117,0.1699,-0.0843,-0.3584,-0.6123,-0.9808,-1.3136,-1.6568,-1.796,-1.9342,-2.0199,-2.1498,-2.2837,-2.4439,-2.5951,-2.6606,-2.6606,-2.7214,-2.733,-2.7459,-2.7533,-2.74,-2.722,6.2643,6.2605,6.0821,6.0394,6.0556,6.0476,6.003,6.0114,6.0029,6.1156,6.2677,6.2292,6.3066,6.4384,6.424,6.4521,6.4282,6.3476,6.4269,6.6492,6.6884,6.7791,6.8839,6.8801,6.8216,6.6825,6.5226,6.4407,6.4247,6.2799,6.1765,6.0779,5.97,5.8975,5.7918,5.7772,5.7553,5.7662,5.7186,5.7183,5.7362,5.7202,5.7117,5.7149,5.6704,5.6207,5.5789,5.5399,5.5252,5.5252,5.5217,5.5252,5.5166,5.5063,5.5114,5.5028,5.5369,5.5279,5.4905,5.4743,5.4363,5.328,5.2523,5.2195,5.17,4.9807,4.8202,4.7851,4.6945,4.6213,4.6096,4.6249,4.5998,4.4872,4.5096,4.527,4.5142,4.5142,4.3762,3.9716,3.493,3.1876,2.8892,2.4491,2.0373,1.7726,1.5052,1.1933,0.8329,0.4685,0.1792,-0.1051,-0.274,-0.413,-0.7509,-1.119,-1.3775,-1.617,-1.8598,-2.0027,-2.1094,-2.19,-2.2581,-2.4023,-2.531,-2.565,-2.719,-2.762,-2.7667,-2.7164,-2.7326,-2.7392,-2.7137,-2.6893,-2.6842,6.3136,6.363,6.1201,6.0668,6.1501,6.0514,5.993,5.9809,5.9809,6.073,6.1742,6.0985,6.1439,6.2652,6.178,6.2442,6.4559,6.5246,6.601,6.7035,6.8149,6.828,6.7806,6.7673,6.6808,6.5267,6.4572,6.4166,6.371,6.2863,6.2364,6.2089,6.0622,5.9747,5.9056,5.6136,5.5155,5.5599,5.3793,5.366,5.5292,5.5433,5.5858,5.6515,5.6332,5.5966,5.5754,5.5384,5.5252,5.5252,5.5469,5.5249,5.4589,5.422,5.3926,5.3721,5.4269,5.4504,5.4296,5.4715,5.4279,5.2666,5.2742,5.2531,5.1584,4.9983,4.8553,4.7556,4.6778,4.6213,4.5929,4.5749,4.5554,4.5142,4.4892,4.465,4.4149,4.1772,3.9498,3.6887,3.0788,2.4513,2.0288,1.6005,1.2046,0.796,0.4304,0.165,-0.0618,-0.3646,-0.6512,-0.7398,-0.8046,-0.9406,-1.2263,-1.6989,-2.0649,-2.0904,-2.2607,-2.2652,-2.3223,-2.3899,-2.4906,-2.6505,-2.7311,-2.7501,-2.7791,-2.8218,-2.7856,-2.6915,-2.6872,-2.7044,-2.6796,-2.6329,-2.6688,6.1998,6.2804,6.1358,6.1395,6.2306,6.1927,6.1267,6.0706,6.0744,6.1376,6.202,6.1218,6.1641,6.3045,6.0812,6.132,6.3832,6.4924,6.5689,6.6312,6.723,6.7118,6.6095,6.6002,6.5137,6.365,6.3387,6.3044,6.2239,6.1179,6.0717,6.0457,5.9065,5.8535,5.83,5.5182,5.407,5.5202,5.2855,5.238,5.4568,5.4637,5.5358,5.6761,5.6481,5.607,5.5658,5.5214,5.4889,5.4712,5.4976,5.4558,5.3485,5.3005,5.2698,5.2494,5.3087,5.3548,5.3724,5.4471,5.3967,5.1921,5.2344,5.21,5.0592,4.9237,4.819,4.7429,4.6664,4.5793,4.527,4.4933,4.4762,4.4366,4.3115,4.186,4.0967,3.7985,3.5155,3.3316,2.7475,1.9588,1.4089,0.8089,0.3685,-0.0103,-0.4356,-0.6979,-0.856,-1.0616,-1.2446,-1.2882,-1.3232,-1.4346,-1.7503,-2.3278,-2.6275,-2.6154,-2.5937,-2.6328,-2.5529,-2.6072,-2.7765,-2.9457,-2.909,-2.9395,-3.1332,-3.1479,-2.9734,-2.8501,-2.6497,-2.6613,-2.6593,-2.6244,-2.6552,5.9519,5.9947,6.1448,6.2114,6.209,6.3412,6.3324,6.1737,6.2166,6.2314,6.2262,6.2377,6.3287,6.4118,6.1267,6.0858,6.2146,6.2491,6.3357,6.4529,6.4833,6.4719,6.4471,6.4382,6.3516,6.1861,6.1769,6.1055,5.9665,5.7955,5.6882,5.7012,5.5815,5.5296,5.6235,5.4884,5.4453,5.5508,5.3891,5.3641,5.4714,5.4746,5.5546,5.7113,5.7101,5.6402,5.5504,5.4956,5.4431,5.379,5.3812,5.3106,5.1731,5.156,5.141,5.1354,5.1734,5.2299,5.2661,5.3393,5.2927,5.0832,5.1044,5.0829,4.8983,4.7789,4.7132,4.7386,4.5091,4.3976,4.3593,4.2718,4.2373,4.1994,3.9467,3.7864,3.755,3.2922,3.0485,2.8122,2.2928,1.5334,0.7074,0.1004,-0.3313,-0.6224,-1.0136,-1.351,-1.4275,-1.5709,-1.7271,-1.8418,-2.0169,-2.3184,-2.8268,-3.0237,-3.132,-3.0763,-2.9749,-3.0752,-2.9345,-2.8529,-3.0569,-3.193,-3.1971,-3.2754,-3.4334,-3.4319,-3.3178,-3.1096,-2.9286,-2.7841,-2.8619,-2.7087,-2.6901,6.02,6.1473,6.3135,6.3135,6.1963,6.1232,6.0612,6.0417,6.159,6.1459,6.0518,6.1737,6.1882,6.0947,6.0095,5.984,6.0374,6.1552,6.2337,6.2831,6.4156,6.4066,6.2917,6.2841,6.1951,6.052,6.0237,5.9986,5.9502,5.8891,5.8745,5.8707,5.8219,5.8081,5.8094,5.6498,5.5767,5.5887,5.4255,5.4069,5.5301,5.5253,5.5582,5.6551,5.656,5.6207,5.5547,5.5434,5.4572,5.2944,5.2875,5.1816,4.9637,4.9447,4.9213,4.8809,4.9257,4.907,4.7675,4.9591,4.9859,4.7994,4.9139,4.898,4.6918,4.6052,4.5403,4.4003,3.8883,3.7256,3.8999,3.709,3.5174,3.4888,3.3902,3.2983,3.1984,2.2869,1.6752,1.5813,1.0189,0.2343,-0.4306,-0.8635,-1.1544,-1.35,-1.6357,-1.8829,-2.0436,-2.1639,-2.2627,-2.2928,-2.4544,-2.7225,-3.0343,-3.3034,-3.3059,-3.2453,-3.1564,-3.1709,-3.2531,-3.1371,-3.2216,-3.623,-3.6549,-3.7358,-3.8953,-4.006,-3.9736,-3.6673,-3.4243,-3.2661,-3.1388,-3.1706,-3.0985,5.7672,5.8668,5.9786,6.0421,6.0836,6.0497,6.0377,6.0511,6.1507,6.1019,5.9746,6.054,6.0452,5.9336,5.8764,5.8488,5.8512,5.8796,5.9006,5.91,6.0136,6.0126,5.9165,5.9148,5.8671,5.766,5.7622,5.754,5.7612,5.8209,5.8914,5.9485,5.9598,5.942,5.9077,5.7461,5.6488,5.6176,5.4524,5.461,5.6392,5.6434,5.6349,5.6366,5.6377,5.6024,5.5299,5.5163,5.4575,5.315,5.2213,5.0808,4.8694,4.7768,4.6933,4.6035,4.6974,4.7522,4.7039,4.7564,4.7275,4.5764,4.6336,4.5661,4.3245,4.1858,4.0273,3.796,3.3966,3.2507,3.5287,3.2142,2.9434,2.8695,2.3945,2.0558,2.0472,1.0231,0.319,0.2754,-0.2802,-0.8439,-1.201,-1.5922,-1.8794,-2.0,-2.1981,-2.3558,-2.4737,-2.7261,-2.823,-2.8189,-3.0435,-3.3009,-3.5137,-3.6536,-3.6911,-3.6219,-3.4738,-3.3379,-3.478,-3.4028,-3.5292,-4.0184,-3.9386,-3.9754,-4.3038,-4.4056,-4.3128,-3.9013,-3.6724,-3.4626,-3.468,-3.4592,-3.5196,5.3386,5.3636,5.4136,5.5793,5.8648,6.0114,6.0864,6.1131,6.1297,6.0468,5.884,5.8849,5.8745,5.865,5.7406,5.6874,5.6761,5.5315,5.4735,5.4823,5.4757,5.4741,5.492,5.4897,5.4738,5.4742,5.4841,5.4987,5.4975,5.6271,5.7753,5.9281,5.9646,5.9547,5.9176,5.7875,5.7017,5.6583,5.5128,5.5545,5.7922,5.8045,5.7551,5.6481,5.6473,5.5906,5.4871,5.4626,5.4323,5.3596,5.1732,5.0035,4.8554,4.6749,4.5082,4.3654,4.5055,4.6651,4.7966,4.6265,4.4226,4.3359,4.2089,4.0747,3.8782,3.5661,3.2548,3.005,2.884,2.8258,3.0364,2.6596,2.3359,2.1536,1.269,0.4788,0.3844,-0.4091,-0.9848,-0.9848,-1.3388,-1.6412,-1.7627,-2.0947,-2.4069,-2.4401,-2.622,-2.7668,-2.8454,-3.1293,-3.308,-3.3438,-3.6085,-3.914,-4.0136,-4.2173,-4.1383,-4.0324,-3.9509,-3.847,-3.7548,-3.7319,-3.7933,-4.239,-4.1952,-4.2253,-4.5141,-4.6331,-4.4309,-4.0775,-3.7763,-3.4901,-3.581,-3.6422,-3.8025,5.2099,5.3497,5.3661,5.4253,5.518,5.5672,5.6612,5.7686,5.7744,5.6865,5.5554,5.5346,5.5344,5.5344,5.5066,5.4897,5.4841,5.4606,5.4459,5.4474,5.461,5.4641,5.4644,5.4625,5.4651,5.4644,5.4721,5.4705,5.467,5.5093,5.613,5.7689,5.9006,5.9533,5.9246,5.892,5.8688,5.8494,5.8331,5.8424,5.8967,5.8767,5.8173,5.7225,5.7038,5.6509,5.5449,5.4871,5.384,5.2264,5.1293,4.9855,4.8009,4.7372,4.6076,4.3838,4.3922,4.3529,4.2048,3.9418,3.6837,3.4341,3.4228,3.3671,3.1848,2.6026,2.2013,2.1387,1.676,1.4685,1.7333,1.4528,1.0035,0.58,0.2248,-0.1381,-0.582,-1.3856,-1.9401,-1.9813,-2.3092,-2.6181,-2.702,-2.6082,-2.5876,-2.7786,-2.9364,-3.0998,-3.2489,-3.3513,-3.5533,-3.6974,-3.8488,-3.9681,-4.0497,-4.1138,-4.1366,-4.1762,-4.0444,-4.0481,-4.1815,-4.1999,-4.3185,-4.4775,-4.5705,-4.6198,-4.6136,-4.597,-4.4838,-4.3376,-4.1115,-4.0016,-4.0179,-4.0283,-4.1825,4.9762,5.0776,5.0984,5.1286,5.1609,5.2451,5.3845,5.5298,5.3643,5.314,5.3698,5.3028,5.3187,5.3875,5.3076,5.2883,5.3017,5.2234,5.1899,5.2063,5.2185,5.2218,5.2231,5.2282,5.2306,5.2318,5.2382,5.2415,5.2466,5.3264,5.4095,5.5138,5.742,5.8918,5.9428,5.9546,5.9525,5.9322,5.6464,5.4745,5.4334,5.4867,5.4665,5.3734,5.5602,5.6215,5.5609,5.4767,5.3884,5.2853,5.086,4.903,4.7394,4.5808,4.3468,4.0509,4.0302,3.8918,3.588,3.478,3.3293,3.112,3.0654,2.8055,2.1878,1.7228,1.4924,1.5125,1.024,0.8139,1.1171,0.6896,0.2046,-0.2588,-0.7134,-1.1803,-1.759,-2.4635,-2.886,-2.9177,-3.1018,-3.2729,-3.3803,-3.1684,-3.0692,-3.0979,-3.1662,-3.2717,-3.4235,-3.5809,-3.7549,-3.9372,-3.9933,-4.0038,-4.0228,-4.0262,-4.0923,-4.2209,-4.1739,-4.2724,-4.5444,-4.61,-4.6679,-4.8102,-4.778,-4.765,-4.7813,-4.5945,-4.4782,-4.4202,-4.3503,-4.264,-4.248,-4.2892,-4.3713,4.7481,4.7614,4.7827,4.8169,4.8633,5.0101,5.1717,5.3077,4.9866,4.9989,5.2449,5.1122,5.1404,5.2795,5.1283,5.0842,5.12,4.954,4.8907,4.9165,4.9255,4.9269,4.9269,4.9436,4.9503,4.9466,4.9566,4.9598,4.9838,5.1209,5.2133,5.2768,5.524,5.7425,5.888,5.9108,5.9082,5.8853,5.3238,4.9905,4.9205,5.0693,5.0774,4.9461,5.3614,5.5576,5.4641,5.3993,5.3448,5.264,4.9489,4.6955,4.5475,4.2414,3.9316,3.6217,3.5871,3.4066,3.0169,3.0371,3.0167,2.8617,2.7256,2.1744,1.094,0.9369,0.8704,0.7635,0.4846,0.4328,0.5726,0.1253,-0.3741,-0.8323,-1.5628,-2.2926,-2.8611,-3.3452,-3.5981,-3.5941,-3.6587,-3.6372,-3.6268,-3.617,-3.5392,-3.4523,-3.4109,-3.4328,-3.5501,-3.7631,-3.948,-4.0091,-4.0236,-4.012,-3.9879,-3.977,-4.0594,-4.2485,-4.2995,-4.416,-4.6942,-4.7647,-4.8294,-4.9787,-4.8005,-4.716,-4.7675,-4.5326,-4.4048,-4.4226,-4.3697,-4.2859,-4.2826,-4.399,-4.47,4.7276,4.7512,4.7643,4.7863,4.815,4.8546,4.8947,4.9258,0.0,0.0,0.0,4.8794,4.8877,4.9168,4.9089,4.9122,4.9235,4.8968,4.8819,4.8864,4.8907,4.8782,4.862,4.9014,4.911,4.8937,4.9269,4.9408,4.9488,4.984,5.0784,5.227,5.2852,5.4076,5.5695,5.5738,5.5667,5.5439,5.4331,5.3414,5.2945,5.4434,5.2973,4.8379,5.3746,5.4516,4.9907,5.1481,5.0511,4.6423,4.4038,4.1351,3.8023,3.7193,3.5816,3.3685,3.3435,3.1046,2.5688,2.3174,2.0709,1.7767,1.5486,1.1247,0.429,0.2932,0.0314,-0.5068,-0.6658,-0.7305,-0.6884,-0.7978,-1.1744,-1.9686,-2.2012,-2.6394,-3.4197,-3.6539,-3.6819,-3.6819,-3.6689,-3.6587,-3.6587,-3.6717,-3.6652,-3.6462,-3.6241,-3.6603,-3.7029,-3.7625,-3.8238,-3.8454,-3.8583,-3.8664,-3.9139,-3.9378,-4.0068,-4.1831,-4.3118,-4.4192,-4.5359,-4.6544,-4.6868,-4.6703,-4.6,-4.5463,-4.4635,-4.4025,-4.3554,-4.3553,-4.3389,-4.3192,-4.3291,-4.473,-4.6131,4.6305,4.6432,4.6544,4.6882,0.0,4.7494,4.7429,4.7337,4.7574,4.7743,4.7743,4.7707,4.7832,4.7904,4.7904,4.8114,4.8472,4.8368,4.8357,4.8485,4.8571,4.8534,4.8431,4.8819,4.8907,4.8841,4.9092,4.9306,4.9348,4.9436,4.9991,5.1015,5.1856,5.192,5.1291,5.3679,5.4045,5.2314,5.0292,4.9114,4.8839,5.0105,4.9471,4.6846,5.1964,0.0,0.0,0.0,0.0,0.0,0.0,0.0,0.0,0.0,0.0,2.6704,2.555,2.2906,1.8302,1.6832,1.5265,1.301,1.1715,0.8184,0.163,-0.1123,-0.4085,-0.7745,-1.0477,-1.1548,-1.0504,-1.1338,-1.4417,-2.0331,-2.2698,-2.6498,-3.3248,-3.5991,-3.6983,-3.704,-3.691,-3.6808,-3.6808,-3.7085,-3.7186,-3.7113,-3.7231,-3.7407,-3.7521,-3.7736,-3.795,-3.8063,-3.8233,-3.8512,-3.9004,-3.9311,-4.0193,-4.202,-4.3307,-4.4564,-4.6038,-4.6909,-4.7259,-4.6662,-4.6048,-4.5534,-4.4741,-4.4014,-4.3531,-4.3444,-4.3476,-4.3717,-4.5029,-4.6641,-4.8006,4.5876,4.5886,4.5609,4.5949,4.6552,4.6512,4.6467,4.6451,4.6877,4.7097,4.7169,4.7205,4.7346,4.7473,4.7379,4.7578,4.8101,4.7924,4.7918,4.8178,4.8261,4.8261,4.8307,4.8596,4.876,4.8714,4.9086,4.924,4.9339,4.9339,4.9464,4.9744,5.1104,5.0457,4.8211,0.0,0.0,0.0,4.6459,4.5002,4.4729,4.5842,4.5889,4.4854,4.9934,0.0,4.8351,4.7989,4.5762,4.131,3.7965,0.0,0.0,0.0,0.0,0.0,0.0,0.0,0.0,0.0,0.0,0.0,0.9415,0.6624,0.0862,-0.3206,-0.6201,-0.7991,-1.1688,-1.3293,-1.1961,-1.3469,-1.6068,-1.9528,-2.2986,-2.6943,-3.174,-3.5193,-3.7158,-3.7158,-3.7158,-3.7158,-3.713,-3.7348,-3.742,-3.7202,-3.7492,-3.7664,-3.7636,-3.795,-3.8262,-3.8512,-3.8651,-3.8858,-3.9131,-3.9644,-4.0731,-4.2428,-4.3462,-4.4548,-4.621,-4.6839,-4.6988,-4.7004,-4.6288,-4.5513,-4.5392,-4.4562,-4.3712,-4.3745,-4.3944,-4.4756,-4.6989,-4.871,-4.9926,4.733,4.7447,4.6059,4.5558,4.5645,4.5304,4.5539,4.6295,4.6411,4.6609,4.7058,4.7023,4.7096,4.7169,4.7448,4.7611,4.7697,4.7765,4.7832,4.7894,4.8021,4.7936,4.7784,4.8446,4.8667,4.8483,4.8966,4.9166,4.9185,4.9185,4.931,4.9408,4.9729,4.9773,4.9484,4.9867,4.8571,4.5657,4.7755,4.8638,4.8193,4.8875,4.7304,4.3752,4.9308,5.0374,4.5967,4.5002,4.2296,3.7255,3.1238,2.4954,1.8519,1.7465,1.5733,0.0,1.2362,0.0,0.0,0.0,0.0,0.0,0.0,0.0,0.0,-0.2664,-0.6774,-1.106,-1.3696,-1.5629,-1.6797,-1.7838,-2.0142,-2.3974,-2.7536,-3.0662,-3.325,-3.5699,-3.7158,-3.7158,-3.7158,-3.7158,-3.713,-3.7376,-3.7492,-3.7492,-3.7664,-3.785,-3.8133,-3.8344,-3.8582,-3.8789,-3.8887,-3.9237,-3.9907,-4.0362,-4.1175,-4.2409,-4.3006,-4.3232,-4.4267,-4.4375,-4.4342,-4.4396,-4.4403,-4.4256,-4.4189,-4.4298,-4.4233,-4.4367,-4.5374,-4.6829,-4.8639,-5.0441,-5.17,4.734,4.6666,4.609,4.4941,4.3537,4.3656,4.4165,4.4983,4.5291,4.5723,4.6172,4.6213,4.6219,4.6305,4.6467,4.6583,4.6661,4.6771,4.6954,4.7275,4.7379,4.7448,4.7657,4.827,4.8508,4.8415,4.8923,4.9183,4.9183,4.9183,4.924,4.9348,4.9273,4.8243,4.6365,4.8256,4.8509,4.6902,4.8727,4.9419,4.8929,4.8961,4.7853,4.5598,4.6594,4.5292,4.1318,3.9249,3.5892,3.1198,2.6033,2.1281,1.7131,1.2801,0.996,0.0,0.0,0.0,0.0,0.0,0.0,0.0,0.0,0.0,0.0,0.0,-0.5798,-0.8613,-1.2759,-1.5364,-1.5393,-1.8423,-2.0485,-2.0613,-2.6081,-3.0116,-3.0938,-3.4294,-3.6723,-3.7045,-3.7158,-3.7202,-3.7275,-3.7492,-3.7593,-3.7593,-3.795,-3.8233,-3.8443,-3.876,-3.9131,-3.9304,-3.9468,-3.9836,-4.0262,-4.1112,-4.1946,-4.284,-4.3419,-4.377,-4.4045,-4.4045,-4.4097,-4.4148,-4.4199,-4.4301,-4.4418,-4.5092,-4.5853,-4.6311,-4.7907,-4.9736,-5.0838,-5.2338,-5.3601,4.7095,4.5743,4.4659,4.3095,4.1555,4.1912,4.2871,4.4183,4.4544,4.5017,4.5505,4.5505,4.4967,4.405,4.3818,4.4104,4.4879,4.5394,4.5983,4.6609,4.6651,4.6989,4.7584,4.797,4.8325,4.8494,4.8544,4.877,4.9126,4.8672,4.8343,4.8137,4.7446,4.5632,4.2963,4.5616,4.7241,4.763,4.8807,4.91,4.8416,4.7361,4.664,4.618,4.2913,4.0011,3.7449,3.4261,3.0642,2.6451,2.1931,1.8185,1.5259,0.968,0.0,0.0,0.0,0.0,0.0,0.0,0.0,0.0,0.0,0.0978,0.3824,0.0,-0.3552,0.0,-1.0151,-1.4089,-1.4791,-1.7622,0.0,0.0,-2.4671,-2.894,-2.767,-3.2305,-3.5865,-3.6354,-3.6835,-3.7231,-3.7492,-3.7664,-3.7765,-3.7879,-3.8303,-3.8552,-3.876,-3.9169,-3.9572,-3.9872,-4.0163,-4.0357,-4.0739,-4.1716,-4.272,-4.3493,-4.4132,-4.46,-4.4501,-4.4452,-4.4501,-4.46,-4.4567,-4.4665,-4.4776,-4.6135,-4.7448,-4.9035,-5.0718,-5.2321,-5.2945,-5.388,-5.48,4.6927,4.5437,4.0553,3.9106,4.0016,4.0181,4.1979,4.4776,4.4858,4.5155,4.547,4.5505,4.3229,3.9382,3.8404,0.0,4.1836,4.362,4.5034,4.6137,4.6137,4.6544,4.7265,4.7552,4.8059,4.87,4.7376,4.7554,4.9053,4.7281,4.5767,4.4709,4.2683,4.1436,4.1078,4.091,4.239,4.5343,4.7425,4.7934,4.6809,4.3908,4.2378,4.2552,3.8435,3.6143,3.5994,3.2196,2.8486,2.4915,1.9408,1.3492,0.76,0.0,0.0,0.0,0.0,0.0,0.0,0.0,0.0,0.0,0.0,0.0,0.0,0.0,0.0,0.0,-0.5548,0.0,-1.8286,-1.613,0.0,0.0,0.0,-2.857,-2.4365,-3.0008,-3.4255,-3.4277,0.0,0.0,-3.742,-3.7593,-3.7879,-3.8344,-3.8413,-3.876,-3.9475,-3.9608,-3.9841,-4.0423,-4.0581,-4.0771,-4.1206,-4.2152,-4.3147,-4.435,-4.481,-4.4892,-4.4858,-4.4844,-4.4892,-4.4892,-4.4892,-4.494,-4.5043,-4.6398,-4.8953,-5.3099,-5.3146,-5.2875,-5.4245,-5.4767,-5.501,4.1491,3.7411,3.5268,3.4286,3.4136,3.4303,3.6628,4.0339,4.0474,4.1105,4.1871,4.0179,3.7467,3.4062,3.1956,0.0,0.0,0.0,4.1497,4.3435,4.431,4.5842,4.763,4.7963,4.8288,4.8534,4.8088,4.8172,4.8694,4.7867,4.2975,3.4248,0.0,0.0,3.2015,3.5736,3.8647,4.0728,4.5071,4.58,4.2739,4.2625,4.1176,3.8236,3.4221,3.1853,3.1462,2.7519,2.3739,2.039,1.5747,1.1611,0.0,0.0,0.0,0.0,0.0,0.0,0.0,0.0,0.0,0.0,0.0,0.5946,0.7307,0.0,0.0,0.0,-0.2277,-0.7955,-1.4147,-1.6447,0.0,0.0,0.0,0.0,0.0,0.0,0.0,-3.281,-3.3829,-3.4842,-3.6839,-3.7877,-3.8443,-3.8483,-3.8828,-3.9237,-3.9608,0.0,-4.0675,-4.0927,-4.1269,-4.1482,-4.1723,-4.1847,-4.2466,-4.3948,-4.479,-4.5316,-4.5177,-4.513,-4.513,-4.513,-4.513,-4.5211,-4.5431,-4.6636,-4.8643,-5.1355,-5.211,-5.2841,-5.4504,-5.4993,-5.5114,3.3584,0.0,0.0,0.0,0.0,2.904,3.1658,3.5579,3.5794,3.6255,3.6626,3.4292,0.0,0.0,0.0,0.0,0.0,0.0,3.8218,4.0305,4.3185,4.5736,4.7765,4.7934,4.8142,4.8389,4.8088,4.7401,4.638,4.3948,3.6992,2.5883,0.0,0.0,0.0,0.0,3.4438,3.6277,4.1222,4.2149,3.8604,3.9939,3.8369,3.3511,2.6926,2.3972,2.5169,1.9214,1.5201,1.3862,1.0844,0.0,0.0,0.0,0.0,0.0,0.0,0.0,0.0,0.0,0.0,0.0,0.0,0.0,0.0,0.0,0.0,0.0,0.0,0.0,-0.8752,-1.4988,-1.7565,0.0,0.0,0.0,0.0,0.0,0.0,0.0,0.0,0.0,-3.512,-3.7328,-3.8723,0.0,0.0,-3.9704,-3.9937,-4.0548,-4.1176,-4.1632,-4.1669,0.0,-4.1905,-4.1743,-4.2005,-4.3192,-4.4659,-4.545,-4.4867,-4.5098,-4.527,-4.4753,-4.5132,-4.5408,-4.5488,-4.5994,-4.7238,-4.9389,-5.0089,-5.0923,-5.2979,-5.4054,-5.4642,0.0,0.0,0.0,0.0,0.0,0.0,0.0,0.0,3.1432,3.0856,0.0,2.8835,0.0,0.0,0.0,0.0,0.0,3.1235,0.0,0.0,4.2936,4.6399,4.7051,4.6942,4.7448,4.8231,4.6363,4.4169,4.1296,3.3412,0.0,0.0,0.0,0.0,0.0,0.0,2.9497,3.1993,3.549,3.6504,3.494,3.4775,3.2599,2.7954,1.5251,1.1208,1.664,0.6854,0.226,0.553,0.4447,0.0,0.0,0.0,0.0,0.0,0.0,0.0,0.0,0.0,0.0,0.0,0.0,0.0,0.0,0.0,0.0,0.0,0.0,0.0,0.0,-1.063,0.0,0.0,0.0,0.0,0.0,0.0,0.0,0.0,0.0,0.0,-3.226,-3.5875,-3.8514,-3.9624,0.0,0.0,0.0,0.0,-4.1205,-4.2673,-4.1666,-4.0943,-4.1723,-4.217,-4.2495,-4.2609,0.0,0.0,-4.3632,-4.4672,-4.5148,-4.3701,-4.4663,-4.5499,-4.4796,-4.3743,-4.4611,-4.8556,-4.748,-4.695,-4.9597,-5.1341,-5.2867,0.0,0.0,0.0,0.0,0.0,0.0,0.0,0.0,0.0,2.4829,0.0,2.2571,0.0,0.0,0.0,0.0,0.0,0.0,0.0,0.0,3.5096,3.7466,3.7642,3.9216,3.8542,0.0,3.5218,3.2742,0.0,0.0,0.0,0.0,0.0,0.0,0.0,0.0,2.2883,2.524,2.9939,3.064,2.7074,2.2611,1.8159,1.366,0.3365,0.0425,0.5976,0.3942,0.319,0.0,0.0,0.0,0.0,0.0,0.0,0.0,0.0,0.0,0.0,0.0,0.0,0.0,0.0,0.0,0.0,0.0,0.0,0.0,0.0,0.0,0.0,0.0,-1.1821,0.0,0.0,0.0,0.0,0.0,0.0,0.0,0.0,0.0,-2.8963,-3.4084,-3.7767,-3.8946,-4.0243,-4.1205,-4.1684,0.0,0.0,0.0,0.0,0.0,0.0,0.0,-4.0453,-4.2358,-4.1139,-4.0279,-4.1735,-4.3188,-4.3936,-4.3219,0.0,0.0,-3.7291,-3.5849,-3.7978,-4.5578,-4.3845,-4.2106,-4.5219,-4.6488,-4.7226,0.0,0.0,0.0,0.0,0.0,0.0,0.0,0.0,0.0,1.8916,1.8695,0.0,0.0,0.0,0.0,0.0,0.0,0.0,0.0,0.0,0.0,0.0,3.1299,3.2926,0.0,0.0,0.0,0.0,0.0,0.0,0.0,0.0,0.0,0.0,0.0,0.0,1.942,2.0418,2.5054,2.4361,1.7803,1.2545,0.6927,0.1045,-0.4373,-0.6537,-0.5106,0.0,0.0,0.0,0.0,0.0,0.0,0.0,0.0,0.0,0.0,0.0,0.0,0.0,0.0,0.0,0.0,0.0,0.0,0.0,0.0,0.0,0.0,0.0,0.0,0.0,-0.7748,0.0,0.0,0.0,0.0,0.0,0.0,0.0,0.0,0.0,0.0,0.0,-3.5624,-3.7196,-3.9567,-4.1472,-4.2374,-4.2863,-4.3353,0.0,0.0,0.0,0.0,0.0,0.0,0.0,0.0,0.0,0.0,0.0,0.0,0.0,0.0,-3.8995,-3.0072,-3.0172,-3.3288,-3.8596,0.0,0.0,0.0,0.0,0.0,0.0,0.0,0.0,0.0,0.0,0.0,0.0,0.0,0.0,0.0,1.1978,0.0,0.0,0.9133,0.0,0.0,0.0,0.0,0.0,0.0,0.0,0.0,0.0,0.0,0.0,0.0,0.0,0.0,0.0,0.0,0.0,0.0,0.0,0.0,0.0,0.0,1.8885,1.7166,2.0256,1.7317,0.7542,0.4704,-0.0915,-0.9183,-0.8329,-1.0318,-1.6039,0.0,0.0,0.0,0.0,0.0,0.0,0.0,0.0,0.0,0.0,0.0,0.0,0.0,0.0,0.0,0.0,0.0,0.0,0.0,0.0,0.0,0.0,0.0,0.0,0.0,0.0,-0.4297,-1.0348,-1.3092,0.0,0.0,0.0,0.0,0.0,0.0,0.0,0.0,0.0,0.0,-3.7925,-4.0894,-4.2524,-4.2831,-4.3427,-4.4762,-4.3702,-4.3011,-4.3584,-4.3649,-4.2675,0.0,0.0,0.0,0.0,0.0,0.0,0.0,0.0,0.0,0.0,0.0,0.0,0.0,0.0,0.0,0.0,0.0,0.0,0.0,0.0,0.0,0.0,0.0,0.0,0.0,0.0,0.0,0.0,0.0,0.0,0.0,0.0,0.0,0.0,0.0,0.0,0.0,0.0,0.0,0.0,0.0,0.0,0.0,0.0,0.0,0.0,0.0,0.0,0.0,0.0,0.0,0.0,0.0,0.0,1.2701,0.5356,0.8237,0.6074,-0.1488,-1.0934,-1.7068,-1.9846,-2.5481,-2.7961,0.0,0.0,0.0,0.0,0.0,0.0,0.0,0.0,0.0,0.0,0.0,0.0,0.0,0.0,0.0,0.0,0.0,0.0,0.0,0.0,0.0,0.0,0.0,0.0,0.0,0.0,0.0,0.0,-0.8724,-1.1079,-1.1476,0.0,0.0,0.0,0.0,0.0,0.0,0.0,0.0,0.0,0.0,-4.174,-4.2505,-4.2686,-4.3395,-4.5315,-4.4621,-4.4279,-4.5524,-4.4131,-4.302,-4.3129,0.0,0.0,0.0,0.0,0.0,0.0,0.0,0.0,0.0,0.0,0.0,0.0,0.0,0.0,0.0,0.0,0.0,0.0,0.0,0.0,0.0,0.0,0.0,0.0,0.0,0.0,0.0,0.0,0.0,0.0,0.0,0.0,0.0,0.0,0.0,0.0,0.0,0.0,0.0,0.0,0.0,0.0,0.0,0.0,0.0,0.0,0.0,0.0,0.0,0.0,0.0,0.0,0.0,0.5611,-0.2365,-0.1304,-0.4487,-1.2343,-2.0104,-2.5724,-2.9119,-3.4627,-3.4703,0.0,0.0,0.0,0.0,0.0,0.0,0.0,0.0,0.0,0.0,0.0,0.0,0.0,0.0,0.0,0.0,0.0,0.0,0.0,0.0,0.0,0.0,0.0,0.0,0.0,0.0,0.0,0.0,-0.5176,-0.8892,-1.0326,0.0,0.0,0.0,0.0,0.0,0.0,0.0,0.0,0.0,0.0,-3.9847,-4.1669,-4.2545,0.0,0.0,-4.5179,-4.5022,-4.655,-4.5483,-4.388,-4.2283,-4.0369,0.0,0.0,0.0,0.0,0.0,0.0,0.0,0.0,0.0,0.0,0.0,0.0,0.0,0.0,0.0,0.0,0.0,0.0,0.0,0.0,0.0,0.0,0.0,0.0,0.0,0.0,0.0,0.0,0.0,0.0,0.0,0.0,0.0,0.0,0.0,0.0,0.0,0.0,0.0,0.0,0.0,0.0,0.0,0.0,0.0,0.0,0.0,0.0,0.0,0.0,0.0,0.0,0.0,-0.7252,-0.8792,-1.4212,-2.3761,-2.4577,-2.8683,-3.677,-3.7028,-3.2957,0.0,0.0,0.0,0.0,0.0,0.0,0.0,0.0,0.0,0.0,0.0,0.0,0.0,0.0,0.0,0.0,0.0,0.0,0.0,0.0,0.0,0.0,0.0,0.0,0.0,0.0,0.0,0.0,0.0,0.0,0.0,0.0,0.0,0.0,0.0,0.0,0.0,0.0,0.0,0.0,0.0,-3.5874,-4.0197,-4.1948,-4.3649,0.0,-4.5235,-4.4951,-4.6668,-4.6986,-4.4998,-3.8902,0.0,0.0,0.0,0.0,0.0,0.0,0.0,0.0,0.0,0.0,0.0,0.0,0.0,0.0,0.0,0.0,0.0,0.0,0.0,0.0,0.0,0.0,0.0,0.0,0.0,0.0,0.0,0.0,0.0,0.0,0.0,0.0,0.0,0.0,0.0,0.0,0.0,0.0,0.0,0.0,0.0,0.0,0.0,0.0,0.0,0.0,0.0,0.0,0.0,0.0,0.0,0.0,0.0,0.0,-1.5957,-1.7896,-2.2155,-2.907,-3.1929,-3.447,-3.6633,-3.6661,0.0,0.0,0.0,0.0,0.0,0.0,0.0,0.0,0.0,0.0,0.0,0.0,0.0,0.0,0.0,0.0,0.0,0.0,0.0,0.0,0.0,0.0,0.0,0.0,0.0,0.0,0.0,0.6548,0.0,0.0,0.0,0.0,0.0,0.0,0.0,0.0,0.0,0.0,0.0,0.0,0.0,0.0,-3.2787,-3.7833,-3.6958,-3.7936,0.0,0.0,-4.2219,-4.4983,-4.4605,-4.339,0.0,0.0,0.0,0.0,0.0,0.0,0.0,0.0,0.0,0.0,0.0,0.0,0.0,0.0,0.0,0.0,0.0,0.0,0.0,0.0,0.0,0.0,0.0,0.0,0.0,0.0,0.0,0.0,0.0,0.0,0.0,0.0,0.0,0.0,0.0,0.0,0.0,0.0,0.0,0.0,0.0,0.0,0.0,0.0,0.0,0.0,0.0,0.0,0.0,0.0,0.0,0.0,0.0,0.0,-0.8943,-2.158,-2.4158,-2.7903,-3.3264,-3.5577,-3.6077,-3.4741,-3.4781,-3.0979,0.0,0.0,0.0,0.0,0.0,0.0,0.0,0.0,0.0,0.0,0.0,0.0,0.0,0.0,0.0,0.0,0.0,0.0,0.0,0.0,0.0,0.0,0.0,0.0,0.0,0.0,0.0,0.0,0.0,0.0,0.0,0.0,0.0,0.0,0.0,0.0,0.0,0.0,0.0,0.0,0.0,0.0,-3.2323,-3.2455,0.0,0.0,0.0,-3.6776,-3.9306,0.0,0.0,0.0,0.0,0.0,0.0,0.0,0.0,0.0,0.0,0.0,0.0,0.0,0.0,0.0,0.0,0.0,0.0,0.0,0.0,0.0,0.0,0.0,0.0,0.0,0.0,0.0,0.0,0.0,0.0,0.0,0.0,0.0,0.0,0.0,0.0,0.0,0.0,0.0,0.0,0.0,0.0,0.0,0.0,0.0,0.0,0.0,0.0,0.0,0.0,0.0,0.0,0.0,0.0,0.0,0.0,0.0,-2.4953,-2.7938,-3.1606,-3.6253,-3.6143,-3.4725,-3.2382,-3.2186,-2.8244,0.0,0.0,0.0,0.0,0.0,0.0,0.0,0.0,0.0,0.0,0.0,0.0,0.0,0.0,0.0,0.0,0.0,0.0,0.0,0.0,0.0,0.0,0.0,0.0,0.0,0.0,0.0,0.0,0.0,0.0,0.0,0.0,0.0,0.0,0.0,0.0,0.0,0.0,0.0,0.0,0.0,-2.4503,-2.6269,-2.8456,-3.0331,0.0,0.0,-3.1032,-3.2451,-3.2731,0.0,0.0,0.0,0.0,0.0,0.0,0.0,0.0,0.0,0.0,0.0,0.0,0.0,0.0,0.0,0.0,0.0,0.0,0.0,0.0,0.0,0.0,0.0,0.0,0.0,0.0,0.0,0.0,0.0,0.0,0.0,0.0,0.0,0.0,0.0,0.0,0.0,0.0,0.0,0.0,0.0,0.0,0.0,0.0,0.0,0.0,0.0,0.0,0.0,0.0,0.0,0.0,0.0,0.0,0.0,0.0,-2.4715,-2.7361,-3.1156,-3.6067,-3.2247,-3.069,-3.2182,-3.0226,-2.5756,0.0,0.0,0.0,0.0,0.0,0.0,0.0,0.0,0.0,0.0,0.0,0.0,0.0,0.0,0.0,0.0,0.0,0.0,0.0,0.0,0.0,0.0,0.0,0.0,0.0,0.0,0.0,0.0,0.0,0.0,0.0,0.0,0.0,0.0,0.0,0.0,0.0,0.0,0.0,0.0,0.0,-2.2023,-2.641,-2.5916,0.0,0.0,0.0,0.0,-3.151,-3.1446,0.0,0.0,0.0,0.0,0.0,0.0,0.0,0.0,0.0,0.0,0.0,0.0,0.0,0.0,0.0,0.0,0.0,0.0,0.0,0.0,0.0,0.0,0.0,0.0,0.0,0.0,0.0,0.0,0.0,0.0,0.0,0.0,0.0,0.0,0.0,0.0,0.0,0.0,0.0,0.0,0.0,0.0,0.0,0.0,0.0,0.0,0.0,0.0,0.0,0.0,0.0,0.0,0.0,0.0,0.0,0.0,-2.2316,-2.3189,-2.6657,-3.3143,-3.0468,-2.8481,-2.768,-2.6046,-2.2053,0.0,0.0,0.0,0.0,0.0,0.0,0.0,0.0,0.0,0.0,0.0,0.0,0.0,0.0,0.0,0.0,0.0,0.0,0.0,0.0,0.0,0.0,0.0,0.0,0.0,0.0,0.0,0.0,0.0,0.0,0.0,0.0,0.0,0.0,0.0,0.0,0.0,0.0,0.0,0.0,-1.8938,-2.017,-2.2228,0.0,0.0,0.0,0.0,0.0,0.0,-2.5573,-2.4927,0.0,0.0,0.0,0.0,0.0,0.0,0.0,0.0,0.0,0.0,0.0,0.0,0.0,0.0,0.0,0.0,0.0,0.0,0.0,0.0,0.0,0.0,0.0,0.0,0.0,0.0,0.0,0.0,0.0,0.0,0.0,0.0,0.0,0.0,0.0,0.0,0.0,0.0,0.0,0.0,0.0,0.0,0.0,0.0,0.0,0.0,0.0,0.0,0.0,0.0,0.0,0.0,0.0,0.0,0.0,-1.9485,-1.7838,-2.0721,-2.865,-2.7611,-2.5411,-2.2328,-2.1112,-1.7679,-1.1688,0.0,0.0,0.0,0.0,0.0,0.0,0.0,0.0,0.0,0.0,0.0,0.0,0.0,0.0,0.0,0.0,0.0,0.0,0.0,0.0,0.0,0.0,0.0,0.0,0.0,0.0,0.0,0.0,0.0,0.0,0.0,0.0,0.0,0.0,0.0,0.0,0.0,0.0,0.0,-1.7948,-1.8612,0.0,0.0,0.0,0.0,0.0,0.0,0.0,0.0,-2.0018,0.0,0.0,0.0,0.0,0.0,0.0,0.0,0.0,0.0,0.0,0.0,0.0,0.0,0.0,0.0,0.0,0.0,0.0,0.0,0.0,0.0,0.0,0.0,0.0,0.0,0.0,0.0,0.0,0.0,0.0,0.0,0.0,0.0,0.0,0.0,0.0,0.0,0.0,0.0,0.0,0.0,0.0,0.0,0.0,0.0,0.0,0.0,0.0,0.0,0.0,0.0,0.0,0.0,0.0,0.0,0.0,-1.3524,-1.6088,-2.2734,-1.8549,-1.7397,-2.0009,-1.6725,-1.2598,-0.7859,0.0,0.0,0.0,0.0,0.0,0.0,0.0,0.0,0.0,0.0,0.0,0.0,0.0,0.0,0.0,0.0,0.0,0.0,0.0,0.0,0.0,0.0,0.0,0.0,0.0,0.0,0.0,0.0,0.0,0.0,0.0,0.0,0.0,0.0,0.0,0.0,0.0,0.0,-1.4788,-1.6106,0.0,0.0,0.0,0.0,0.0,0.0,0.0,0.0,-2.2493,0.0,0.0,0.0,0.0,0.0,0.0,0.0,0.0,0.0,0.0,0.0,0.0,0.0,0.0,0.0,0.0,0.0,0.0,0.0,0.0,0.0,0.0,0.0,0.0,0.0,0.0,0.0,0.0,0.0,0.0,0.0,0.0,0.0,0.0,0.0,0.0,0.0,0.0,0.0,0.0,0.0,0.0,0.0,0.0,0.0,0.0,0.0,0.0,0.0,0.0,0.0,0.0,0.0,0.0,0.0,0.0,0.0,0.0,-1.1432,-1.699,-1.4688,-1.4045,-1.5266,-1.0751,-0.6876,0.0,0.0,0.0,0.0,0.0,0.0,0.0,0.0,0.0,0.0,0.0,0.0,0.0,0.0,0.0,0.0,0.0,0.0,0.0,0.0,0.0,0.0,0.0,0.0,0.0,0.0,0.0,0.0,0.0,0.0,0.0,0.0,0.0,0.0,0.0,0.0,0.0,0.0,0.0,0.0,0.0,0.0,0.0,0.0,0.0,0.0,0.0,0.0,0.0,0.0,0.0,0.0,0.0,0.0,0.0,0.0,0.0,0.0,0.0,0.0,0.0,0.0,0.0,0.0,0.0,0.0,0.0,0.0,0.0,0.0,0.0,0.0,0.0,0.0,0.0,0.0,0.0,0.0,0.0,0.0,0.0,0.0,0.0,0.0,0.0,0.0,0.0,0.0,0.0,0.0,0.0,0.0,0.0,0.0,0.0,0.0,0.0,0.0,0.0,0.0,0.0,0.0,0.0,0.0,0.0,0.0,0.0,0.0,-0.6249,-1.027,-1.0751,-1.0633,-0.9815,-0.5175,-0.2368,0.0,0.0,0.0,0.0,0.0,0.0,0.0,0.0,0.0,0.0,0.0,0.0,0.0,0.0,0.0,0.0,0.0,0.0,0.0,0.0,0.0,0.0,0.0,0.0,0.0,0.0,0.0,0.0,0.0,0.0,0.0,0.0,0.0,0.0,0.0,0.0,0.0,0.0,0.0,0.0,0.0,0.0,0.0,0.0,0.0,0.0,0.0,0.0,-2.0485,0.0,0.0,0.0,0.0,0.0,0.0,0.0,0.0,0.0,0.0,0.0,0.0,0.0,0.0,0.0,0.0,0.0,0.0,0.0,0.0,0.0,0.0,0.0,0.0,0.0,0.0,0.0,0.0,0.0,0.0,0.0,0.0,0.0,0.0,0.0,0.0,0.0,0.0,0.0,0.0,0.0,0.0,0.0,0.0,0.0,0.0,0.0,0.0,0.0,0.0,0.0,0.0,0.0,0.0,0.0,0.0,0.0,0.0,0.0,0.0095,-0.1421,-0.3376,-0.4073,-0.3161,-0.1632,-0.0699,0.0,0.0,0.0,0.0,0.0,0.0,0.0,0.0,0.0,0.0,0.0,0.0,0.0,0.0,0.0,0.0,0.0,0.0,0.0,0.0,0.0,0.0,0.0,0.0,0.0,0.0,0.0,0.0,0.0,0.0,0.0,0.0,0.0,0.0,0.0,0.0,0.0,0.0,0.0,0.0,0.0,0.0,0.0,0.0,0.0,0.0,0.0,0.0,0.0,0.0,0.0,0.0,0.0,0.0,0.0,0.0,0.0,0.0,0.0,0.0,0.0,0.0,0.0,0.0,0.0,0.0,0.0,0.0,0.0,0.0,0.0,0.0,0.0,0.0,0.0,0.0,0.0,0.0,0.0,0.0,0.0,0.0,0.0,0.0,0.0,0.0,0.0,0.0,0.0,0.0,0.0,0.0,0.0,0.0,0.0,0.0,0.0,0.0,0.0,0.0,0.0,0.0,0.0,0.0,0.0,0.0,0.0,0.0,0.1785,0.0769,-0.0485,-0.0098,0.2186,0.2357,0.229,0.0,0.0,0.0,0.0,0.0,0.0,0.0,0.0,0.0,0.0,0.0,0.0,0.0,0.0,0.0,0.0,0.0,0.0,0.0,0.0,0.0,0.0,0.0,0.0,0.0,0.0,0.0,0.0,0.0,0.0,0.0,0.0,0.0,0.0,0.0,0.0,0.0,0.0,0.0,0.0,0.0,0.0,0.0,0.0,0.0,0.0,0.0,0.0,0.0,0.0,0.0,0.0,0.0,0.0,0.0,0.0,0.0,0.0,0.0,0.0,0.0,0.0,0.0,0.0,0.0,0.0,0.0,0.0,0.0,0.0,0.0,0.0,0.0,0.0,0.0,0.0,0.0,0.0,0.0,0.0,0.0,0.0,0.0,0.0,0.0,0.0,0.0,0.0,0.0,0.0,0.0,0.0,0.0,0.0,0.0,0.0,0.0,0.0,0.0,0.0,0.0,0.0,0.0,0.0,0.0,0.0,0.0,0.0,0.0,0.2476,0.2432,0.3478,0.5605,0.5128,0.4398,0.0,0.0,0.0,0.0,0.0,0.0,0.0,0.0,0.0,0.0,0.0,0.0,0.0,0.0,0.0,0.0,0.0,0.0,0.0,0.0,0.0,0.0,0.0,0.0,0.0,0.0,0.0,0.0,0.0,0.0,0.0,0.0,0.0,0.0,0.0,0.0,0.0,0.0,0.0,0.0,0.0,0.0,0.0,0.0,0.0,0.0,0.0,0.0,0.0,0.0,0.0,0.0,0.0,0.0,0.0,0.0,0.0,0.0,0.0,0.0,0.0,0.0,0.0,0.0,0.0,0.0,0.0,0.0,0.0,0.0,0.0,0.0,0.0,0.0,0.0,0.0,0.0,0.0,0.0,0.0,0.0,0.0,0.0,0.0,0.0,0.0,0.0,0.0,0.0,0.0,0.0,0.0,0.0,0.0,0.0,0.0,0.0,0.0,0.0,0.0,0.0,0.0,0.0,0.0,0.0,0.0,0.0,0.0,0.0,0.5357,0.6591,0.6935,0.6348,0.5485,0.4438,0.0,0.0,0.0,0.0,0.0,0.0,0.0,0.0,0.0,0.0,0.0,0.0,0.0,0.0,0.0,0.0,0.0,0.0,0.0,0.0,0.0,0.0,0.0,0.0,0.0,0.0,0.0,0.0,0.0,0.0,0.0,0.0,0.0,0.0,0.0,0.0,0.0,0.0,0.0,0.0,0.0,0.0,0.0,0.0,0.0,0.0,0.0,0.0,0.0,0.0,0.0,0.0,0.0,0.0,0.0,0.0,0.0,0.0,0.0,0.0,0.0,0.0,0.0,0.0,0.0,0.0,0.0,0.0,0.0,0.0,0.0,0.0,0.0,0.0,0.0,0.0,0.0,0.0,0.0,0.0,0.0,0.0,0.0,0.0,0.0,0.0,0.0,0.0,0.0,0.0,0.0,0.0,0.0,0.0,0.0,0.0,0.0,0.0,0.0,0.0,0.0,0.0,0.0,0.0,0.0,0.0,0.0,0.0,0.0,0.4749,0.5784,0.6166,0.5787,0.4828,0.4233,0.3939,0.0,0.0,0.0,0.0,0.0,0.0,0.0,0.0,0.0,0.0,0.0,0.0,0.0,0.0,0.0,0.0,0.0,0.0,0.0,0.0,0.0,0.0,0.0,0.0,0.0,0.0,0.0,0.0,0.0,0.0,0.0,0.0,0.0,0.0,0.0,0.0,0.0,0.0,0.0,0.0,0.0,0.0,0.0,0.0,0.0,0.0,0.0,0.0,0.0,0.0,0.0,0.0,0.0,0.0,0.0,0.0,0.0,0.0,0.0,0.0,0.0,0.0,0.0,0.0,0.0,0.0,0.0,0.0,0.0,0.0,0.0,0.0,0.0,0.0,0.0,0.0,0.0,0.0,0.0,0.0,0.0,0.0,0.0,0.0,0.0,0.0,0.0,0.0,0.0,0.0,0.0,0.0,0.0,0.0,0.0,0.0,0.0,0.0,0.0,0.0,0.0,0.0,0.0,0.0,0.0,0.0,0.0,0.0,0.5142,0.5964,0.6199,0.5807,0.4979,0.4411,0.0,0.0,0.0,0.0,0.0,0.0,0.0,0.0,0.0,0.0,0.0,0.0,0.0,0.0,0.0,0.0,0.0,0.0,0.0,0.0,0.0,0.0,0.0,0.0,0.0,0.0,0.0,0.0,0.0,0.0,0.0,0.0,0.0,0.0,0.0,0.0,0.0,0.0,0.0,0.0,0.0,0.0,0.0,0.0,0.0,0.0,0.0,0.0,0.0,0.0,0.0,0.0,0.0,0.0,0.0,0.0,0.0,0.0,0.0,0.0,0.0,0.0,0.0,0.0,0.0,0.0,0.0,0.0,0.0,0.0,0.0,0.0,0.0,0.0,0.0,0.0,0.0,0.0,0.0,0.0,0.0,0.0,0.0,0.0,0.0,0.0,0.0,0.0,0.0,0.0,0.0,0.0,0.0,0.0,0.0,0.0,0.0,0.0,0.0,0.0,0.0,0.0,0.0,0.0,0.0,0.0,0.0,0.0,0.6592,0.7328,0.7699,0.7452,0.6626,0.6311,0.5146,0.0,0.0,0.0,0.0,0.0,0.0,0.0,0.0,0.0,0.0,0.0,0.0,0.0,0.0,0.0,0.0,0.0,0.0,0.0,0.0,0.0,0.0,0.0,0.0,0.0,0.0,0.0,0.0,0.0,0.0,0.0,0.0,0.0,0.0,0.0,0.0,0.0,0.0,0.0,0.0,0.0,0.0,0.0,0.0,0.0,0.0,0.0,0.0,0.0,0.0,0.0,0.0,0.0,0.0,0.0,0.0,0.0,0.0,0.0,0.0,0.0,0.0,0.0,0.0,0.0,0.0,0.0,0.0,0.0,0.0,0.0,0.0,0.0,0.0,0.0,0.0,0.0,0.0,0.0,0.0,0.0,0.0,0.0,0.0,0.0,0.0,0.0,0.0,0.0,0.0,0.0,0.0,0.0,0.0,0.0,0.0,0.0,0.0,0.0,0.0,0.0,0.0,0.0,0.0,0.0,0.0,0.0,0.0,0.0,0.7875,0.0,0.7516,0.0,0.6472,0.5571,0.0,0.0,0.0,0.0,0.0,0.0,0.0,0.0,0.0,0.0,0.0,0.0,0.0,0.0,0.0,0.0,0.0,0.0,0.0,0.0,0.0,0.0,0.0,0.0,0.0,0.0,0.0,0.0,0.0,0.0,0.0,0.0,0.0,0.0,0.0,0.0,0.0,0.0,0.0,0.0,0.0,0.0,0.0,0.0,0.0,0.0,0.0,0.0,0.0,0.0,0.0,0.0,0.0,0.0,0.0,0.0,0.0,0.0,0.0,0.0,0.0,0.0,0.0,0.0,0.0,0.0,0.0,0.0,0.0,0.0,0.0,0.0,0.0,0.0,0.0,0.0,0.0,0.0,0.0,0.0,0.0,0.0,0.0,0.0,0.0,0.0,0.0,0.0,0.0,0.0,0.0,0.0,0.0,0.0,0.0,0.0,0.0,0.0,0.0,0.0,0.0,0.0,0.0,0.0,0.0,0.0,0.0,0.0,0.0,0.8882,0.843,0.8257,0.8388,0.7002,0.6128,0.0,0.0,0.0,0.0,0.0,0.0,0.0,0.0,0.0,0.0,0.0,0.0,0.0,0.0,0.0,0.0,0.0,0.0,0.0,0.0,0.0,0.0,0.0,0.0,0.0,0.0,0.0,0.0,0.0,0.0,0.0,0.0,0.0,0.0,0.0,0.0,0.0,0.0,0.0,0.0,0.0,0.0,0.0,0.0,0.0,0.0,0.0,0.0,0.0,0.0,0.0,0.0,0.0,0.0,0.0,0.0,0.0,0.0,0.0,0.0,0.0,0.0,0.0,0.0,0.0,0.0,0.0,0.0,0.0,0.0,0.0,0.0,0.0,0.0,0.0,0.0,0.0,0.0,0.0,0.0,0.0,0.0,0.0,0.0,0.0,0.0,0.0,0.0,0.0,0.0,0.0,0.0,0.0,0.0,0.0,0.0,0.0,0.0,0.0,0.0,0.0,0.0,0.0,0.0,0.0,0.0,0.0,0.0,0.0,0.0,1.0109,0.9553,0.8698,0.8121,0.6976,0.0,0.0,0.0,0.0,0.0,0.0,0.0,0.0,0.0,0.0,0.0,0.0,0.0,0.0,0.0,0.0,0.0,0.0,0.0,0.0,0.0,0.0,0.0,0.0,0.0,0.0,0.0,0.0,0.0,0.0,0.0,0.0,0.0,0.0,0.0,0.0,0.0,0.0,0.0,0.0,0.0,0.0,0.0,0.0,0.0,0.0,0.0,0.0,0.0,0.0,0.0,0.0,0.0,0.0,0.0,0.0,0.0,0.0,0.0,0.0,0.0,0.0,0.0,0.0,0.0,0.0,0.0,0.0,0.0,0.0,0.0,0.0,0.0,0.0,0.0,0.0,0.0,0.0,0.0,0.0,0.0,0.0,0.0,0.0,0.0,0.0,0.0,0.0,0.0,0.0,0.0,0.0,0.0,0.0,0.0,0.0,0.0,0.0,0.0,0.0,0.0,0.0,0.0,0.0,0.0,0.0,0.0,0.0,0.0,0.0,1.0982,0.0,1.019,0.9105,0.7887,0.6797,0.0,0.0,0.0,0.0,0.0,0.0,0.0,0.0,0.0,0.0,0.0,0.0,0.0,0.0,0.0,0.0,0.0,0.0,0.0,0.0,0.0,0.0,0.0,0.0,0.0,0.0,0.0,0.0,0.0,0.0,0.0,0.0,0.0,0.0,0.0,0.0,0.0,0.0,0.0,0.0,0.0,0.0,0.0,0.0,0.0,0.0,0.0,0.0,0.0,0.0,0.0,0.0,0.0,0.0,0.0,0.0,0.0,0.0,0.0,0.0,0.0,0.0,0.0,0.0,0.0,0.0,0.0,0.0,0.0,0.0,0.0,0.0,0.0,0.0,0.0,0.0,0.0,0.0,0.0,0.0,0.0,0.0,0.0,0.0,0.0,0.0,0.0,0.0,0.0,0.0,0.0,0.0,0.0,0.0,0.0,0.0,0.0,0.0,0.0,0.0,0.0,0.0,0.0,0.0,0.0,0.0,0.0,0.0,0.0,0.0,0.0,1.0971,1.033,0.9315,0.0,0.0,0.0,0.0,0.0,0.0,0.0,0.0,0.0,0.0,0.0,0.0,0.0,0.0,0.0,0.0,0.0,0.0,0.0,0.0,0.0,0.0,0.0,0.0,0.0,0.0,0.0,0.0,0.0,0.0,0.0,0.0,0.0,0.0,0.0,0.0,0.0,0.0,0.0,0.0,0.0,0.0,0.0,0.0,0.0,0.0,0.0,0.0,0.0,0.0,0.0,0.0,0.0,0.0,0.0,0.0,0.0,0.0,0.0,0.0,0.0,0.0,0.0,0.0,0.0,0.0,0.0,0.0,0.0,0.0,0.0,0.0,0.0,0.0,0.0,0.0,0.0,0.0,0.0,0.0,0.0,0.0,0.0,0.0,0.0,0.0,0.0,0.0,0.0,0.0,0.0,0.0,0.0,0.0,0.0,0.0,0.0,0.0,0.0,0.0,0.0,0.0,0.0,0.0,0.0,0.0,0.0,0.0,0.0,0.0,0.0,1.1964,1.1226,1.1414,0.0,0.8906,0.0,0.0,0.0,0.0,0.0,0.0,0.0,0.0,0.0,0.0,0.0,0.0,0.0,0.0,0.0,0.0,0.0,0.0,0.0,0.0,0.0,0.0,0.0,0.0,0.0,0.0,0.0,0.0,0.0,0.0,0.0,0.0,0.0,0.0,0.0,0.0,0.0,0.0,0.0,0.0,0.0,0.0,0.0,0.0,0.0,0.0,0.0,0.0,0.0,0.0,0.0,0.0,0.0,0.0,0.0,0.0,0.0,0.0,0.0,0.0,0.0,0.0,0.0,0.0,0.0,0.0,0.0,0.0,0.0,0.0,0.0,0.0,0.0,0.0,0.0,0.0,0.0,0.0,0.0,0.0,0.0,0.0,0.0,0.0,0.0,0.0,0.0,0.0,0.0,0.0,0.0,0.0,0.0,0.0,0.0,0.0,0.0,0.0,0.0,0.0,0.0,0.0,0.0,0.0,0.0,0.0,0.0,0.0,0.0,0.0,0.0,0.0,1.1043,1.0406,1.0371,0.0,0.0,0.0,0.0,0.0,0.0,0.0,0.0,0.0,0.0,0.0,0.0,0.0,0.0,0.0,0.0,0.0,0.0,0.0,0.0,0.0,0.0,0.0,0.0,0.0,0.0,0.0,0.0,0.0,0.0,0.0,0.0,0.0,0.0,0.0,0.0,0.0,0.0,0.0,0.0,0.0,0.0,0.0,0.0,0.0,0.0,0.0,0.0,0.0,0.0,0.0,0.0,0.0,0.0,0.0,0.0,0.0,0.0,0.0,0.0,0.0,0.0,0.0,0.0,0.0,0.0,0.0,0.0,0.0,0.0,0.0,0.0,0.0,0.0,0.0,0.0,0.0,0.0,0.0,0.0,0.0,0.0,0.0,0.0,0.0,0.0,0.0,0.0,0.0,0.0,0.0,0.0,0.0,0.0,0.0,0.0,0.0,0.0,0.0,0.0,0.0,0.0,0.0,0.0,0.0,0.0,0.0,0.0,0.0,0.0,1.1679,1.2425,1.1397,1.0937,1.1197,0.0,0.0,0.0,0.0,0.0,0.0,0.0,0.0,0.0,0.0,0.0,0.0,0.0,0.0,0.0,0.0,0.0,0.0,0.0,0.0,0.0,0.0,0.0,0.0,0.0,0.0,0.0,0.0,0.0,0.0,0.0,0.0,0.0,0.0,0.0,0.0,0.0,0.0,0.0,0.0,0.0,0.0,0.0,0.0,0.0,0.0,0.0,0.0,0.0,0.0,0.0,0.0,0.0,0.0,0.0,0.0,0.0,0.0,0.0,0.0,0.0,0.0,0.0,0.0,0.0,0.0,0.0,0.0,0.0,0.0,0.0,0.0,0.0,0.0,0.0,0.0,0.0,0.0,0.0,0.0,0.0,0.0,0.0,0.0,0.0,0.0,0.0,0.0,0.0,0.0,0.0,0.0,0.0,0.0,0.0,0.0,0.0,0.0,0.0,0.0,0.0,0.0,0.0,0.0,0.0,0.0,0.0,0.0,0.0,0.0,0.0,0.0,0.0,0.0,1.1362,0.0,0.0,0.0,0.0,0.0,0.0,0.0,0.0,0.0,0.0,0.0,0.0,0.0,0.0,0.0,0.0,0.0,0.0,0.0,0.0,0.0,0.0,0.0,0.0,0.0,0.0,0.0,0.0,0.0,0.0,0.0,0.0,0.0,0.0,0.0,0.0,0.0,0.0,0.0,0.0,0.0,0.0,0.0,0.0,0.0,0.0,0.0,0.0,0.0,0.0,0.0,0.0,0.0,0.0,0.0,0.0,0.0,0.0,0.0,0.0,0.0,0.0,0.0,0.0,0.0,0.0,0.0,0.0,0.0,0.0,0.0,0.0,0.0,0.0,0.0,0.0,0.0,0.0,0.0,0.0,0.0,0.0,0.0,0.0,0.0,0.0,0.0,0.0,0.0,0.0,0.0,0.0,0.0,0.0,0.0,0.0,0.0,0.0,0.0,0.0,0.0,0.0,0.0,0.0,0.0,0.0,0.0,0.0,0.0,0.0,0.0,0.0,0.0,0.0,0.0,0.0,0.0,0.0,0.0,0.0,0.0,0.0,0.0,0.0,0.0,0.0,0.0,0.0,0.0,0.0,0.0,0.0,0.0,0.0,0.0,0.0,0.0,0.0,0.0,0.0,0.0,0.0,0.0,0.0,0.0,0.0,0.0,0.0,0.0,0.0,0.0,0.0,0.0,0.0,0.0,0.0,0.0,0.0,0.0,0.0,0.0,0.0,0.0,0.0,0.0,0.0,0.0,0.0,0.0,0.0,0.0,0.0,0.0,0.0,0.0,0.0,0.0,0.0,0.0,0.0,0.0,0.0,0.0,0.0,0.0,0.0,0.0,0.0,0.0,0.0,0.0,0.0,0.0,0.0,0.0,0.0,0.0,0.0,0.0,0.0,0.0,0.0,0.0,0.0,0.0,0.0,0.0,0.0,0.0,0.0,0.0,0.0,0.0,0.0,0.0,0.0,0.0,0.0,0.0,0.0,0.0,0.0,0.0,0.0,0.0,0.0,0.0,0.0,0.0,0.0,0.0,0.0,0.0,0.0,0.0,0.0,0.0,0.0,0.0,0.0,0.0,0.0,0.0,0.0,0.0,0.0,0.0,0.0,0.0,0.0,0.0,0.0,0.0,0.0,0.0,0.0,0.0,0.0,0.0,0.0,0.0,0.0,0.0,0.0,0.0,0.0,0.0,0.0,0.0,0.0,0.0,0.0,0.0,0.0,0.0,0.0,0.0,0.0,0.0,0.0,0.0,0.0,0.0,0.0,0.0,0.0,0.0,0.0,0.0,0.0,0.0,0.0,0.0,0.0,0.0,0.0,0.0,0.0,0.0,0.0,0.0,0.0,0.0,0.0,0.0,0.0,0.0,0.0,0.0,0.0,0.0,0.0,0.0,0.0,0.0,0.0,0.0,0.0,0.0,0.0,0.0,0.0,0.0,0.0,0.0,0.0,0.0,0.0,0.0,0.0,0.0,0.0,0.0,0.0,0.0,0.0,0.0,0.0,0.0,0.0,0.0,0.0,0.0,0.0,0.0,0.0,0.0,0.0,0.0,0.0,0.0,0.0,0.0,0.0,0.0,0.0,0.0,0.0,0.0,0.0,0.0,0.0,0.0,0.0,0.0,0.0,0.0,0.0,0.0,0.0,0.0,0.0,0.0,0.0,0.0,0.0,0.0,0.0,0.0,0.0,0.0,0.0,0.0,0.0,0.0,0.0,0.0,0.0,0.0,0.0,0.0,0.0,0.0,0.0,0.0,0.0,0.0,0.0,0.0,0.0,0.0,0.0,0.0,0.0,0.0,0.0,0.0,0.0,0.0,0.0,0.0,0.0,0.0,0.0,0.0,0.0,0.0,0.0,0.0,0.0,0.0,0.0,0.0,0.0,0.0,0.0,0.0,0.0,0.0,0.0,0.0,0.0,0.0,0.0,0.0,0.0,0.0,0.0,0.0,0.0,0.0,0.0,0.0,0.0,0.0,0.0,0.0,0.0,0.0,0.0,0.0,0.0,0.0,0.0,0.0,0.0,0.0,0.0,0.0,0.0,0.0,0.0,0.0,0.0,0.0,0.0,0.0,0.0,0.0,0.0,0.0,0.0,0.0,0.0,0.0,0.0,0.0,0.0,0.0,0.0,0.0,0.0,0.0,0.0,0.0,0.0,0.0,0.0,0.0,0.0,0.0,0.0,0.0,0.0,0.0,0.0,0.0,0.0,0.0,0.0,0.0,0.0,0.0,0.0,0.0,0.0,0.0,0.0,0.0,0.0,0.0,0.0,0.0,0.0,0.0,0.0,0.0,0.0,0.0,0.0,0.0,0.0,0.0,0.0,0.0,0.0,0.0,0.0,0.0,0.0,0.0,0.0,0.0,0.0,0.0,0.0,0.0,0.0,0.0,0.0,0.0,0.0,0.0,0.0,0.0,0.0,0.0,0.0,0.0,0.0,0.0,0.0,0.0,0.0,0.0,0.0,0.0,0.0,0.0,0.0,0.0,0.0,0.0,0.0,0.0,0.0,0.0,0.0,0.0,0.0,0.0,0.0,0.0,0.0,0.0,0.0,0.0,0.0,0.0,0.0,0.0,0.0,0.0,0.0,0.0,0.0,0.0,0.0,0.0,0.0,0.0,0.0,0.0,0.0,0.0,0.0,0.0,0.0,0.0,0.0,0.0,0.0,0.0,0.0,0.0,0.0,0.0,0.0,0.0,0.0,0.0,0.0,0.0,0.0,0.0,0.0,0.0,0.0,0.0,0.0,0.0,0.0,0.0,0.0,0.0,0.0,0.0,0.0,0.0,0.0,0.0,0.0,0.0,0.0,0.0,0.0,0.0,0.0,0.0,0.0,0.0,0.0,0.0,0.0,0.0,0.0,0.0,0.0,0.0,0.0,0.0,0.0,0.0,0.0,0.0,0.0,0.0,0.0,0.0,0.0,0.0,0.0,0.0,0.0,0.0,0.0,0.0,0.0,0.0,0.0,0.0,0.0,0.0,0.0,0.0,0.0,0.0,0.0,0.0,0.0,0.0,0.0,0.0,0.0,0.0,0.0,0.0,0.0,0.0,0.0,0.0,0.0,0.0,0.0,0.0,0.0,0.0,0.0,0.0,0.0,0.0,0.0,0.0,0.0,0.0,0.0,0.0,0.0,0.0,0.0,0.0,0.0,0.0,0.0,0.0,0.0,0.0,0.0,0.0,0.0,0.0,0.0,0.0,0.0,0.0,0.0,0.0,0.0,0.0,0.0,0.0,0.0,0.0,0.0,0.0,0.0,0.0,0.0,0.0,0.0,0.0,0.0,0.0,0.0,0.0,0.0,0.0,0.0,0.0,0.0,0.0,0.0,0.0,0.0,0.0,0.0,0.0,0.0,0.0,0.0,0.0,0.0,0.0,0.0,0.0,0.0,0.0,0.0,0.0,0.0,0.0,0.0,0.0,0.0,0.0,0.0,0.0,0.0,0.0,0.0,0.0,0.0,0.0,0.0,0.0,0.0,0.0,0.0,0.0,0.0,0.0,0.0,0.0,0.0,0.0,0.0,0.0,0.0,0.0,0.0,0.0,0.0,0.0,0.0,0.0,0.0,0.0,0.0,0.0,0.0,0.0,0.0,0.0,0.0,0.0,0.0,0.0,0.0,0.0,0.0,0.0,0.0,0.0,0.0,0.0,0.0,0.0,0.0,0.0,0.0,0.0,0.0,0.0,0.0,0.0,0.0,0.0,0.0,0.0,0.0,0.0,0.0,0.0,0.0,0.0,0.0,0.0,0.0,0.0,0.0,0.0,0.0,0.0,0.0,0.0,0.0,0.0,0.0,0.0,0.0,0.0,0.0,0.0,0.0,0.0,0.0,0.0,0.0,0.0,0.0,0.0,0.0,0.0,0.0,0.0,0.0,0.0,0.0,0.0,0.0,0.0,0.0,0.0,0.0,0.0,0.0,0.0,0.0,0.0,0.0,0.0,0.0,0.0,0.0,0.0,0.0,0.0,0.0,0.0,0.0,0.0,0.0,0.0,0.0,0.0,0.0,0.0,0.0,0.0,0.0,0.0,0.0,0.0,0.0,0.0,0.0,0.0,0.0,0.0,0.0,0.0,0.0,0.0,0.0,0.0,0.0,0.0,0.0,0.0,0.0,0.0,0.0,0.0,0.0,0.0,0.0,0.0,0.0,0.0,0.0,0.0,0.0,0.0,0.0,0.0,0.0,0.0,0.0,0.0,0.0,0.0,0.0,0.0,0.0,0.0,0.0,0.0,0.0,0.0,0.0,0.0,0.0,0.0,0.0,0.0,0.0,0.0,0.0,0.0,0.0,0.0,0.0,0.0,0.0,0.0,0.0,0.0,0.0,0.0,0.0,0.0,0.0,0.0,0.0,0.0,0.0,0.0,0.0]}]]]